[[{"header":{"parameterUnit":"m.s-1","parameterCategory":1,"la1":30.6,"la2":29.2853,"lo1":-89.7004,"lo2":-87.6739,"dy":0.0162,"dx":0.0183,"nx":112,"ny":82,"refTime":"2026-04-04T12:00:00:Z","depth":0,"parameterNumber":2,"parameterNumberName":"U-component_of_WINDS"},"data":[0.0,0.0,0.0,0.0,0.0,0.0,0.0,0.0,0.0,0.0,0.0,0.0,0.0,0.0,0.0,0.0,0.0,0.0,0.0,0.0,0.0,0.0,0.0,0.0,0.0,0.0,0.0,0.0,0.0,0.0,0.0,0.0,0.0,0.0,0.0,0.0,0.0,0.0,0.0,0.0,0.0,0.0,0.0,0.0,0.0,0.0,0.0,0.0,0.0,0.0,0.0,0.0,0.0,0.0,0.0,0.0,0.0,0.0,0.0,0.0,0.0,0.0,0.0,0.0,0.0,0.0,0.0,0.0,0.0,0.0,0.0,0.0,0.0,0.0,0.0,0.0,0.0,0.0,0.0,0.0,0.0,0.0,0.0,0.0,0.0,0.0,0.0,0.0,0.0,0.0,-1.7662,-2.0594,-2.2868,-2.419,-2.419,-2.3472,-2.1935,-1.9457,0.0,0.0,0.0,0.0,0.0,0.0,0.0,0.0,0.0,0.0,0.0,0.0,0.0,0.0,0.0,0.0,0.0,0.0,0.0,0.0,0.0,0.0,0.0,0.0,0.0,0.0,0.0,0.0,0.0,0.0,0.0,0.0,0.0,0.0,0.0,0.0,0.0,0.0,0.0,0.0,0.0,0.0,0.0,0.0,0.0,0.0,0.0,0.0,0.0,0.0,0.0,0.0,0.0,0.0,0.0,0.0,0.0,0.0,0.0,0.0,0.0,0.0,0.0,0.0,0.0,0.0,0.0,0.0,0.0,0.0,0.0,0.0,0.0,0.0,0.0,0.0,0.0,0.0,0.0,0.0,0.0,0.0,0.0,0.0,0.0,0.0,0.0,0.0,0.0,0.0,0.0,0.0,0.0,0.0,0.0,0.0,0.0,0.0,0.0,0.0,0.0,0.0,0.0,0.0,-1.7589,-2.2136,-2.3565,-2.419,-2.419,-2.3472,-2.193,-1.9463,0.0,0.0,0.0,0.0,0.0,0.0,0.0,0.0,0.0,0.0,0.0,0.0,0.0,0.0,0.0,0.0,0.0,0.0,0.0,0.0,0.0,0.0,0.0,0.0,0.0,0.0,0.0,0.0,0.0,0.0,0.0,0.0,0.0,0.0,0.0,0.0,0.0,0.0,0.0,0.0,0.0,0.0,0.0,0.0,0.0,0.0,0.0,0.0,0.0,0.0,0.0,0.0,0.0,0.0,0.0,0.0,0.0,0.0,0.0,0.0,0.0,0.0,0.0,0.0,0.0,0.0,0.0,0.0,0.0,0.0,0.0,0.0,0.0,0.0,0.0,0.0,0.0,0.0,0.0,0.0,0.0,0.0,0.0,0.0,0.0,0.0,0.0,0.0,0.0,0.0,0.0,0.0,0.0,0.0,0.0,0.0,0.0,0.0,0.0,0.0,0.0,0.0,0.0,-1.7853,-1.9669,-2.327,-2.3987,-2.419,-2.419,-2.3472,-2.1929,-1.9468,-1.7037,0.0,0.0,0.0,0.0,0.0,0.0,0.0,0.0,0.0,0.0,0.0,0.0,0.0,0.0,0.0,0.0,0.0,0.0,0.0,0.0,0.0,0.0,0.0,0.0,0.0,0.0,0.0,0.0,0.0,0.0,0.0,0.0,0.0,0.0,0.0,0.0,0.0,0.0,0.0,0.0,0.0,0.0,0.0,0.0,0.0,0.0,0.0,0.0,0.0,0.0,0.0,0.0,0.0,0.0,0.0,0.0,0.0,0.0,0.0,0.0,0.0,0.0,0.0,0.0,0.0,0.0,0.0,0.0,0.0,0.0,0.0,0.0,0.0,0.0,0.0,0.0,0.0,0.0,0.0,0.0,0.0,0.0,0.0,0.0,0.0,0.0,0.0,0.0,0.0,0.0,0.0,0.0,0.0,0.0,0.0,0.0,0.0,0.0,0.0,0.0,0.0,0.0,-2.0441,-2.1675,-2.3969,-2.419,-2.419,-2.419,-2.329,-2.1747,-1.9445,-1.686,0.0,0.0,0.0,0.0,0.0,0.0,0.0,0.0,0.0,0.0,0.0,0.0,0.0,0.0,0.0,0.0,0.0,0.0,0.0,0.0,0.0,0.0,0.0,0.0,0.0,0.0,0.0,0.0,0.0,0.0,0.0,0.0,0.0,0.0,0.0,0.0,0.0,0.0,0.0,0.0,0.0,0.0,0.0,0.0,0.0,0.0,0.0,0.0,0.0,0.0,0.0,0.0,0.0,0.0,0.0,0.0,0.0,0.0,0.0,0.0,0.0,0.0,0.0,0.0,0.0,0.0,0.0,0.0,0.0,0.0,0.0,0.0,0.0,0.0,0.0,0.0,0.0,0.0,0.0,0.0,0.0,0.0,0.0,0.0,0.0,0.0,0.0,0.0,0.0,0.0,0.0,0.0,0.0,0.0,0.0,0.0,0.0,0.0,0.0,0.0,0.0,0.0,-2.028,-2.2352,-2.4024,-2.419,-2.419,-2.419,-2.2776,-2.1142,-1.9402,-1.6336,0.0,0.0,0.0,0.0,0.0,0.0,0.0,0.0,0.0,0.0,0.0,0.0,0.0,0.0,0.0,0.0,0.0,0.0,0.0,0.0,0.0,0.0,0.0,0.0,0.0,0.0,0.0,0.0,0.0,0.0,0.0,0.0,0.0,0.0,0.0,0.0,0.0,0.0,0.0,0.0,0.0,0.0,0.0,0.0,0.0,0.0,0.0,0.0,0.0,0.0,0.0,0.0,0.0,0.0,0.0,0.0,0.0,0.0,0.0,0.0,0.0,0.0,0.0,0.0,0.0,0.0,0.0,0.0,0.0,0.0,0.0,0.0,0.0,0.0,0.0,0.0,0.0,0.0,0.0,0.0,0.0,0.0,0.0,0.0,0.0,0.0,0.0,0.0,0.0,0.0,0.0,0.0,0.0,0.0,0.0,0.0,0.0,0.0,0.0,0.0,0.0,0.0,-2.0042,-2.1803,0.0,-2.419,-2.419,-2.419,-2.3172,-2.1616,-1.9427,0.0,0.0,0.0,0.0,0.0,0.0,0.0,0.0,0.0,0.0,0.0,0.0,0.0,0.0,0.0,0.0,0.0,0.0,0.0,0.0,0.0,0.0,0.0,0.0,0.0,0.0,0.0,0.0,0.0,0.0,0.0,0.0,0.0,0.0,0.0,0.0,0.0,0.0,0.0,0.0,0.0,0.0,0.0,0.0,0.0,0.0,0.0,0.0,0.0,0.0,0.0,0.0,0.0,0.0,0.0,0.0,0.0,0.0,0.0,0.0,0.0,0.0,0.0,0.0,0.0,0.0,0.0,0.0,0.0,0.0,0.0,0.0,0.0,0.0,0.0,0.0,0.0,0.0,0.0,0.0,0.0,0.0,0.0,0.0,0.0,0.0,0.0,0.0,0.0,0.0,0.0,0.0,0.0,0.0,0.0,0.0,0.0,0.0,0.0,0.0,0.0,0.0,-1.8601,-2.0156,-2.1658,0.0,-2.3824,-2.3713,-2.3456,-2.2449,-2.0997,-1.9036,0.0,0.0,0.0,0.0,0.0,0.0,0.0,0.0,0.0,0.0,0.0,0.0,0.0,0.0,0.0,0.0,0.0,0.0,0.0,0.0,0.0,0.0,0.0,0.0,0.0,0.0,0.0,0.0,0.0,0.0,0.0,0.0,0.0,0.0,0.0,0.0,0.0,0.0,0.0,0.0,0.0,0.0,0.0,0.0,0.0,0.0,0.0,0.0,0.0,0.0,0.0,0.0,0.0,0.0,0.0,0.0,0.0,0.0,0.0,0.0,0.0,0.0,0.0,0.0,0.0,0.0,0.0,0.0,0.0,0.0,0.0,0.0,0.0,0.0,0.0,0.0,0.0,0.0,0.0,0.0,0.0,0.0,0.0,0.0,0.0,0.0,0.0,0.0,0.0,0.0,0.0,0.0,0.0,0.0,0.0,0.0,0.0,0.0,0.0,0.0,0.0,0.0,-1.8643,-2.0662,-2.2099,-2.29,-2.2992,-2.2662,-2.1858,-2.028,-1.8966,0.0,0.0,0.0,0.0,0.0,0.0,0.0,0.0,0.0,0.0,0.0,0.0,0.0,0.0,0.0,0.0,0.0,0.0,0.0,0.0,0.0,0.0,0.0,0.0,0.0,0.0,0.0,0.0,0.0,0.0,0.0,0.0,0.0,0.0,0.0,0.0,0.0,0.0,0.0,0.0,0.0,0.0,0.0,0.0,0.0,0.0,0.0,0.0,0.0,0.0,0.0,0.0,0.0,0.0,0.0,0.0,0.0,0.0,0.0,0.0,0.0,0.0,0.0,0.0,0.0,0.0,0.0,0.0,0.0,0.0,0.0,0.0,0.0,0.0,0.0,0.0,0.0,0.0,0.0,0.0,0.0,0.0,0.0,0.0,0.0,0.0,0.0,0.0,0.0,0.0,0.0,0.0,0.0,0.0,0.0,0.0,0.0,0.0,0.0,0.0,0.0,0.0,0.0,-1.7705,-1.9719,-2.1206,-2.2059,-2.2157,-2.206,-2.1815,-2.0794,-1.9557,-1.8204,0.0,0.0,0.0,0.0,0.0,0.0,0.0,0.0,0.0,0.0,0.0,0.0,0.0,0.0,0.0,0.0,0.0,0.0,0.0,0.0,0.0,0.0,0.0,0.0,0.0,0.0,0.0,0.0,0.0,0.0,0.0,0.0,0.0,0.0,0.0,0.0,0.0,0.0,0.0,0.0,0.0,0.0,0.0,0.0,0.0,0.0,0.0,0.0,0.0,0.0,0.0,0.0,0.0,0.0,0.0,0.0,0.0,0.0,0.0,0.0,0.0,0.0,0.0,0.0,0.0,0.0,0.0,0.0,0.0,0.0,0.0,0.0,0.0,0.0,0.0,0.0,0.0,0.0,0.0,0.0,0.0,0.0,0.0,0.0,0.0,0.0,0.0,0.0,0.0,0.0,0.0,0.0,0.0,0.0,0.0,0.0,0.0,0.0,0.0,0.0,0.0,0.0,-1.7297,-1.93,-2.0709,-2.1235,-2.1279,-2.1161,-2.0823,-2.0323,-1.9331,-1.7729,0.0,0.0,0.0,0.0,0.0,0.0,0.0,0.0,0.0,0.0,0.0,0.0,0.0,0.0,0.0,0.0,0.0,0.0,0.0,0.0,0.0,0.0,0.0,0.0,0.0,0.0,0.0,0.0,0.0,0.0,0.0,0.0,0.0,0.0,0.0,0.0,0.0,0.0,0.0,0.0,0.0,0.0,0.0,0.0,0.0,0.0,0.0,0.0,0.0,0.0,0.0,0.0,0.0,0.0,0.0,0.0,0.0,0.0,0.0,0.0,0.0,0.0,0.0,0.0,0.0,0.0,0.0,0.0,0.0,0.0,0.0,0.0,0.0,0.0,0.0,0.0,0.0,0.0,0.0,0.0,0.0,0.0,0.0,0.0,0.0,0.0,0.0,0.0,0.0,0.0,0.0,0.0,0.0,0.0,0.0,0.0,0.0,0.0,0.0,0.0,0.0,0.0,-1.7199,-1.919,-2.0393,-2.0393,-2.0393,-2.0097,-1.9344,-1.9305,-1.8647,-1.711,0.0,0.0,0.0,0.0,0.0,0.0,0.0,0.0,0.0,0.0,0.0,0.0,0.0,0.0,0.0,0.0,0.0,0.0,0.0,0.0,0.0,0.0,0.0,0.0,0.0,0.0,0.0,0.0,0.0,0.0,0.0,0.0,0.0,0.0,0.0,0.0,0.0,0.0,0.0,0.0,0.0,0.0,0.0,0.0,0.0,0.0,0.0,0.0,0.0,0.0,0.0,0.0,0.0,0.0,0.0,0.0,0.0,0.0,0.0,0.0,-1.5537,0.0,0.0,0.0,0.0,0.0,0.0,0.0,0.0,0.0,0.0,0.0,0.0,0.0,0.0,0.0,0.0,0.0,0.0,0.0,0.0,0.0,0.0,0.0,0.0,0.0,0.0,0.0,0.0,0.0,0.0,0.0,0.0,0.0,0.0,0.0,0.0,0.0,0.0,0.0,0.0,0.0,-1.6451,-1.8338,-1.9565,-1.9565,-1.9565,-1.9491,-1.9308,-1.9305,-1.8886,-1.7913,-1.6334,0.0,0.0,0.0,0.0,0.0,0.0,0.0,0.0,0.0,0.0,0.0,0.0,0.0,0.0,0.0,0.0,0.0,0.0,0.0,0.0,0.0,0.0,0.0,0.0,0.0,0.0,0.0,0.0,0.0,0.0,0.0,0.0,0.0,0.0,0.0,0.0,0.0,0.0,0.0,0.0,0.0,0.0,0.0,0.0,0.0,0.0,0.0,0.0,0.0,0.0,0.0,0.0,0.0,0.0,0.0,0.0,0.0,0.0,0.0,0.0,-1.7522,0.0,0.0,0.0,0.0,0.0,0.0,0.0,0.0,0.0,0.0,0.0,0.0,0.0,0.0,0.0,0.0,0.0,0.0,0.0,0.0,0.0,0.0,0.0,0.0,0.0,0.0,0.0,0.0,0.0,0.0,0.0,0.0,0.0,0.0,0.0,0.0,0.0,0.0,0.0,0.0,-1.6882,-1.8367,-1.9305,-1.9305,-1.9305,-1.9305,-1.9305,-1.9305,-1.8959,-1.8151,-1.6958,0.0,0.0,0.0,0.0,0.0,0.0,0.0,0.0,0.0,0.0,0.0,0.0,0.0,0.0,0.0,0.0,0.0,0.0,0.0,0.0,0.0,0.0,0.0,0.0,0.0,0.0,0.0,0.0,0.0,0.0,0.0,0.0,0.0,0.0,0.0,0.0,0.0,0.0,0.0,0.0,0.0,0.0,0.0,0.0,0.0,0.0,0.0,0.0,0.0,0.0,0.0,0.0,0.0,-2.0433,-2.1153,-2.1905,-2.2507,-2.313,-2.3636,-2.0871,-1.99,-2.0212,-1.9076,0.0,0.0,0.0,0.0,0.0,0.0,0.0,0.0,0.0,0.0,0.0,0.0,0.0,0.0,0.0,0.0,0.0,0.0,0.0,0.0,0.0,0.0,0.0,0.0,-2.0556,-2.0558,-1.8412,0.0,0.0,0.0,0.0,0.0,0.0,0.0,0.0,0.0,0.0,0.0,-1.8016,-1.8867,-1.9344,-1.9491,-1.9381,-1.9305,-1.9305,-1.9305,-1.9014,-1.8353,-1.755,-1.6505,0.0,0.0,0.0,0.0,0.0,0.0,0.0,0.0,0.0,0.0,0.0,0.0,0.0,0.0,0.0,0.0,0.0,0.0,0.0,0.0,0.0,0.0,0.0,0.0,0.0,0.0,0.0,0.0,0.0,0.0,0.0,0.0,-0.9899,-1.0088,0.0,0.0,0.0,0.0,0.0,0.0,0.0,0.0,0.0,0.0,0.0,0.0,0.0,-1.8826,-1.9545,-2.0981,-2.209,-2.2818,-2.3545,-2.4142,-2.4601,-2.4705,-2.4923,-2.5305,-2.5147,0.0,-2.2611,-2.2106,0.0,0.0,0.0,0.0,0.0,0.0,0.0,0.0,0.0,0.0,0.0,0.0,0.0,0.0,0.0,0.0,0.0,0.0,0.0,0.0,0.0,0.0,-2.2391,-2.2501,-2.3125,-2.3437,0.0,-1.9968,-1.7595,-1.6442,-1.5749,0.0,0.0,0.0,0.0,0.0,0.0,0.0,-1.97,-1.9579,-1.9565,-2.0264,-1.9711,-1.9305,-1.9305,-1.9305,-1.9234,-1.9143,-1.839,-1.7858,-1.7638,-1.5509,0.0,0.0,0.0,0.0,0.0,0.0,0.0,0.0,0.0,0.0,0.0,0.0,0.0,0.0,0.0,0.0,0.0,0.0,0.0,0.0,0.0,0.0,0.0,0.0,0.0,0.0,0.0,0.0,0.0,-1.0329,-1.0693,-1.1204,-1.0756,-1.0306,0.0,0.0,0.0,0.0,0.0,0.0,0.0,0.0,0.0,-1.947,-2.0721,-2.1843,-2.2856,-2.3709,-2.4212,-2.4368,-2.534,-2.5876,-2.6061,-2.6483,-2.6743,-2.6907,-2.7248,-2.6651,-2.5338,-2.4469,-2.3526,-2.2501,0.0,0.0,0.0,0.0,-2.1767,-2.1565,-2.2923,-2.3107,-2.2537,-2.1272,0.0,0.0,0.0,0.0,0.0,0.0,0.0,0.0,0.0,0.0,-2.4355,-2.4355,-2.4961,-2.5199,-2.3951,-2.2905,-2.153,0.0,-1.8232,-1.7422,-1.6451,0.0,0.0,0.0,0.0,-1.9295,-2.0273,-2.0578,-2.0647,-2.0503,-2.0189,-1.9785,-1.9326,-1.9305,-1.9305,-1.9305,-1.8959,-1.8574,-1.8115,-1.7087,-1.5729,0.0,0.0,0.0,0.0,0.0,0.0,0.0,0.0,0.0,0.0,0.0,0.0,0.0,0.0,0.0,0.0,0.0,0.0,0.0,0.0,0.0,0.0,0.0,0.0,0.0,0.0,0.0,0.0,-1.1255,-1.164,-1.2302,-1.2211,-1.1959,0.0,0.0,0.0,0.0,0.0,0.0,-1.8542,-1.9694,-2.1016,-2.2649,-2.3466,-2.4413,-2.5509,-2.5985,-2.618,-2.6131,-2.7176,-2.7761,-2.7879,-2.8421,-2.8709,-2.8819,-2.906,-2.8819,-2.8154,-2.6637,-2.5529,-2.4759,-2.4153,-2.3566,-2.3162,-2.4373,-2.4447,-2.419,-2.5988,-2.6209,-2.5511,-2.4318,-2.3786,-2.3253,-2.1331,0.0,0.0,0.0,0.0,-2.3069,-2.3749,-2.4814,-2.5695,-2.5695,-2.6153,-2.6282,-2.5071,-2.5273,-2.4795,0.0,-2.0666,-1.9877,-1.8669,0.0,0.0,0.0,0.0,-2.0978,-2.1383,-2.1639,-2.162,-2.1181,-2.0759,-2.0262,-1.9656,-1.9418,-1.9305,-1.9305,-1.9305,-1.9032,-1.8427,-1.8207,-1.716,-1.5148,0.0,0.0,0.0,0.0,0.0,0.0,0.0,0.0,0.0,0.0,0.0,0.0,0.0,0.0,0.0,0.0,0.0,0.0,0.0,0.0,0.0,0.0,0.0,0.0,0.0,0.0,0.0,0.0,0.0,-1.3365,-1.4082,0.0,0.0,0.0,0.0,-1.662,-1.7067,-1.8658,-2.1888,-2.2418,-2.3473,-2.5346,-2.5461,-2.5861,-2.6694,-2.7475,-2.823,-2.89,-2.9727,-3.0326,-3.0694,-3.073,-3.0921,-3.1206,-3.1231,-3.1212,-3.0992,-2.865,-2.72,-2.6484,-2.6429,-2.6392,-2.6374,-2.6447,-2.6447,-2.6447,-2.6557,-2.6576,-2.6539,-2.6447,-2.5897,-2.5216,-2.4823,-2.4679,0.0,0.0,-2.5316,-2.5973,-2.6329,-2.6484,-2.6539,-2.6539,-2.6576,-2.6594,-2.6502,-2.6521,-2.5823,0.0,-2.285,-2.2795,-2.2703,0.0,-2.1859,-2.2593,-2.2152,-2.2281,-2.3823,-2.2721,-2.2079,-2.2813,-2.1438,-2.0484,-2.0429,-1.9748,-1.9305,-1.9305,-1.9305,-1.9271,-1.9234,-1.85,-1.7679,-1.6798,-1.5239,0.0,0.0,0.0,0.0,0.0,0.0,0.0,0.0,0.0,0.0,0.0,0.0,0.0,0.0,0.0,0.0,0.0,0.0,0.0,0.0,0.0,0.0,0.0,0.0,0.0,0.0,0.0,0.0,-1.602,-1.5986,0.0,-1.5618,-1.6251,-1.7387,-1.909,-1.9853,-2.1371,-2.3953,-2.4366,-2.5453,-2.7399,-2.7664,-2.8316,-2.944,-2.9952,-3.0197,-3.0266,-3.0758,-3.1065,-3.1232,-3.1232,-3.1283,-3.1384,-3.1384,-3.1384,-3.1329,-3.0467,-2.9641,-2.8925,-2.8925,-2.8282,-2.7438,-2.7952,-2.7824,-2.7457,-2.797,-2.8132,-2.8062,-2.7548,-2.6833,-2.6151,-2.6048,-2.6008,-2.6005,-2.6027,-2.6593,-2.7218,-2.7343,-2.7769,-2.8132,-2.8132,-2.8132,-2.8007,-2.7475,-2.7365,-2.6961,-2.5585,-2.4483,-2.3621,-2.3107,-2.2758,-2.2483,-2.2263,-2.2868,-2.3364,-2.3419,-2.3382,-2.3254,-2.3033,-2.2465,-2.1658,-2.0594,-2.0244,-1.9858,-1.9326,-1.9305,-1.9305,-1.9305,-1.9014,-1.854,-1.7881,-1.6159,-1.4545,0.0,0.0,0.0,0.0,0.0,0.0,0.0,0.0,0.0,0.0,0.0,0.0,0.0,0.0,0.0,0.0,0.0,0.0,0.0,0.0,0.0,0.0,0.0,0.0,0.0,0.0,-1.6323,-1.7548,-1.7769,-1.772,-1.762,-1.8642,-1.9949,-2.1519,-2.2195,-2.3422,-2.5544,-2.61,-2.7173,-2.9021,-2.9545,-3.0222,-3.1056,-3.1558,-3.1686,-3.1492,-3.196,-3.221,-3.221,-3.221,-3.221,-3.221,-3.221,-3.221,-3.221,-3.221,-3.1898,-3.1366,-3.0815,-2.9953,-2.9072,-2.9622,-2.9475,-2.909,-2.9622,-2.9824,-2.9732,-2.9182,-2.865,-2.8227,-2.8227,-2.8227,-2.8227,-2.8227,-2.8411,-2.8613,-2.8613,-2.8815,-2.8994,-2.8994,-2.8994,-2.8847,-2.8319,-2.8209,-2.797,-2.7163,-2.5915,-2.4759,-2.3951,-2.3804,-2.3547,-2.2721,-2.3511,-2.4006,-2.3474,-2.3878,-2.4006,-2.3474,-2.3162,-2.2446,-2.107,-2.0941,-2.0464,-1.9363,-1.9546,-1.9583,-1.9308,-1.9383,-1.9054,-1.8321,-1.6595,-1.5247,-1.4307,0.0,0.0,0.0,0.0,0.0,0.0,0.0,0.0,0.0,0.0,0.0,0.0,0.0,0.0,0.0,0.0,0.0,0.0,0.0,0.0,0.0,0.0,0.0,-1.6822,-1.7343,-1.7818,-1.7834,-1.9321,-2.0233,-1.9894,-2.1409,-2.2853,-2.3835,-2.3951,-2.4862,-2.6755,-2.7644,-2.8757,-3.0222,-3.1017,-3.1439,-3.1458,-3.2247,-3.2651,-3.2669,-3.344,-3.3807,-3.3807,-3.3807,-3.3807,-3.3807,-3.3807,-3.3807,-3.3807,-3.3807,-3.3807,-3.3642,-3.2082,-3.1458,-3.1439,-3.1439,-3.1403,-3.1384,-3.1384,-3.1384,-3.1384,-3.1384,-3.1384,-3.1384,-3.1384,-3.1384,-3.1384,-3.1384,-3.0834,-3.0228,-3.021,-2.9622,-2.9012,-2.8994,-2.8994,-2.8994,-2.8994,-2.8994,-2.8778,-2.7989,-2.7218,-2.641,-2.5586,-2.5439,-2.5164,-2.4355,-2.4245,0.0,-2.419,-2.419,-2.419,-2.419,-2.3511,-2.2703,-2.1876,-2.1821,-2.1123,-1.9415,-2.006,-2.0152,-1.9326,-1.9504,-1.9166,-1.8151,-1.6568,-1.5723,-1.5705,0.0,0.0,0.0,0.0,0.0,0.0,0.0,0.0,0.0,0.0,0.0,0.0,0.0,0.0,0.0,0.0,0.0,0.0,0.0,0.0,0.0,0.0,-1.9059,-1.8811,-1.9665,-2.0436,-2.0798,-2.1099,-2.1281,-2.1203,-2.2232,-2.3239,-2.4075,-2.5563,-2.7022,-2.8386,-2.949,-3.0677,-3.1891,-3.2155,-3.2559,-3.3128,-3.3366,-3.3476,-3.3476,-3.3697,-3.3807,-3.3807,-3.3807,-3.3807,-3.3807,-3.3807,-3.3807,-3.3807,-3.3807,-3.3807,-3.3752,-3.3311,-3.2779,-3.2284,-3.2284,-3.1898,-3.1384,-3.1384,-3.1384,-3.1384,-3.1384,-3.1384,-3.1384,-3.1384,-3.1384,-3.1384,-3.1384,-3.1237,-3.0944,-3.0356,-3.0044,-2.9732,-2.9122,-2.8994,-2.8994,-2.8994,-2.8994,-2.892,-2.8723,-2.8503,-2.7915,-2.6521,-2.6264,-2.5988,-2.5181,-2.5072,0.0,-2.4281,-2.419,-2.419,-2.419,-2.4006,-2.3309,-2.1931,-2.2336,-2.1712,-1.9436,-2.006,-2.0152,-1.9326,-1.9905,-1.985,-1.8977,-1.7591,-1.6504,0.0,0.0,0.0,0.0,0.0,0.0,0.0,0.0,0.0,0.0,0.0,0.0,0.0,0.0,0.0,0.0,0.0,0.0,0.0,0.0,0.0,0.0,-2.032,-2.1609,-2.1242,-2.1519,-2.1923,-2.2433,-2.2401,-2.2375,-2.2428,-2.3362,-2.4459,-2.5595,-2.7043,-2.8443,-2.9773,-3.0854,-3.1756,-3.257,-3.2944,-3.333,-3.3807,-3.3807,-3.3807,-3.3807,-3.3807,-3.3807,-3.3807,-3.3807,-3.3807,-3.3807,-3.3807,-3.3807,-3.3807,-3.3807,-3.3807,0.0,0.0,0.0,0.0,0.0,-3.2816,-3.2412,-3.2412,-3.2412,-3.2412,-3.2412,-3.2412,-3.2412,-3.2412,-3.2412,-3.2412,-3.2412,-3.2155,-3.1806,-3.1329,-3.0962,-3.0503,-2.9696,-2.9512,-2.942,-2.9067,-2.8994,-2.8994,-2.8994,-2.8994,0.0,-2.7787,-2.7328,-2.6722,-2.5586,-2.5403,-2.5127,-2.43,-2.419,-2.419,-2.419,-2.419,-2.3676,-2.2409,-2.274,0.0,0.0,0.0,-2.0331,-1.9944,-2.031,0.0,0.0,0.0,0.0,0.0,0.0,0.0,0.0,-1.4585,-1.3966,0.0,0.0,0.0,0.0,0.0,0.0,0.0,0.0,0.0,0.0,0.0,0.0,0.0,0.0,0.0,0.0,-2.272,-2.439,-2.3682,-2.2994,-2.267,-2.3051,-2.3203,-2.3268,-2.3332,-2.4414,-2.5788,-2.7484,-2.8283,-2.9374,-3.0946,0.0,0.0,0.0,0.0,-3.3807,-3.3807,-3.3807,-3.3807,-3.3807,-3.3807,-3.3807,-3.3807,-3.3807,-3.3807,-3.3807,-3.3807,-3.3807,-3.3807,-3.3899,-3.3935,-3.3935,-3.3844,-3.3807,-3.3807,-3.3807,-3.3807,-3.3807,-3.3807,0.0,0.0,-3.3807,-3.3807,-3.3807,-3.3807,-3.3807,-3.3807,-3.3807,-3.3293,-3.2724,-3.2632,-3.2063,-3.1329,-3.0522,-3.0265,-3.0008,-2.9287,-2.9049,-2.8994,-2.8994,-2.8994,-2.8994,-2.8994,-2.8411,-2.742,-2.5917,-2.5678,-2.5366,-2.4447,-2.4337,-2.43,-2.4208,0.0,0.0,-2.307,-2.3088,-2.241,-2.0741,-2.0539,-2.0581,-2.0749,-2.0523,-2.0839,-2.181,-2.0154,-1.9656,-2.0356,-1.9656,-1.8922,-1.8188,-1.5949,-1.5252,0.0,0.0,0.0,0.0,0.0,0.0,0.0,0.0,0.0,0.0,0.0,0.0,0.0,0.0,0.0,-2.1884,-2.3247,-2.4325,-2.4645,-2.3934,-2.3294,-2.311,-2.2933,-2.2819,-2.2849,-2.3766,-2.5155,-2.6985,-2.888,-3.0505,-3.1787,-3.2894,-3.3515,-3.3568,-3.3715,-3.3807,-3.3807,-3.3807,-3.3807,-3.3807,0.0,0.0,-3.3807,-3.3807,-3.3807,-3.3807,-3.3807,-3.3807,-3.3844,-3.4504,-3.4752,-3.4697,-3.4064,-3.3807,-3.3807,-3.3807,-3.3807,-3.3807,-3.3807,-3.3807,-3.3807,-3.3807,-3.3807,-3.3807,-3.3807,-3.3807,0.0,-3.3807,-3.3697,-3.3421,-3.2779,-3.2485,-3.2173,-3.1347,-3.0668,-3.0173,-3.0008,-2.9475,-2.8994,-2.8994,-2.8994,-2.8994,-2.8994,-2.8865,-2.8448,-2.7475,-2.7328,-2.6796,-2.5366,-2.5182,-2.4905,-2.4263,-2.419,-2.3878,-2.307,-2.3602,-2.3272,-2.1639,-2.0904,-2.0519,-2.0567,-1.9892,-1.9929,-2.077,-1.9801,-1.9381,-1.9528,-1.9381,-1.9216,-1.9032,-1.7913,-1.7128,0.0,0.0,0.0,0.0,0.0,0.0,0.0,0.0,0.0,0.0,0.0,-1.8374,-1.879,0.0,-2.2827,-2.3227,-2.4472,-2.5269,-2.4915,-2.4236,-2.3662,-2.3336,-2.2673,-2.2346,-2.2649,-2.396,-2.5656,-2.769,-2.9721,-3.1476,-3.2875,-3.3488,-3.3807,-3.3807,-3.3807,-3.3807,-3.3807,-3.3807,-3.3807,-3.3807,-3.3807,-3.3807,-3.3807,-3.3807,-3.3807,-3.3825,-3.4229,-3.4412,-3.4486,-3.5312,-3.5661,-3.5569,-3.4743,-3.4156,-3.3807,-3.3807,-3.3807,-3.3807,-3.3807,-3.3807,-3.3807,-3.3807,-3.3807,-3.3807,-3.3807,-3.3807,-3.3807,-3.3807,-3.3807,-3.3715,-3.3311,-3.3201,-3.2999,-3.2192,-3.1384,-3.0687,-3.0283,-2.9586,-2.8994,-2.8994,-2.8994,-2.8994,-2.8994,-2.8994,-2.8741,-2.7915,-2.7787,-2.7346,-2.6153,-2.566,-2.5256,-2.4832,-2.4428,-2.4043,-2.3639,-2.3602,-2.3088,-2.1894,-2.1767,-2.175,-2.175,-2.1382,-2.1345,-2.1731,-2.0537,-1.9895,-1.9895,-1.9491,-1.9305,-1.9305,-1.8886,-1.8482,0.0,0.0,0.0,0.0,0.0,0.0,0.0,0.0,-1.6384,-1.6963,-1.8669,-2.0169,-2.0613,-2.2589,-2.4135,-2.4073,-2.5438,-2.597,-2.4531,-2.397,-2.3549,-2.301,-2.2104,-2.1758,-2.2452,-2.416,-2.6174,-2.8505,-3.0361,-3.2092,-3.3725,-3.3807,-3.3807,-3.3807,-3.3807,-3.3807,-3.3807,-3.3807,-3.388,-3.4027,-3.4027,-3.4119,-3.4284,-3.4284,-3.4284,-3.4321,-3.4981,-3.532,-3.555,-3.6064,-3.6376,-3.645,-3.5605,-3.4761,-3.4009,-3.3862,-3.3807,-3.3807,-3.3807,-3.3807,-3.3807,-3.3807,-3.3807,-3.3807,-3.3807,-3.3807,-3.3807,-3.3807,-3.3807,-3.3807,-3.3807,-3.3807,-3.3642,-3.2999,-3.2228,-3.1458,-3.0815,-2.9916,-2.9214,-2.9214,-2.9104,-2.8994,-2.8994,-2.8994,-2.8796,-2.8136,-2.8026,-2.7732,-2.6943,-2.6264,-2.5752,-2.5439,-2.4814,-2.4373,-2.4208,-2.3621,-2.2887,-2.2079,-2.2648,-2.2942,-2.2776,-2.2776,-2.2776,-2.2776,-2.1455,-2.0758,-2.0758,-2.0097,-1.9801,-1.9801,-1.9801,-1.9617,-0.9989,-1.0526,-1.1375,-1.3155,-1.3538,-1.4446,0.0,0.0,-1.7974,-1.9888,-2.0599,-2.1092,-2.1932,-2.3127,-2.3998,-2.3927,-2.4927,-2.509,-2.3262,-2.2805,-2.2281,-2.1245,-2.0979,-2.1113,-2.1758,-2.3465,-2.567,-2.8505,-3.0361,-3.2092,-3.3725,-3.3807,-3.3807,-3.3807,-3.3807,-3.3807,-3.3807,-3.3807,-3.4174,-3.4862,-3.4862,-3.5275,-3.6009,-3.6009,-3.6009,-3.6028,-3.6119,-3.656,-3.7165,-3.6541,-3.6707,-3.7276,-3.6468,-3.5642,-3.477,-3.4064,-3.3807,-3.3807,-3.3807,-3.3807,-3.3807,-3.3807,-3.3807,-3.3807,-3.3807,-3.3807,-3.3807,-3.3807,-3.3807,-3.3807,-3.3807,-3.3807,-3.377,-3.3697,-3.3054,-3.2449,-3.2357,-3.1146,-3.0081,-3.0081,-2.9494,-2.8994,-2.8994,-2.8994,-2.8957,-2.8865,-2.8888,-2.8594,-2.7769,-2.7585,-2.6979,-2.555,-2.5329,-2.498,-2.4263,-2.4116,-2.3712,-2.2923,-2.296,-2.2685,-2.1951,-2.1914,-2.1914,-2.1914,-2.1749,-2.1639,-2.1639,-2.1564,-2.1527,-2.1527,-2.1527,-2.0719,-1.2767,-1.3543,-1.421,0.0,-1.5734,-1.6709,-1.851,-1.8925,-1.9276,-2.0392,-2.0813,-2.1086,-2.1321,-2.2706,-2.3771,0.0,-2.4811,-2.5238,-2.3826,-2.329,-2.2525,-2.0975,-2.1382,-2.1909,-2.214,-2.4253,-2.663,-2.9008,-3.0966,-3.2545,-3.3743,-3.3807,-3.3807,-3.3807,-3.3807,-3.3807,-3.3807,-3.3807,-3.4211,-3.499,-3.499,-3.5477,-3.6303,-3.6303,-3.656,-3.6982,-3.6982,-3.7441,-3.8175,-3.7845,-3.7881,-3.812,-3.7294,-3.678,-3.6303,-3.4981,-3.4211,-3.3807,-3.3807,-3.3807,-3.3807,-3.3807,-3.3807,-3.3807,-3.3807,-3.3807,-3.3807,-3.3807,-3.3807,-3.3807,-3.3807,-3.3807,-3.3807,-3.3807,-3.3201,-3.2614,-3.2614,-3.1696,-3.076,-3.0283,-2.9934,-2.9549,-2.9067,-2.8994,-2.8994,-2.8994,-2.8994,-2.8865,-2.8539,-2.8081,-2.7181,-2.5568,-2.5403,-2.5072,-2.4263,-2.419,-2.4061,-2.3731,-2.3694,-2.3547,-2.3199,-2.274,-2.2501,-2.2501,-2.2122,-2.1881,-2.1803,-2.1881,-2.1881,-2.1803,-2.1803,-2.1435,-1.45,-1.5485,0.0,-1.626,-1.7165,-1.819,-1.8734,-1.9327,-1.9889,-2.0346,-2.052,-2.0552,-2.0371,-2.1816,-2.3106,-2.3293,-2.4645,-2.5373,-2.45,-2.3912,-2.2951,-2.1394,-2.2076,-2.273,-2.2886,-2.5006,-2.7226,-2.9179,-3.1107,-3.2652,-3.3707,-3.377,-3.3842,-3.3902,-3.3842,-3.3917,-3.4137,-3.4137,-3.4669,-3.5697,-3.5697,-3.6138,-3.6964,-3.6964,-3.7276,-3.7826,-3.7826,-3.8157,-3.8707,-3.8707,-3.8707,-3.8652,-3.8046,-3.7679,-3.7331,-3.6138,-3.5183,-3.4486,-3.4486,-3.4486,-3.4486,-3.4486,-3.4339,-3.4137,-3.4137,-3.3972,-3.3807,-3.3807,-3.3807,-3.3807,-3.3807,-3.3807,-3.3807,-3.3807,-3.3348,-3.2944,-3.2944,-3.2302,-3.1549,-3.098,-3.0687,-3.0307,-2.9568,-2.9375,-2.9278,-2.9126,-2.9062,-2.8994,-2.8994,-2.8301,-2.7346,-2.6193,-2.566,-2.5164,-2.4575,-2.4318,-2.419,-2.419,-2.419,-2.419,-2.419,-2.3639,-2.3364,-2.34,-2.294,-2.2672,-2.2632,-2.2672,-2.2641,-2.2533,-2.2482,-2.2446,-1.4308,0.0,-1.6698,-1.6679,-1.7193,-1.8174,-1.9859,-1.9806,-1.9568,-2.0102,-1.9914,-1.9611,-1.9471,-2.0507,-2.1717,-2.2758,-2.4332,-2.5246,-2.4847,-2.4148,-2.3309,-2.2282,-2.2692,-2.3289,0.0,-2.523,-2.6902,-2.8776,-3.0484,-3.2056,-3.3523,-3.3733,-3.3928,-3.4195,-3.3954,-3.4174,-3.4954,-3.4954,-3.5789,-3.7404,-3.7404,-3.7845,-3.8634,-3.8634,-3.8652,-3.867,-3.867,-3.8689,-3.8707,-3.8707,-3.8707,-3.8707,-3.867,-3.8193,-3.7477,-3.7452,-3.689,-3.6211,-3.6211,-3.6211,-3.6211,-3.6211,-3.5661,-3.4954,-3.4954,-3.4431,-3.3807,-3.3807,-3.3807,-3.3807,-3.3807,-3.3807,-3.3807,-3.3807,-3.377,-3.3752,-3.3752,-3.3128,-3.2577,-3.254,-3.1898,-3.1188,-3.0652,-3.0341,-2.9991,-2.9463,-2.9178,-2.8994,-2.8994,-2.8301,-2.7769,-2.7714,-2.634,-2.5403,-2.5384,-2.4649,-2.419,-2.419,-2.419,-2.419,-2.419,-2.4171,-2.4248,-2.4458,-2.442,-2.4516,-2.4714,-2.4516,-2.442,-2.442,-2.4211,-2.4135,-1.4798,0.0,-1.6483,-1.7294,-1.7914,-1.8619,-1.9611,-1.9447,-1.9111,-1.9251,-1.9192,-1.9111,-1.9023,-2.0267,-2.1749,-2.3145,-2.4511,-2.5625,-2.6251,-2.5866,-2.5137,-2.4076,-2.4563,0.0,0.0,0.0,0.0,-2.9214,-3.0633,-3.2038,-3.3523,-3.3733,-3.391,-3.4176,-3.3935,-3.4192,-3.499,-3.499,-3.5844,-3.7526,-3.8028,-3.8432,-3.8707,-3.8707,-3.8707,-3.8707,-3.8707,-3.8707,-3.8707,-3.8707,-3.8707,-3.8707,-3.8707,-3.8524,-3.8303,-3.8303,-3.812,-3.7734,-3.667,-3.6303,-3.6303,-3.6303,-3.6101,-3.5862,-3.5862,-3.5275,-3.4614,-3.4614,-3.4211,-3.3807,-3.3807,-3.3807,-3.3807,-3.3807,-3.3807,-3.3807,-3.3807,-3.3587,-3.3272,-3.2926,-3.2641,-3.2125,-3.1053,-3.063,-3.0176,-2.9267,-2.9044,-2.8994,-2.8994,-2.8778,-2.8393,-2.786,-2.731,-2.6557,-2.5495,-2.5164,-2.4759,-2.4226,-2.419,-2.419,-2.419,-2.419,-2.4284,-2.4495,-2.4623,-2.4731,-2.4804,-2.4731,-2.4623,-2.4495,-2.4284,-2.419,-1.5141,-1.6022,-1.6934,-1.772,-1.8345,-1.8874,-1.9258,-1.884,-1.8366,-1.8513,-1.8229,-1.8147,-1.872,-1.9859,-2.1405,-2.3479,-2.4863,-2.6086,-2.7379,-2.7116,-2.648,-2.5615,-2.5831,-2.59,0.0,0.0,0.0,-2.9283,-3.0618,-3.1959,-3.3277,-3.3661,-3.391,-3.4176,-3.3935,-3.4339,-3.5459,-3.5477,-3.6285,-3.7936,-3.845,-3.8707,-3.8707,-3.8707,-3.8707,-3.8707,-3.8707,-3.8707,-3.8707,-3.8707,-3.8707,-3.8707,-3.8707,-3.8707,-3.8707,-3.8707,-3.8707,-3.856,-3.7514,-3.7165,-3.7165,-3.7165,-3.6964,-3.6725,-3.6725,-3.6138,-3.5404,-3.5082,-3.4633,-3.4174,-3.3862,-3.3807,-3.3807,-3.3807,-3.3807,-3.3815,-3.391,-3.3935,-3.3889,-3.3661,-3.3612,-3.3269,-3.22,-3.1299,-3.037,-2.9292,-2.9044,-2.8994,-2.8994,-2.8994,-2.8792,-2.8282,-2.797,-2.7365,-2.6358,-2.5733,-2.5182,-2.4649,-2.4355,-2.419,-2.419,-2.4266,-2.441,-2.4591,-2.4785,-2.491,-2.4994,-2.4861,-2.4731,-2.4591,-2.4339,-2.419,-1.5372,-1.6586,-1.7885,-1.7949,-1.8446,-1.8916,-1.8849,-1.8092,-1.7501,-1.7899,-1.7125,-1.6886,0.0,0.0,-2.0678,-2.3658,-2.5234,-2.6622,-2.8157,-2.7784,-2.7252,0.0,0.0,0.0,0.0,0.0,0.0,-2.896,0.0,-3.1751,-3.2841,-3.3441,-3.3884,-3.4176,-3.3991,-3.4651,-3.6266,-3.6376,-3.7184,-3.8707,-3.8707,-3.8707,-3.8707,-3.8707,-3.8707,-3.8707,-3.8707,-3.8707,-3.8707,-3.8707,-3.8707,-3.8707,-3.8707,-3.8707,-3.8707,-3.8707,-3.8707,-3.8707,-3.8707,-3.8707,-3.8707,-3.8707,-3.8175,-3.7551,-3.7551,-3.7,-3.6193,-3.5367,-3.5082,-3.4862,-3.4082,-3.3862,-3.3844,-3.3807,-3.3815,-3.3876,-3.4147,-3.42,-3.4334,-3.4653,-3.4715,-3.4491,-3.3908,-3.2233,-3.0659,-2.962,-2.9197,-2.8994,-2.8994,-2.8994,-2.8994,-2.8994,-2.8319,-2.7842,-2.7787,-2.6355,-2.5458,-2.5423,-2.465,-2.4209,-2.4228,-2.4409,-2.4607,-2.4818,-2.4943,-2.5099,-2.5303,-2.4949,-2.4804,-2.479,-2.4393,-2.419,-1.5978,-1.6811,-1.7641,-1.8458,-1.909,-1.9273,-1.8375,-1.8321,-1.812,-1.6881,-1.7096,-1.7661,0.0,0.0,0.0,-2.3135,-2.4761,0.0,-2.7734,-2.8046,0.0,-2.8846,0.0,-2.8469,-2.8702,-2.9315,0.0,0.0,-2.9955,-3.09,-3.2793,-3.3194,-3.3607,-3.4176,-3.4518,-3.522,-3.6285,-3.7496,-3.8303,-3.8707,-3.8707,-3.8707,-3.8707,-3.8707,-3.8707,-3.8707,-3.8707,-3.8707,-3.8707,-3.8707,-3.8707,-3.8707,-3.8707,-3.8707,-3.8707,-3.8707,-3.8707,-3.8707,-3.8707,-3.8707,-3.8707,-3.8707,-3.856,-3.8395,-3.8395,-3.7826,-3.7129,-3.6927,-3.6431,-3.5771,-3.4926,-3.4679,-3.4559,-3.3935,-3.3961,-3.4123,-3.4195,-3.4401,-3.4655,-3.4944,-3.4639,-3.4221,-3.3856,-3.225,-3.0847,-3.0368,-2.957,-2.8994,-2.8994,-2.8994,-2.8994,-2.8994,-2.8833,-2.8448,-2.7842,-2.6869,-2.6107,-2.5653,-2.4873,-2.4495,-2.4639,-2.47,-2.4799,-2.4937,-2.4986,-2.5099,-2.5303,-2.4949,-2.4804,-2.479,-2.4393,-2.419,-1.6323,-1.7249,-1.8148,-1.8769,-1.8928,-1.8731,-1.8065,-1.7619,-1.7086,-1.6222,-1.6378,0.0,-1.743,0.0,0.0,0.0,0.0,0.0,-2.7419,-2.8215,-2.8771,0.0,-2.9076,0.0,-2.9051,-2.961,-2.9999,0.0,-3.04,-3.1215,-3.2644,-3.3021,-3.3458,-3.3993,-3.4336,-3.5073,-3.6285,-3.79,-3.8707,-3.8707,-3.8707,-3.8707,-3.8707,-3.8707,-3.8707,-3.8707,0.0,-3.8707,-3.8707,-3.8707,-3.8707,-3.8707,-3.8707,-3.8707,-3.8707,-3.8707,-3.8707,-3.8707,-3.8707,-3.8707,-3.8707,-3.8707,-3.8707,-3.8707,-3.8707,-3.8377,-3.7936,-3.7588,-3.7165,-3.6541,-3.5302,-3.499,-3.4825,-3.4138,-3.4074,-3.4269,-3.4553,-3.4735,-3.4963,-3.5223,-3.5014,-3.4595,-3.4069,-3.2906,-3.1751,-3.0903,-3.0064,-2.9402,-2.9049,-2.8994,-2.8994,-2.8994,-2.8994,-2.8833,-2.8374,-2.7585,-2.7011,-2.6767,-2.5985,-2.5489,-2.5318,-2.5418,-2.531,-2.501,-2.5088,-2.5192,-2.5303,-2.5024,-2.4869,-2.479,-2.4478,-2.4284,-1.6678,-1.7782,-1.893,-1.9066,-1.8644,-1.8193,-1.8054,-1.6813,-1.574,-1.5886,0.0,-1.5403,-1.6475,-1.8032,-1.9689,-2.1274,0.0,-2.6056,-2.7013,-2.8122,-2.8772,-2.8572,-2.8969,-2.9105,-2.8724,-2.9109,-2.9607,-3.0209,-3.1185,-3.1968,-3.2484,-3.289,-3.3386,-3.3927,-3.4064,-3.4871,-3.6431,-3.7955,-3.8707,-3.8707,-3.8707,-3.8707,-3.8707,-3.8707,-3.8707,-3.8707,-3.8707,-3.8707,-3.8707,-3.8707,-3.8719,-3.8732,-3.8719,-3.8719,-3.8732,-3.8719,-3.8707,-3.8707,-3.8707,-3.8719,-3.875,-3.8689,-3.8707,-3.8707,-3.8707,-3.8707,-3.856,-3.7845,-3.7643,-3.7323,-3.5772,-3.5312,-3.5081,-3.4548,-3.4367,-3.4449,-3.4999,-3.5122,-3.5223,-3.5446,-3.5493,-3.5257,-3.4507,-3.383,-3.294,-3.1542,-3.0692,-2.9953,-2.9255,-2.9067,-2.8994,-2.8994,-2.8994,-2.8994,-2.8994,-2.8264,-2.7901,-2.8128,-2.7382,-2.672,-2.6275,-2.6409,-2.6104,-2.5225,-2.5386,-2.5418,-2.5303,-2.5077,-2.4917,-2.479,-2.4578,-2.4357,-1.7704,-1.8335,-1.9103,-1.9849,-1.9967,-1.97,-1.892,-1.8284,0.0,0.0,-1.5116,-1.5079,-1.583,-1.6725,-1.8079,-2.0355,0.0,0.0,0.0,0.0,-2.8351,0.0,0.0,0.0,0.0,0.0,0.0,0.0,0.0,-3.1657,-3.2451,-3.2583,-3.327,-3.4752,-3.5495,-3.6321,-3.7276,-3.823,-3.8707,-3.8707,-3.8707,-3.8707,-3.8707,-3.8707,-3.8707,-3.8707,-3.8707,0.0,-3.8707,-3.8707,-3.8844,-3.9027,-3.8773,-3.8844,-3.898,-3.8773,-3.8707,-3.8707,-3.8707,-3.8844,-3.8999,-3.8762,-3.8707,-3.8707,-3.8707,-3.8707,-3.867,-3.8524,-3.8487,-3.8339,-3.7598,-3.6891,-3.6261,-3.5735,-3.5266,-3.4962,-3.5088,-3.5273,-3.5446,-3.5493,-3.5493,-3.5449,-3.5315,-3.423,-3.3318,-3.3034,-3.1402,-3.0155,-3.0008,-2.942,-2.8994,-2.8994,-2.8994,-2.8994,-2.8994,-2.8264,-2.7945,-2.8328,-2.7591,-2.729,-2.7562,-2.7596,-2.7204,-2.6339,-2.636,-2.6024,-2.5303,-2.4987,-2.4814,-2.479,-2.4409,-2.4228,-1.7598,-1.8484,-1.9375,-1.966,-1.9458,-1.8936,-1.7817,0.0,0.0,0.0,-1.4147,-1.4253,-1.4152,0.0,0.0,0.0,0.0,0.0,0.0,0.0,0.0,0.0,0.0,0.0,0.0,0.0,0.0,0.0,0.0,-3.1806,-3.2451,-3.2934,-3.3524,-3.4348,-3.5624,-3.6564,-3.7091,-3.8155,-3.8762,-3.8894,-3.8762,-3.8707,-3.8707,-3.8707,-3.8707,-3.8707,-3.8707,-3.8707,-3.8707,-3.8707,-3.8792,-3.8894,-3.8894,-3.8971,-3.9072,-3.8961,-3.8923,-3.8884,-3.8732,-3.8773,-3.8884,-3.8732,-3.8803,-3.8884,-3.8732,-3.8707,-3.8707,-3.8707,-3.8803,-3.8709,-3.7896,-3.7646,-3.7399,-3.6691,-3.6215,-3.5822,-3.54,-3.5417,-3.5493,-3.5493,-3.5493,-3.5446,-3.5304,-3.462,-3.3882,-3.3287,-3.2196,-3.1146,-3.032,-2.9861,-2.9475,-2.903,-2.8994,-2.8994,-2.8994,-2.865,-2.8614,-2.9039,-2.8697,-2.8506,-2.8514,-2.8525,-2.7909,-2.664,-2.6601,-2.6178,-2.5303,-2.5018,-2.4883,-2.479,-2.4591,-2.4444,-1.7348,-1.855,-1.9758,-1.9443,-1.903,-1.8293,-1.6858,-1.5951,0.0,0.0,-1.3139,-1.3258,-1.2891,0.0,0.0,0.0,0.0,0.0,0.0,0.0,0.0,0.0,0.0,0.0,0.0,0.0,0.0,0.0,0.0,0.0,-3.2616,-3.339,-3.3807,-3.3807,-3.5487,-3.6454,-3.6593,-3.8061,-3.8855,-3.9008,-3.8803,-3.8707,-3.8707,-3.8707,-3.8707,-3.8707,-3.8707,-3.8707,-3.8707,-3.8762,-3.8833,-3.8902,-3.9117,-3.9231,-3.9205,-3.9125,-3.9044,-3.8971,-3.8792,-3.8792,-3.8873,-3.8803,-3.8952,-3.9044,-3.8844,-3.8833,-3.8873,-3.8873,-3.9027,-3.9029,-3.8238,-3.8265,-3.8237,-3.7258,-3.6852,-3.6488,-3.568,-3.5493,-3.5493,-3.5493,-3.5493,-3.5432,-3.5223,-3.4963,-3.4468,-3.3518,-3.2993,-3.2157,-3.065,-3.032,-2.9898,-2.9085,-2.8994,-2.8994,-2.8994,-2.9044,-2.927,-2.9678,-2.9748,-2.9639,-2.9379,-2.9371,-2.8659,-2.7178,-2.6967,-2.6447,-2.5572,-2.5195,-2.4937,-2.4842,-2.4799,-2.4716,-1.7422,-1.8723,-2.0193,-1.9894,-2.0067,-1.9766,-1.7757,0.0,0.0,-1.3615,-1.2588,-1.2316,-1.3393,0.0,0.0,0.0,0.0,-2.0423,0.0,0.0,0.0,0.0,0.0,0.0,0.0,0.0,0.0,0.0,0.0,0.0,-3.3136,-3.355,-3.3807,-3.3807,-3.5662,-3.6552,-3.6342,-3.8146,-3.8961,-3.875,-3.8689,-3.8707,-3.8707,-3.8707,-3.8707,-3.8707,-3.8707,-3.8707,0.0,-3.8961,-3.9231,-3.9529,-3.9552,-3.9552,-3.9529,-3.9212,-3.8933,-3.875,-3.8707,-3.9064,-3.9457,-3.9152,-3.9072,-3.9099,-3.9072,-3.9282,-3.9505,-3.9505,-3.9529,-3.9603,-3.9806,-3.9317,-3.8422,-3.7057,-3.6728,-3.6488,-3.568,-3.5493,-3.5493,-3.5493,-3.5493,-3.5493,-3.5479,-3.5239,-3.4944,-3.46,-3.3649,-3.2553,-3.1434,-3.065,-2.9898,-2.9085,-2.8994,-2.8994,-2.8994,-2.9225,-2.9455,-2.9678,-2.9877,-3.007,-3.0263,-3.0294,-2.9833,-2.889,-2.814,-2.7351,-2.6486,-2.5482,-2.4979,-2.4986,-2.4855,-2.479,-1.657,-1.7777,-1.8951,-1.8688,-1.8929,-1.8601,-1.6357,0.0,-1.471,-1.279,-1.2078,-1.2058,-1.288,-1.34,-1.4463,0.0,0.0,0.0,0.0,0.0,0.0,0.0,0.0,0.0,0.0,0.0,0.0,0.0,0.0,0.0,-3.355,-3.3707,-3.3807,-3.3807,-3.5551,-3.649,-3.6552,-3.8071,-3.8884,-3.8933,-3.8792,-3.8707,-3.8707,-3.8707,-3.8707,-3.8707,-3.8707,-3.8773,0.0,-3.9063,-3.9289,-3.9622,-3.9819,-3.9775,-3.9599,-3.9438,-3.9223,-3.8923,-3.8762,-3.8952,-3.9264,-3.9133,-3.9364,-3.9668,-3.9462,-3.9486,-3.9599,-3.9599,-3.9754,-3.988,-3.9819,-3.9295,-3.8574,-3.7679,-3.7084,-3.6488,-3.568,-3.5493,-3.5493,-3.5493,-3.5493,-3.5446,-3.5289,-3.5174,-3.4999,-3.4734,-3.4142,-3.339,-3.2474,-3.1931,-3.1219,-3.0095,-2.9542,-2.9246,-2.9246,-2.9455,-2.9661,-2.9877,-2.9954,-3.0122,-3.0398,-3.0398,-2.9987,-2.9121,-2.8794,-2.8198,-2.7371,-2.6833,-2.6556,-2.6537,-2.5977,-2.5709,-1.5876,-1.7131,-1.8324,-1.7892,-1.806,-1.7698,0.0,-1.4716,-1.4095,-1.2191,-1.1805,-1.1961,-1.2514,-1.3011,-1.4019,-1.6058,-1.6789,-1.7861,-2.005,0.0,0.0,0.0,0.0,0.0,0.0,0.0,0.0,0.0,0.0,0.0,-3.3807,-3.3807,-3.3807,-3.3807,-3.5257,-3.6112,-3.6215,-3.772,-3.8533,-3.8619,-3.8663,-3.8707,-3.8707,-3.8773,-3.8792,-3.8707,-3.8773,-3.8923,0.0,-3.9231,-3.9457,-3.9775,-4.0002,-3.9901,-3.9599,-3.9505,-3.9289,-3.9072,-3.8865,-3.9054,-3.9389,-3.9389,-3.9757,-4.0157,-3.9944,-3.9863,-3.9863,-3.9863,-4.0043,-4.0157,-3.9944,-3.9414,-3.8795,-3.8151,-3.7334,-3.6488,-3.568,-3.5493,-3.5493,-3.5493,-3.5493,-3.5446,-3.5239,-3.5223,-3.5122,-3.487,-3.4634,-3.4105,-3.3123,-3.2892,-3.2256,-3.077,-3.0224,-2.9833,-2.9531,-2.9678,-2.9845,-2.9999,-3.0075,-3.0209,-3.0398,-3.0398,-3.0121,-2.9506,-2.9217,-2.8813,-2.8255,-2.7877,-2.7682,-2.7663,-2.707,-2.6783,-1.5599,-1.7164,-1.8719,-1.7976,-1.8097,-1.7773,-1.535,-1.4535,-1.3837,-1.2147,-1.1805,-1.1961,-1.2514,-1.261,-1.3268,-1.528,-1.6446,0.0,-1.973,0.0,0.0,0.0,0.0,0.0,0.0,0.0,0.0,0.0,0.0,0.0,-3.3807,-3.3807,-3.3807,-3.3807,-3.489,-3.5361,-3.5037,-3.6949,-3.7784,-3.7544,-3.8322,-3.8707,-3.8707,-3.8971,-3.8961,-3.8719,-3.8971,-3.9099,0.0,-3.9462,-3.9797,-4.0101,-4.0101,-3.9901,-3.9552,-3.9231,-3.908,-3.9099,-3.9099,-3.9529,-4.0081,-4.0081,-4.0267,-4.0489,-4.0489,-4.0489,-4.0489,-4.0489,-4.0489,-4.0489,-4.0489,-3.9892,-3.9084,-3.8219,-3.7334,-3.6488,-3.568,-3.5493,-3.5493,-3.5493,-3.5493,-3.5493,-3.5493,-3.5493,-3.5398,-3.5138,-3.5088,-3.4585,-3.319,-3.3233,-3.2673,-3.0793,-3.1011,-3.0852,-2.9789,-2.9877,-2.9999,-2.9999,-3.0254,-3.0398,-3.0398,-3.0398,-3.0398,-3.0379,-2.9544,-2.9102,-2.9083,-2.8294,-2.789,-2.789,-2.789,-2.7871,-1.4412,-1.5496,-1.655,-1.5847,-1.6085,-1.6054,-1.4411,-1.3962,-1.3542,-1.2313,-1.2066,-1.2231,-1.2759,-1.2887,-1.3642,-1.5961,-1.6629,0.0,0.0,0.0,0.0,0.0,0.0,0.0,0.0,0.0,0.0,0.0,0.0,0.0,-3.4074,-3.4284,-3.4232,-3.3815,-3.4668,-3.511,-3.499,-3.6196,-3.7053,-3.7507,-3.7202,-3.7643,-3.867,-3.7849,-3.7716,-3.8164,-3.844,-3.8686,-3.8961,-3.9654,-4.0002,-4.0101,-4.0101,-3.9754,-3.9264,-3.9389,-3.9289,-3.9133,-3.9364,-3.9731,-4.0101,-4.0101,-4.0267,-4.0489,-4.0489,-4.0489,-4.0489,-4.0489,-4.0489,-4.0489,-4.0489,-3.945,-3.8334,-3.8065,-3.6911,-3.5815,-3.5565,-3.5493,-3.5493,-3.5493,-3.5493,-3.5493,-3.5493,-3.5493,-3.546,-3.5383,-3.5223,-3.4939,-3.4491,-3.4338,-3.3677,-3.2068,-3.2034,-3.1527,-3.0022,-3.0122,-3.0267,-3.0267,-3.0355,-3.0398,-3.0398,-3.0398,-3.0398,-3.0398,-3.014,-2.9987,-2.9987,-2.9737,-2.9294,-2.8717,-2.8717,-2.8429,-1.3436,-1.4427,-1.5224,-1.4815,-1.5053,-1.5117,-1.3969,-1.3584,-1.3268,-1.237,-1.2205,-1.2352,-1.2906,-1.3013,-1.3634,-1.5556,-1.6186,0.0,0.0,0.0,0.0,0.0,0.0,0.0,0.0,0.0,0.0,0.0,0.0,0.0,-3.42,-3.4529,-3.4526,-3.416,-3.4511,-3.4631,-3.4559,-3.5404,-3.6064,-3.6541,-3.6376,-3.6875,-3.7921,-3.718,-3.7106,-3.7611,-3.7882,-3.8115,0.0,-3.9242,-3.9624,-3.9624,-3.9829,-3.9645,-3.9289,-3.9364,-3.9438,-3.9505,-3.9731,-3.9983,-4.025,-4.025,-4.0356,-4.0489,-4.0489,-4.0489,-4.0489,-4.0489,-4.0489,-4.0489,-4.0489,-3.9258,-3.8007,-3.8007,-3.6719,-3.5493,-3.5493,-3.5493,-3.5493,-3.5493,-3.5493,-3.5493,-3.5493,-3.5493,-3.5493,-3.5493,-3.5369,-3.5207,-3.5105,-3.5034,-3.4483,-3.3124,-3.2802,-3.212,-3.0762,-3.0503,-3.0398,-3.0398,-3.0398,-3.0398,-3.0398,-3.0398,-3.0398,-3.0398,-3.0398,-3.0398,-3.0398,-3.0398,-3.0121,-2.9583,-2.9583,-2.9313,0.0,-1.37,-1.4479,-1.4479,-1.4697,-1.4681,-1.3815,-1.3394,0.0,-1.2329,-1.2205,-1.2368,-1.2971,-1.3046,-1.3383,-1.4542,0.0,0.0,0.0,0.0,0.0,0.0,0.0,0.0,0.0,0.0,0.0,0.0,0.0,0.0,-3.4242,-3.4551,-3.4714,-3.4694,-3.4379,-3.4093,-3.3842,-3.4541,-3.4935,-3.5009,-3.5771,-3.6307,-3.6682,-3.684,-3.6955,0.0,-3.7319,-3.7431,-3.7507,-3.8365,-3.8766,-3.8861,-3.9315,-3.9519,-3.9529,-3.9238,-3.9529,-4.0081,-4.012,-4.0285,-4.0489,-4.0489,-4.0489,-4.0489,-4.0489,-4.0489,-4.0489,-4.0489,-4.0489,-4.0489,-4.0431,-3.92,-3.7988,-3.7911,-3.668,-3.5493,-3.5493,-3.5493,-3.5493,-3.5493,-3.5493,-3.5493,-3.5493,-3.5493,-3.5493,-3.5493,-3.5493,-3.5417,-3.5155,-3.5354,-3.5072,-3.3952,-3.3264,-3.2564,-3.1775,-3.091,-3.0398,-3.0398,-3.0398,-3.0398,-3.0398,-3.0398,-3.0398,-3.0398,-3.0398,-3.0398,-3.0398,-3.0398,-3.0398,-3.0398,-3.0398,-3.0398,-1.0436,0.0,-1.2266,-1.2325,-1.2648,-1.2939,0.0,-1.2808,-1.2641,-1.2262,0.0,0.0,-1.3628,-1.3376,0.0,0.0,0.0,0.0,0.0,0.0,0.0,0.0,0.0,0.0,0.0,0.0,0.0,0.0,0.0,-3.4572,-3.4572,-3.4851,-3.4908,-3.4713,-3.4379,-3.4171,-3.4099,-3.4086,-3.4394,-3.499,-3.4578,-3.5092,-3.6371,-3.5623,-3.5618,-3.6203,-3.668,-3.6895,-3.6972,-3.7836,-3.8429,-3.8804,-3.865,-3.885,-3.9238,-3.9414,-3.9576,-3.9778,-4.025,-4.0457,-4.0489,-4.0489,-4.0489,-4.0489,-4.0489,-4.0489,-4.0489,-4.0489,-4.0489,-4.0354,-3.9738,-3.8796,-3.7834,-3.7161,-3.6238,-3.5493,-3.5493,-3.5493,-3.5493,-3.5493,-3.5493,-3.5493,-3.5493,-3.5493,-3.5493,-3.5493,-3.5493,-3.5479,-3.5398,-3.546,-3.5147,-3.4203,-3.3384,-3.2564,-3.1775,-3.091,-3.0398,-3.0398,-3.0398,-3.0398,-3.0398,-3.0398,-3.0398,-3.0398,-3.0398,-3.0398,-3.0398,-3.0398,-3.0398,-3.0398,-3.0398,-3.0398,-0.8889,-1.0228,-1.1631,-1.2008,-1.219,-1.2455,-1.2983,-1.2575,0.0,0.0,0.0,0.0,0.0,0.0,0.0,0.0,0.0,0.0,0.0,0.0,0.0,0.0,0.0,0.0,0.0,0.0,0.0,0.0,0.0,-3.4467,-3.4467,-3.4735,-3.4851,-3.4694,-3.4529,-3.4288,-3.4018,-3.3876,-3.4027,-3.4449,-3.4009,-3.4408,-3.5547,-3.4961,-3.5059,-3.5737,-3.6021,-3.6161,-3.6219,-3.7065,-3.7485,-3.768,-3.7868,-3.8099,-3.8441,-3.9015,-3.9333,-3.9548,-4.0255,-4.0489,-4.0489,-4.0489,-4.0489,-4.0489,-4.0489,-4.0489,-4.0489,-4.0489,-4.0489,-4.0296,-3.9508,-3.8642,-3.7777,-3.6911,-3.6103,-3.5493,-3.5493,-3.5493,-3.5493,-3.5493,-3.5493,-3.5493,-3.5493,-3.5493,-3.5493,-3.5493,-3.5493,-3.5493,-3.5493,-3.5493,-3.5334,-3.4853,-3.4026,-3.316,-3.2314,-3.1487,-3.0833,-3.0417,-3.0398,-3.0398,-3.0398,-3.0398,-3.0398,-3.0398,-3.0398,-3.0398,-3.0398,-3.0398,-3.0398,-3.0398,-3.0398,-3.0398,-0.8213,-0.9923,-1.1736,-1.2256,-1.2339,-1.2522,-1.3339,0.0,0.0,0.0,0.0,0.0,0.0,0.0,0.0,0.0,0.0,0.0,0.0,0.0,0.0,0.0,0.0,0.0,0.0,0.0,0.0,0.0,0.0,-3.4032,-3.4032,-3.4411,-3.4614,-3.4614,-3.4614,-3.4375,-3.3868,-3.385,-3.385,-3.385,-3.385,-3.4136,-3.4632,-3.4714,-3.4999,-3.5446,0.0,0.0,-3.5551,-3.6238,-3.6447,-3.6419,-3.7069,-3.7394,-3.7603,-3.848,-3.8988,-3.9346,-4.02,-4.0489,-4.0489,-4.0489,-4.0489,-4.0489,-4.0489,-4.0489,-4.0489,-4.0489,-4.0489,-4.0277,-3.9335,-3.8546,-3.7757,-3.6757,-3.6007,-3.5493,-3.5493,-3.5493,-3.5493,-3.5493,-3.5493,-3.5493,-3.5493,-3.5493,-3.5493,-3.5493,-3.5493,-3.5493,-3.5493,-3.5493,-3.5493,-3.5493,-3.4718,-3.3891,-3.316,-3.2237,-3.1391,-3.066,-3.0456,-3.0398,-3.0398,-3.0398,-3.0398,-3.0398,-3.0398,-3.0398,-3.0398,-3.0398,-3.0398,-3.0398,-3.0398,-3.0398,-0.9624,-1.0831,-1.1562,-1.1043,-1.1611,-1.2388,-1.2689,0.0,0.0,0.0,0.0,0.0,0.0,0.0,0.0,0.0,0.0,0.0,0.0,0.0,0.0,0.0,0.0,0.0,0.0,0.0,0.0,0.0,-3.2585,-3.3175,-3.3175,-3.3892,-3.4288,-3.4288,-3.4288,-3.4242,-3.4147,-3.4147,-3.4147,-3.4147,-3.4147,-3.4195,-3.4292,-3.4794,-3.5088,-3.5155,0.0,-3.5493,-3.5512,-3.5641,-3.6056,-3.6627,-3.6511,-3.6898,-3.7603,-3.848,-3.8823,-3.903,-4.0117,-4.0489,-4.0489,-4.0489,-4.0489,-4.0489,-4.0489,-4.0489,-4.0489,-4.0489,-4.0489,-4.0142,-3.8604,-3.8104,-3.7603,-3.6065,-3.5603,-3.5493,-3.5493,-3.5493,-3.5493,-3.5493,-3.5493,-3.5493,-3.5493,-3.5493,-3.5493,-3.5493,-3.5493,-3.5493,-3.5493,-3.5493,-3.5493,-3.5493,-3.4718,-3.4141,-3.4007,-3.2583,-3.1641,-3.1506,-3.0814,-3.0398,-3.0398,-3.0398,-3.0398,-3.0398,-3.0398,-3.0398,-3.0398,-3.0398,-3.0398,-3.0398,-3.0398,-3.0398,-0.8923,-1.0096,-1.1157,-1.1302,-1.244,-1.3527,-1.3707,-1.3439,0.0,0.0,0.0,0.0,0.0,0.0,0.0,0.0,0.0,0.0,0.0,0.0,0.0,0.0,0.0,0.0,0.0,0.0,-3.0356,-3.0723,-3.1605,-3.2144,-3.2144,-3.2896,-3.3395,-3.3548,-3.4154,-3.4532,-3.4676,-3.4676,-3.4513,-3.42,-3.42,-3.4292,-3.4467,-3.4907,-3.519,-3.532,0.0,-3.5493,-3.5493,-3.5493,-3.5718,-3.6051,-3.591,-3.609,-3.6588,-3.789,-3.8657,-3.921,-4.0169,-4.0489,-4.0489,-4.0489,-4.0489,-4.0489,-4.0489,-4.0489,-4.0489,-4.0489,-4.0489,-4.0219,-3.9008,-3.8354,-3.77,-3.6449,-3.5834,-3.5493,-3.5493,-3.5493,-3.5493,-3.5493,-3.5493,-3.5493,-3.5493,-3.5493,-3.5493,-3.5493,-3.5493,-3.5493,-3.5493,-3.5493,-3.5493,-3.5493,-3.5141,-3.4718,-3.4237,-3.3487,-3.2468,-3.1083,-3.0609,-3.0398,-3.0398,-3.0398,-3.0398,-3.0398,-3.0398,-3.0398,-3.0398,-3.0398,-3.0398,-3.0398,-3.0398,-3.0398,-0.8548,-0.979,-1.1155,-1.2091,0.0,-1.4288,-1.4808,-1.4399,0.0,0.0,0.0,0.0,0.0,0.0,0.0,0.0,0.0,0.0,0.0,0.0,0.0,0.0,0.0,0.0,0.0,-2.9567,-2.9934,-2.9934,-3.065,-3.1109,-3.1109,-3.188,-3.2435,-3.2705,-3.3797,-3.4529,-3.48,-3.5009,-3.487,-3.4405,-3.4405,-3.4553,-3.4793,-3.507,-3.5304,-3.5493,-3.5493,-3.5493,-3.5493,-3.5493,-3.5493,-3.5493,-3.5493,-3.5622,-3.5968,-3.745,-3.8546,-3.9411,-4.0219,-4.0489,-4.0489,-4.0489,-4.0489,-4.0489,-4.0489,-4.0489,-4.0489,-4.0489,-4.0489,-4.0296,-3.9508,-3.8796,-3.8027,-3.6969,-3.6238,-3.5738,-3.5532,-3.5493,-3.5493,-3.5493,-3.5493,-3.5493,-3.5493,-3.5493,-3.5493,-3.5493,-3.5493,-3.5493,-3.5493,-3.5493,-3.5493,-3.5493,-3.5493,-3.5161,-3.4257,-3.4199,-3.3199,-3.0852,-3.0513,-3.0398,-3.0398,-3.0398,-3.0398,-3.0398,-3.0398,-3.0398,-3.0398,-3.0398,-3.0398,-3.0398,-3.0398,-3.0398,-0.9999,-1.1139,-1.2123,-1.3059,-1.3191,-1.3546,-1.5238,-1.5165,0.0,-1.6009,0.0,0.0,0.0,0.0,0.0,0.0,0.0,0.0,0.0,0.0,0.0,0.0,0.0,-2.8994,-2.8994,-2.9049,-2.9085,-2.9085,-2.9843,-3.0283,-3.0283,-3.1054,-3.1605,-3.1886,-3.2934,-3.3619,-3.3884,-3.4704,-3.5088,-3.5034,-3.5034,-3.5034,-3.5088,-3.5354,-3.5493,-3.5493,-3.5493,-3.5493,-3.5493,-3.5493,-3.5493,-3.5493,-3.5493,-3.5968,-3.6738,-3.7661,-3.8546,-3.9411,-4.0219,-4.0489,-4.0489,-4.0489,-4.0489,-4.0489,-4.0489,-4.0489,-4.0489,-4.0489,-4.0489,-4.0296,-3.9508,-3.9238,-3.8777,-3.7103,-3.6661,-3.6411,-3.5661,-3.5493,-3.5493,-3.5493,-3.5493,-3.5493,-3.5493,-3.5493,-3.5493,-3.5493,-3.5493,-3.5493,-3.5493,-3.5493,-3.5493,-3.5493,-3.5493,-3.5161,-3.4257,-3.4199,-3.3449,-3.1718,-3.0852,-3.0398,-3.0398,-3.0398,-3.0398,-3.0398,-3.0398,-3.0398,-3.0398,-3.0398,-3.0398,-3.0398,-3.0398,-3.0398,-0.9026,-1.0598,-1.2123,-1.2603,-1.3558,0.0,0.0,-1.5822,-1.6212,-1.6831,-1.7663,0.0,0.0,0.0,0.0,0.0,0.0,0.0,0.0,0.0,0.0,0.0,-2.8749,-2.8994,-2.8994,-2.8994,-2.8994,-2.8994,-2.9292,-2.9457,-2.9457,-3.0228,-3.0849,-3.1297,-3.2185,-3.3085,-3.4031,-3.4391,-3.4798,-3.5354,-3.519,-3.5105,-3.5105,-3.5369,-3.5493,-3.5493,-3.5493,-3.5493,-3.5493,-3.5493,-3.5493,-3.5493,-3.5493,-3.5699,-3.6065,-3.6892,-3.7738,-3.8604,-3.945,-4.0065,-4.0489,-4.0489,-4.0489,-4.0489,-4.0489,-4.0489,-4.0489,-4.0489,-4.0489,-4.0431,-4.0123,-3.9681,-3.8988,-3.7796,-3.7084,-3.6488,-3.568,-3.5493,-3.5493,-3.5493,-3.5493,-3.5493,-3.5493,-3.5493,-3.5493,-3.5493,-3.5493,-3.5493,-3.5493,-3.5493,-3.5493,-3.5493,-3.5493,-3.5372,-3.5045,-3.4507,-3.393,-3.3295,-3.1968,-3.0968,-3.0417,-3.0398,-3.0398,-3.0398,-3.0398,-3.0398,-3.0398,-3.0398,-3.0398,-3.0398,-3.0398,-3.0398,-0.8802,-1.0427,-1.2171,-1.2552,0.0,0.0,-1.5887,-1.6547,-1.7249,-1.813,-1.8817,0.0,0.0,0.0,0.0,0.0,0.0,0.0,0.0,0.0,0.0,-2.7864,-2.8366,-2.8723,-2.8975,-2.8994,-2.8994,-2.8994,-2.8994,-2.8994,-2.8994,-2.9531,-3.0043,-3.0562,-3.1392,-3.2338,-3.3391,-3.393,-3.4507,-3.5103,-3.517,-3.5223,-3.5223,-3.5417,-3.5493,-3.5493,-3.5493,-3.5493,-3.5493,-3.5493,-3.5493,-3.5493,-3.5493,-3.5493,-3.5603,-3.6411,-3.7084,-3.7719,-3.8584,-3.9431,-4.0123,-4.0123,-4.0277,-4.0489,-4.0489,-4.0489,-4.0489,-4.0489,-4.0489,-4.0489,-4.0489,-4.0085,-3.9392,-3.8277,-3.7546,-3.6815,-3.5738,-3.5493,-3.5493,-3.5493,-3.5493,-3.5493,-3.5493,-3.5493,-3.5501,-3.5534,-3.5515,-3.5501,-3.5534,-3.5515,-3.5493,-3.5493,-3.5493,-3.5493,-3.5493,-3.4949,-3.4487,-3.4218,-3.3122,-3.1987,-3.0871,-3.0552,-3.0398,-3.0398,-3.0398,-3.0398,-3.0398,-3.0398,-3.0398,-3.0398,-3.0398,-3.0398,-0.9782,-1.1033,-1.2483,0.0,0.0,0.0,-1.6888,-1.732,-1.7988,-2.0047,0.0,-2.1397,-2.2158,0.0,0.0,0.0,0.0,0.0,0.0,0.0,0.0,-2.6964,-2.7551,-2.8099,-2.8902,-2.8975,-2.8975,-2.9017,-2.9017,-2.9017,-2.9017,-2.9017,-2.9228,-2.9696,-3.0542,-3.1217,-3.1698,-3.3353,-3.418,-3.4199,-3.5084,-3.5474,-3.5493,-3.5493,-3.5493,-3.5493,-3.5493,-3.5493,-3.5493,-3.5493,-3.5493,-3.5493,-3.5493,-3.5493,-3.5603,-3.6392,-3.6699,-3.6834,-3.77,-3.8565,-3.9277,-3.9277,-3.9815,-4.0469,-4.0469,-4.0469,-4.0469,-4.0469,-4.0469,-4.0489,-4.0489,-4.0489,-4.0065,-3.8392,-3.7988,-3.7526,-3.5872,-3.5493,-3.5493,-3.5493,-3.5493,-3.5493,-3.5493,-3.5507,-3.5522,-3.559,-3.5534,-3.5522,-3.559,-3.5534,-3.5493,-3.5493,-3.5493,-3.5493,-3.5493,-3.5493,-3.5141,-3.4257,-3.4199,-3.3449,-3.1775,-3.0891,-3.0398,-3.0398,-3.0398,-3.0398,-3.0398,-3.0398,-3.0398,-3.0398,-3.0398,-3.0398,-0.9035,-1.0631,0.0,0.0,0.0,0.0,0.0,-1.7479,0.0,0.0,-1.99,-2.0602,-2.138,0.0,0.0,-2.231,-2.231,-2.266,0.0,0.0,-2.4895,-2.6201,-2.6709,-2.7273,-2.8081,-2.8154,-2.8482,-2.923,-2.9289,-2.9289,-2.9289,-2.9415,-2.9551,-2.9696,-3.0092,-3.0748,-3.1698,-3.2199,-3.3026,-3.4199,-3.4449,-3.4911,-3.5493,-3.5493,-3.5493,-3.5493,-3.5493,-3.5493,-3.5493,-3.5493,-3.5493,-3.5493,-3.5493,-3.5493,-3.5532,-3.5776,-3.6219,-3.6738,-3.7007,-3.7661,-3.8392,-3.8392,-3.8546,-3.8738,-3.8738,-3.8738,-3.8738,-3.8738,-3.9181,-3.9662,-3.9662,-3.9662,-3.9373,-3.8257,-3.7526,-3.6796,-3.5738,-3.5493,-3.5493,-3.5493,-3.5493,-3.5493,-3.5493,-3.554,-3.5577,-3.56,-3.5568,-3.5562,-3.5528,-3.5515,-3.5493,-3.5493,-3.5493,-3.5493,-3.5493,-3.5493,-3.5391,-3.5141,-3.4545,-3.3699,-3.2583,-3.1756,-3.1314,-3.1314,-3.0717,-3.0398,-3.0398,-3.0398,-3.0398,-3.0398,-3.0398,-3.0398,-0.9568,0.0,0.0,0.0,0.0,0.0,0.0,0.0,0.0,0.0,0.0,-1.9908,-2.1017,-2.1667,0.0,-2.2412,-2.2571,-2.292,-2.3706,-2.3987,-2.4526,-2.5611,-2.5993,-2.6429,-2.7255,-2.7395,-2.7837,-2.8796,-2.8951,-2.9158,-2.9494,-2.9625,-2.9748,-2.9813,-2.9939,-3.0385,-3.1179,-3.1525,-3.2218,-3.3199,-3.3526,-3.3968,-3.4487,-3.518,-3.5493,-3.5493,-3.5493,-3.5493,-3.5493,-3.5493,-3.5493,-3.5493,-3.5493,-3.5493,-3.5493,-3.5493,-3.5815,-3.6219,-3.6219,-3.6776,-3.7488,-3.7488,-3.7719,-3.8007,-3.8007,-3.8007,-3.8007,-3.8007,-3.8373,-3.8777,-3.8777,-3.8565,-3.8285,-3.806,-3.7334,-3.6483,-3.5701,-3.5553,-3.5546,-3.5577,-3.5588,-3.5588,-3.5588,-3.5611,-3.5666,-3.5706,-3.5674,-3.5621,-3.5546,-3.5528,-3.5493,-3.5493,-3.5493,-3.5493,-3.5493,-3.5493,-3.5493,-3.5493,-3.5033,-3.4511,-3.399,-3.2813,-3.2179,-3.2179,-3.166,-3.1391,-3.1391,-3.1083,-3.0929,-3.091,-3.0552,-3.0398,-1.0791,0.0,0.0,0.0,0.0,0.0,0.0,0.0,0.0,0.0,0.0,0.0,0.0,0.0,-2.1836,-2.2521,-2.2944,-2.3323,-2.3649,-2.3692,-2.4109,-2.5161,-2.5293,-2.5603,-2.641,-2.6671,-2.7121,-2.796,-2.8291,-2.8787,-2.958,-2.971,-2.9848,-2.9999,-3.0013,-3.015,-3.0398,-3.1198,-3.1621,-3.1718,-3.2449,-3.2833,-3.2968,-3.4622,-3.543,-3.5507,-3.543,-3.543,-3.5493,-3.5493,-3.5493,-3.5493,-3.5493,-3.5493,-3.5493,-3.5493,-3.5493,-3.5493,-3.5493,-3.5988,-3.6603,-3.6603,-3.7142,-3.7777,-3.7777,-3.7777,-3.7777,-3.7777,-3.7834,-3.7873,-3.7887,-3.7392,-3.7069,-3.7745,-3.7242,-3.6428,-3.5755,-3.5611,-3.5621,-3.5689,-3.5703,-3.5703,-3.5703,-3.571,-3.5761,-3.5877,-3.5802,-3.5702,-3.5611,-3.5546,-3.552,-3.5507,-3.5493,-3.5493,-3.5493,-3.5493,-3.5507,-3.5501,-3.5574,-3.5591,-3.5611,-3.3944,-3.3044,-3.3056,-3.2942,-3.2923,-3.2916,-3.2172,-3.1814,-3.1795,-3.1006,-3.0629,0.0,-1.1469,0.0,0.0,0.0,0.0,0.0,0.0,0.0,0.0,0.0,0.0,0.0,0.0,-2.1736,-2.2084,-2.2729,-2.3323,-2.3649,-2.3692,-2.3889,-2.4409,-2.4447,-2.4759,-2.5566,-2.5838,-2.6355,-2.733,-2.8218,-2.8798,-2.8969,-2.9778,-3.0169,-3.0013,-3.0209,-3.0343,-3.0398,-3.059,-3.1025,-3.1698,-3.1891,-3.2295,-3.2949,-3.4007,-3.4853,-3.5468,-3.4776,-3.4872,-3.5493,-3.5493,-3.5493,-3.5493,-3.5493,-3.5493,-3.5493,-3.5493,-3.5493,-3.5493,-3.5493,-3.5622,-3.5757,-3.5757,-3.5892,-3.6045,-3.6045,-3.6045,-3.6045,-3.6045,-3.6488,-3.6997,-3.7107,-3.7011,-3.6957,-3.7162,-3.6539,-3.5877,-3.5706,-3.5675,-3.5682,-3.5703,-3.5703,-3.5703,-3.5703,-3.5797,-3.5869,-3.59,-3.5873,-3.5786,-3.5621,-3.5579,-3.555,-3.552,-3.5493,-3.5493,-3.5493,-3.5493,-3.5522,-3.5577,-3.559,-3.5621,-3.5667,-3.4594,-3.4052,-3.4156,-3.333,-3.2945,-3.3064,-3.2791,-3.2641,-3.2641,-3.2449,-3.2352,0.0,0.0,0.0,0.0,0.0,0.0,0.0,0.0,0.0,0.0,0.0,0.0,0.0,0.0,-2.1079,-2.2082,-2.2736,-2.3298,-2.3862,-2.3937,-2.3996,-2.417,-2.419,-2.4355,-2.4777,-2.5093,-2.5646,-2.6563,-2.7317,-2.8089,-2.8906,-2.9459,-2.9901,-3.0177,-3.0323,-3.0398,-3.0398,-3.0398,-3.0641,-3.1083,-3.1083,-3.1525,-3.2352,-3.3179,-3.3833,-3.4257,-3.4218,-3.4449,-3.4911,-3.5334,-3.5493,-3.5493,-3.5493,-3.5493,-3.5493,-3.5493,-3.5493,-3.5493,-3.5493,-3.5493,-3.5493,-3.5493,-3.5493,-3.5493,-3.5493,-3.5493,-3.5493,-3.5493,-3.583,-3.6188,-3.6267,-3.6356,-3.6423,-3.6468,-3.608,-3.5717,-3.5772,-3.5802,-3.5807,-3.5838,-3.5841,-3.5841,-3.5841,-3.5899,-3.5947,-3.5947,-3.5916,-3.5864,-3.5768,-3.569,-3.5611,-3.557,-3.5546,-3.554,-3.5507,-3.5515,-3.5562,-3.56,-3.5682,-3.5756,-3.5797,-3.5334,-3.5061,-3.5068,-3.4497,-3.4232,-3.4304,-3.3786,-3.3526,-3.3506,-3.3083,-3.2891,0.0,0.0,0.0,0.0,0.0,0.0,0.0,0.0,0.0,0.0,0.0,0.0,0.0,0.0,-2.0321,-2.1906,-2.2519,-2.307,-2.3878,-2.3988,-2.4043,-2.4171,-2.419,-2.419,-2.419,-2.4559,-2.5087,-2.5748,-2.6281,-2.7217,-2.8582,-2.8929,-2.9429,-3.016,-3.0321,-3.0398,-3.0398,-3.0398,-3.0398,-3.0398,-3.0398,-3.0794,-3.1506,-3.216,-3.2622,-3.2929,-3.3526,-3.393,-3.4257,-3.4988,-3.5372,-3.5493,-3.5493,-3.5493,-3.5493,-3.5493,-3.5493,-3.5493,-3.5493,-3.5493,-3.5493,-3.5493,-3.5493,-3.5493,-3.5493,-3.5493,-3.5507,-3.5515,-3.555,-3.5601,-3.564,-3.5781,-3.5903,-3.5913,-3.5825,-3.5783,-3.5887,-3.5913,-3.5921,-3.5996,-3.5996,-3.5996,-3.5996,-3.5996,-3.5996,-3.5996,-3.5948,-3.591,-3.5903,-3.5802,-3.5689,-3.564,-3.5621,-3.56,-3.554,-3.5599,-3.5631,-3.5659,-3.5805,-3.5907,-3.5913,-3.5913,-3.5877,-3.5747,-3.5657,-3.5601,-3.5621,-3.482,-3.441,-3.441,-3.368,-3.3353,0.0,0.0,0.0,0.0,0.0,0.0,0.0,0.0,0.0,0.0,0.0,0.0,0.0,0.0,-2.0005,-2.0658,-2.1438,-2.2244,-2.3052,-2.3162,-2.3419,-2.4116,-2.419,-2.419,-2.419,-2.4559,-2.4842,-2.4955,-2.5975,-2.6697,-2.6928,-2.8313,-2.914,-2.9275,-3.0006,-3.0398,-3.0398,-3.0398,-3.0398,-3.0398,-3.0398,-3.0456,-3.0571,-3.0667,-3.1525,-3.2872,-3.2295,-3.2852,-3.4199,-3.4334,-3.4814,-3.5493,-3.5493,-3.5493,-3.5493,-3.5493,-3.5493,-3.5493,-3.5493,-3.5493,-3.5493,-3.5493,-3.5493,-3.5493,-3.5493,-3.5493,-3.5515,-3.5566,-3.559,-3.564,-3.5811,-3.5873,-3.5913,-3.5973,-3.5975,-3.5955,-3.5976,-3.5995,-3.5996,-3.5996,-3.5996,-3.5996,-3.5996,-3.5996,-3.5996,-3.5996,-3.5996,-3.5972,-3.5907,-3.5877,-3.5831,-3.5696,-3.5689,-3.5682,-3.5667,-3.5682,-3.5736,-3.586,-3.5896,-3.5938,-3.5976,-3.5995,-3.5975,-3.5955,-3.5716,-3.563,-3.5689,-3.5446,-3.5334,-3.5334,-3.5218,-3.5161,0.0,0.0,0.0,0.0,0.0,0.0,0.0,0.0,0.0,0.0,0.0,0.0,0.0,0.0,-1.9597,-2.0362,-2.0831,-2.1363,-2.2208,-2.2721,-2.3144,-2.3492,-2.3933,-2.419,-2.419,-2.4559,-2.4804,-2.4804,-2.5478,-2.6082,-2.6563,-2.7294,-2.8121,-2.9063,-2.9467,-2.991,-3.0398,-3.0398,-3.0398,-3.0398,-3.0398,-3.0398,-3.0398,-3.0398,-3.0814,-3.1506,-3.1641,-3.2372,-3.3506,-3.3987,-3.4718,-3.5493,-3.5493,-3.5493,-3.5493,-3.5493,-3.5493,-3.5493,-3.5493,-3.5493,-3.5493,-3.5493,-3.5493,-3.5493,-3.5493,-3.5493,-3.5515,-3.5588,-3.5621,-3.5694,-3.5864,-3.5938,-3.5953,-3.5996,-3.5996,-3.5996,-3.5996,-3.5996,-3.5996,-3.5996,-3.5996,-3.5996,-3.5996,-3.5996,-3.5996,-3.5996,-3.5996,-3.5996,-3.5951,-3.597,-3.5921,-3.5817,-3.5807,-3.5772,-3.571,-3.5766,-3.5841,-3.59,-3.5942,-3.5973,-3.5996,-3.5996,-3.5996,-3.5996,-3.5772,-3.5659,-3.5703,-3.5574,-3.5493,-3.5493,-3.5493,-3.5493,0.0,0.0,0.0,0.0,0.0,0.0,0.0,0.0,0.0,0.0,0.0,0.0,0.0,0.0,-1.9164,-1.9984,-2.0158,-2.0501,-2.1345,-2.1987,-2.252,-2.2942,-2.3529,-2.3988,-2.4247,-2.4591,-2.4799,-2.4855,-2.5138,-2.5572,-2.6236,-2.6486,-2.7178,-2.8429,-2.8871,-2.941,-3.0063,-3.0294,-3.0398,-3.0398,-3.0398,-3.0398,-3.0398,-3.0398,-3.0398,-3.0436,-3.1102,-3.1833,-3.266,-3.3526,-3.4372,-3.5199,-3.5411,-3.5493,-3.5493,-3.5493,-3.5493,-3.5493,-3.5493,-3.5493,-3.5493,-3.5493,-3.5493,-3.5493,-3.5493,-3.5515,-3.554,-3.5601,-3.5687,-3.5772,-3.5907,-3.5951,-3.5996,-3.5996,-3.5996,-3.5996,-3.5996,-3.5996,-3.5996,-3.5996,-3.5996,-3.5996,-3.5996,-3.5996,-3.5996,-3.5996,-3.5996,-3.5996,-3.5996,-3.5996,-3.5975,-3.5921,-3.5938,-3.5887,-3.5788,-3.5861,-3.5938,-3.5938,-3.5973,-3.5996,-3.5996,-3.5996,-3.5996,-3.5996,-3.5802,-3.5703,-3.5703,-3.5574,-3.5493,-3.5493,-3.5493,-3.5493,0.0,0.0,0.0,0.0,0.0,0.0,0.0,0.0,0.0,0.0,0.0,0.0,0.0,0.0,0.0,-1.902,-1.9237,-1.9638,-2.0448,-2.0594,-2.1218,-2.2795,-2.3052,-2.3437,-2.4386,-2.467,-2.4855,-2.4986,-2.5173,-2.5322,-2.536,-2.6159,-2.664,-2.6736,-2.8275,-2.9121,-2.9159,-2.9987,-3.0398,-3.0398,-3.0398,-3.0398,-3.0398,-3.0398,-3.0398,-3.0398,-3.0436,-3.0968,-3.1833,-3.2622,-3.3487,-3.4353,-3.518,-3.5493,-3.5493,-3.5493,-3.5493,-3.5493,-3.5493,-3.5493,-3.5493,-3.5493,-3.5493,-3.5493,-3.5493,-3.5534,-3.5611,-3.5687,-3.5797,-3.591,-3.5974,-3.5996,-3.5996,-3.5996,-3.5996,-3.5996,-3.5996,-3.5996,-3.5996,-3.5996,-3.5996,-3.5996,-3.5996,-3.5996,-3.5996,-3.5996,-3.5996,-3.5996,-3.5996,-3.5996,-3.5996,-3.5996,-3.5996,-3.5996,-3.5976,-3.5996,-3.5996,-3.5996,-3.5996,-3.5996,-3.5996,-3.5996,-3.5996,-3.5996,-3.5802,-3.5703,-3.5703,-3.5574,-3.5493,-3.5493,-3.5493,-3.5493,0.0,0.0,0.0,0.0,0.0,0.0,0.0,0.0,0.0,0.0,0.0,0.0,0.0,0.0,0.0,-1.8984,-1.9166,-1.9399,-1.9693,-2.017,-2.0723,-2.131,-2.2456,-2.3333,-2.3694,-2.4464,-2.4949,-2.4998,-2.5192,-2.5303,-2.5303,-2.5591,-2.6024,-2.6582,-2.7178,-2.8005,-2.9083,-2.9967,-3.0398,-3.0398,-3.0398,-3.0398,-3.0398,-3.0398,-3.0398,-3.0398,-3.0398,-3.0891,-3.1718,-3.2006,-3.2949,-3.4218,-3.4545,-3.5007,-3.552,-3.5546,-3.554,-3.552,-3.5546,-3.554,-3.5493,-3.5493,-3.5493,-3.5493,-3.5493,-3.5528,-3.555,-3.5679,-3.5729,-3.5812,-3.5954,-3.5996,-3.5996,-3.5996,-3.5996,-3.5996,-3.5996,-3.5996,-3.5996,-3.5996,-3.5996,-3.5996,-3.5996,-3.5996,-3.5996,-3.5996,-3.5996,-3.5996,-3.5996,-3.5996,-3.5996,-3.5996,-3.5996,-3.5996,-3.5996,-3.5996,-3.5996,-3.5996,-3.5996,-3.5996,-3.5996,-3.5996,-3.5996,-3.5996,-3.589,-3.5797,-3.5703,-3.5574,-3.5493,-3.5493,-3.5493,-3.5493,-1.0513,0.0,0.0,0.0,0.0,0.0,0.0,0.0,0.0,0.0,0.0,0.0,0.0,0.0,0.0,0.0,-1.9166,-1.9305,-1.9305,-1.9767,-2.0207,-2.0466,-2.1652,-2.2588,-2.2929,-2.3954,-2.4622,-2.4698,-2.507,0.0,-2.5303,-2.5303,-2.5687,-2.6563,-2.6601,-2.7409,-2.9083,-2.9679,-3.0121,-3.0398,-3.0398,-3.0398,-3.0398,-3.0398,-3.0398,-3.0398,-3.0398,-3.0737,-3.1295,-3.1583,-3.2352,-3.341,-3.3968,-3.4565,-3.5136,-3.5482,-3.5566,-3.5553,-3.5579,-3.557,-3.5493,-3.5493,-3.5493,-3.5493,-3.5493,-3.5528,-3.555,-3.5679,-3.5723,-3.5792,-3.5954,-3.5996,-3.5996,-3.5996,-3.5996,-3.5996,-3.5996,-3.5996,-3.5996,-3.5996,-3.5996,-3.5996,-3.5996,-3.5996,-3.5996,-3.5996,-3.5996,-3.5996,-3.5996,-3.5996,-3.5996,-3.5996,-3.5996,-3.5996,-3.5996,-3.5996,-3.5996,-3.5996,-3.5996,-3.5996,-3.5996,-3.5996,-3.5996,-3.5996,-3.5923,-3.5864,-3.5766,-3.5631,-3.5574,-3.5574,-3.5574,-3.557,0.0,0.0,0.0,0.0,0.0,0.0,0.0,0.0,0.0,0.0,0.0,0.0,0.0,0.0,0.0,0.0,-1.9182,-1.9305,-1.9305,-1.9305,-1.9583,-2.0356,-2.0655,-2.1195,-2.216,-2.317,-2.3864,-2.4082,-2.4812,-2.5264,-2.5303,-2.5303,-2.5687,-2.6524,-2.6582,-2.7371,-2.9006,-2.9083,-2.9525,-3.0359,-3.0379,-3.0398,-3.0398,-3.0398,-3.0398,-3.0398,-3.0398,-3.0398,-3.0456,-3.1314,-3.1679,-3.1852,-3.3519,-3.4214,-3.441,-3.5291,-3.5621,-3.5591,-3.5621,-3.5562,-3.552,-3.552,-3.5488,-3.5507,-3.5507,-3.5546,-3.5611,-3.5675,-3.5797,-3.591,-3.5975,-3.5996,-3.5996,-3.5996,-3.5996,-3.5996,-3.5996,-3.5996,-3.5996,-3.5996,-3.5996,-3.5996,-3.5996,-3.5996,-3.5996,-3.5996,-3.5996,-3.5996,-3.5996,-3.5996,-3.5996,-3.5996,-3.5996,-3.5996,-3.5996,-3.5996,-3.5996,-3.5996,-3.5996,-3.5996,-3.5996,-3.5996,-3.5996,-3.5996,-3.5942,-3.5903,-3.5903,-3.5761,-3.5703,-3.5703,-3.5703,-3.5671,-0.9922,0.0,0.0,0.0,0.0,0.0,0.0,0.0,0.0,0.0,0.0,0.0,0.0,0.0,0.0,0.0,0.0,-1.9305,-1.9305,-1.9305,-1.9381,-1.9601,-2.0443,-2.1124,-2.14,-2.2427,-2.3352,0.0,-2.4322,-2.4697,-2.5264,-2.5303,-2.5399,-2.5649,-2.6274,-2.6813,-2.7294,-2.8486,-2.9217,-2.9467,-3.0102,-3.0398,-3.0398,-3.0398,-3.0398,-3.0398,-3.0398,-3.0398,-3.0417,-3.066,-3.1141,-3.1807,-3.2954,-3.3771,-3.442,-3.5444,-3.5762,-3.5694,-3.5774,-3.5742,-3.5638,-3.5638,-3.5611,-3.5566,-3.5566,-3.5558,-3.5558,-3.5679,-3.5723,-3.5788,-3.5954,-3.5996,-3.5996,-3.5996,-3.5996,-3.5996,-3.5996,-3.5996,-3.5996,-3.5996,-3.5996,-3.5996,-3.5996,-3.5996,-3.5996,-3.5996,-3.5996,-3.5996,-3.5996,-3.5996,-3.5996,-3.5996,-3.5996,-3.5996,-3.5996,-3.5996,-3.5996,-3.5996,-3.5996,-3.5996,-3.5996,-3.5996,-3.5996,-3.5996,-3.5975,-3.5973,-3.5973,-3.573,-3.5655,-3.5703,-3.5703,-3.5689,-1.0508,0.0,0.0,0.0,0.0,0.0,0.0,-1.1865,0.0,0.0,0.0,0.0,0.0,0.0,0.0,0.0,0.0,-1.8922,-1.9234,-1.9305,-1.9305,-1.9305,-2.0036,-2.0569,-2.0569,-2.1589,-2.2466,-2.2985,-2.3687,-2.4447,-2.5264,-2.5303,-2.5303,-2.5303,-2.5793,-2.6236,-2.6601,-2.7563,-2.8409,-2.9102,-2.9602,-3.0044,-3.0398,-3.0398,-3.0398,-3.0398,-3.0398,-3.0398,-3.0398,-3.0398,-3.0698,-3.1287,-3.259,-3.3391,-3.4012,-3.5383,-3.5845,-3.5797,-3.5873,-3.5807,-3.5703,-3.5703,-3.5655,-3.5611,-3.5611,-3.5538,-3.5534,-3.5671,-3.5752,-3.5845,-3.5975,-3.5996,-3.5996,-3.5996,-3.5996,-3.5996,-3.5996,-3.5996,-3.5996,-3.5996,-3.5996,-3.5996,-3.5996,-3.5996,-3.5996,-3.5996,-3.5996,-3.5996,-3.5996,-3.5996,-3.5996,-3.5996,-3.5996,-3.5996,-3.5996,-3.5996,-3.5996,-3.5996,-3.5996,-3.5996,-3.5996,-3.5996,-3.5996,-3.5996,-3.5996,-3.5995,-3.595,-3.5841,-3.5797,-3.5814,-3.5807,-3.5772,-1.1454,-1.0924,0.0,0.0,0.0,0.0,-1.1868,-1.1572,-1.1645,0.0,0.0,0.0,0.0,0.0,0.0,0.0,0.0,0.0,-1.9179,-1.932,-1.932,-1.9305,-1.9606,-1.9813,-1.979,-2.0757,-2.1408,-2.1485,-2.3024,-2.4312,-2.512,-2.5168,-2.5207,-2.5303,-2.5303,-2.5668,-2.6447,-2.6544,-2.7351,-2.8813,-2.9006,-2.9506,-3.0256,-3.0359,-3.0398,-3.0398,-3.0398,-3.0398,-3.0398,-3.0398,-3.0398,-3.0575,-3.228,-3.306,-3.3412,-3.5131,-3.5832,-3.591,-3.591,-3.5821,-3.5735,-3.5735,-3.5687,-3.5631,-3.5631,-3.5577,-3.5546,-3.5687,-3.5868,-3.5996,-3.5996,-3.5996,-3.5996,-3.5996,-3.5996,-3.5996,-3.5996,-3.5996,-3.5996,-3.5996,-3.5996,-3.5996,-3.5996,-3.5996,-3.5996,-3.5996,-3.5996,-3.5996,-3.5996,-3.5996,-3.5996,-3.5996,-3.5996,-3.5996,-3.5996,-3.5996,-3.5996,-3.5996,-3.5996,-3.5996,-3.5996,-3.5996,-3.5996,-3.5996,-3.5996,-3.5973,-3.591,-3.5973,-3.5996,-3.5995,-3.5942,-3.591,-1.2259,-1.2232,-1.2103,-1.1738,0.0,0.0,-1.0853,-1.1282,-1.1954,0.0,0.0,0.0,0.0,0.0,0.0,0.0,0.0,0.0,0.0,-1.9442,-1.9485,-1.932,-1.97,-1.9922,-1.9802,-2.0251,-2.0812,-2.1446,-2.2466,-2.3437,-2.4302,-2.4341,-2.462,-2.5284,-2.5303,-2.538,-2.5553,-2.6255,-2.6755,-2.7101,-2.8448,-2.9179,-2.9371,-3.0083,-3.0398,-3.0398,-3.0398,-3.0398,-3.0398,-3.0398,-3.0398,-3.051,-3.1689,-3.2571,-3.3345,-3.4519,-3.5389,-3.5975,-3.5975,-3.5954,-3.5932,-3.5932,-3.5893,-3.5831,-3.5831,-3.5762,-3.5694,-3.5827,-3.5925,-3.5996,-3.5996,-3.5996,-3.5996,-3.5996,-3.5996,-3.5996,-3.5996,-3.5996,-3.5996,-3.5996,-3.5996,-3.5996,-3.5996,-3.5996,-3.5996,-3.5996,-3.5996,-3.5996,-3.5996,-3.5996,-3.5996,-3.5996,-3.5996,-3.5996,-3.5996,-3.5996,-3.5996,-3.5996,-3.5996,-3.5996,-3.5996,-3.5996,-3.5996,-3.5996,-3.5996,-3.5996,-3.5975,-3.5996,-3.5973,-3.5916,-3.5951,-3.5975,-1.3204,-1.2944,-1.268,-1.2656,0.0,0.0,0.0,0.0,-1.1783,0.0,0.0,0.0,0.0,0.0,0.0,0.0,0.0,0.0,0.0,0.0,0.0,-1.9456,-1.9719,-1.9901,-1.9901,-2.0498,-2.1254,-2.2081,-2.2158,-2.2524,-2.3417,-2.386,-2.4283,-2.4697,-2.5101,-2.5303,-2.5303,-2.5726,-2.6178,-2.6621,-2.789,-2.8698,-2.9121,-3.0006,-3.0398,-3.0398,-3.0398,-3.0425,-3.0462,-3.0462,-3.0482,-3.0585,-3.1534,-3.2196,-3.276,-3.4176,-3.498,-3.541,-3.5859,-3.5996,-3.5996,-3.5996,-3.595,-3.5903,-3.5903,-3.5845,-3.5807,-3.5877,-3.5947,-3.5996,-3.5996,-3.5996,-3.5996,-3.5996,-3.5996,-3.5996,-3.5996,-3.5996,-3.5996,-3.5996,-3.5996,-3.5996,-3.5996,-3.5996,-3.5996,-3.5996,-3.5996,-3.5996,-3.5996,-3.5996,-3.5996,-3.5996,-3.5996,-3.5996,-3.5996,-3.5996,-3.5996,-3.5996,-3.5996,-3.5996,-3.5996,-3.5996,-3.5996,-3.5996,-3.5996,-3.5996,-3.5996,-3.5996,-3.5975,-3.5948,-3.5976,-3.5996,0.0,0.0,0.0,0.0,0.0,-1.3329,0.0,0.0,0.0,0.0,0.0,0.0,0.0,0.0,0.0,0.0,0.0,0.0,0.0,0.0,0.0,-1.9125,-1.9454,-1.9684,-1.9755,-2.0542,-2.137,-2.2254,-2.1504,-2.1466,-2.2485,-2.3379,-2.3937,-2.4091,-2.4889,-2.5303,-2.5303,-2.5303,-2.5649,-2.637,-2.7236,-2.8082,-2.889,-2.9756,-3.0237,-3.041,-3.0414,-3.0462,-3.0498,-3.0505,-3.0554,-3.0686,-3.1393,-3.1796,-3.2204,-3.3846,-3.4551,-3.4824,-3.5703,-3.5996,-3.5996,-3.5996,-3.5953,-3.5916,-3.5916,-3.5916,-3.5916,-3.5916,-3.595,-3.5996,-3.5996,-3.5996,-3.5996,-3.5996,-3.5996,-3.5996,-3.5996,-3.5996,-3.5996,-3.5996,-3.5996,-3.5996,-3.5996,-3.5996,-3.5996,-3.5996,-3.5996,-3.5996,-3.5996,-3.5996,-3.5996,-3.5996,-3.5996,-3.5996,-3.5996,-3.5996,-3.5996,-3.5996,-3.5996,-3.5996,-3.5996,-3.5996,-3.5996,-3.5996,-3.5996,-3.5996,-3.5996,-3.5996,-3.5996,-3.5996,-3.5996,-3.5996,0.0,0.0,0.0,0.0,-1.5478,0.0,0.0,0.0,0.0,0.0,0.0,0.0,0.0,0.0,0.0,0.0,0.0,0.0,0.0,0.0,0.0,0.0,-1.8468,-1.9057,-1.8963,-1.9161,-1.9646,-2.0523,-1.9773,-1.9973,-2.1562,-2.2466,-2.3302,-2.4072,-2.4889,-2.5303,-2.5303,-2.5303,-2.5341,-2.5457,-2.6332,-2.7198,-2.8063,-2.8871,-2.9679,-3.039,-3.0462,-3.049,-3.0507,-3.0561,-3.0638,-3.0707,-3.0804,-3.1318,-3.2126,-3.3163,-3.4043,-3.4824,-3.5703,-3.5996,-3.5996,-3.5996,-3.5996,-3.5996,-3.5996,-3.5996,-3.5996,-3.5996,-3.5996,-3.5996,-3.5996,-3.5996,-3.5996,-3.5996,-3.5996,-3.5996,-3.5996,-3.5996,-3.5996,-3.5996,-3.5996,-3.5996,-3.5996,-3.5996,-3.5996,-3.5996,-3.5996,-3.5996,-3.5996,-3.5996,-3.5996,-3.5996,-3.5996,-3.5996,-3.5996,-3.5996,-3.5996,-3.5996,-3.5996,-3.5996,-3.5996,-3.5996,-3.5996,-3.5996,-3.5996,-3.5996,-3.5996,-3.5996,-3.5996,-3.5996,-3.5996,-3.5996,0.0,0.0,0.0,0.0,0.0,0.0,-1.3244,0.0,-1.3915,0.0,0.0,0.0,0.0,0.0,0.0,0.0,-1.2941,0.0,0.0,0.0,0.0,0.0,0.0,0.0,-1.9528,-1.925,-1.9569,-2.0908,-2.0215,-2.0062,-2.0773,-2.2062,-2.2966,-2.334,-2.4159,-2.4832,-2.5303,-2.5303,-2.5303,-2.5303,-2.6178,-2.7063,-2.7928,-2.8717,-2.9599,-3.0462,-3.05,-3.0533,-3.0628,-3.0657,-3.0713,-3.0816,-3.0816,-3.103,-3.1539,-3.289,-3.3633,-3.4141,-3.5527,-3.5996,-3.5996,-3.5996,-3.5996,-3.5996,-3.5996,-3.5996,-3.5996,-3.5996,-3.5996,-3.5996,-3.5996,-3.5996,-3.5996,-3.5996,-3.5996,-3.5996,-3.5996,-3.5996,-3.5996,-3.5996,-3.5996,-3.5996,-3.5996,-3.5996,-3.5996,-3.5996,-3.5996,-3.5996,-3.5996,-3.5996,-3.5996,-3.5996,-3.5996,-3.5996,-3.5996,-3.5996,-3.5996,-3.5996,-3.5996,-3.5996,-3.5996,-3.5996,-3.5996,-3.5996,-3.5996,-3.5996,-3.5996,-3.5996,-3.5996,-3.5996,-3.5996,-3.5996,-1.7202,0.0,0.0,0.0,0.0,0.0,0.0,0.0,0.0,0.0,0.0,0.0,0.0,0.0,0.0,0.0,0.0,0.0,0.0,0.0,0.0,0.0,0.0,0.0,0.0,-1.884,-1.902,-2.0708,-2.005,-1.9888,-2.06,-2.1773,-2.2543,-2.2793,-2.3648,-2.4379,-2.4966,-2.5187,-2.5303,-2.5303,-2.5947,-2.6697,-2.7563,-2.839,-2.9264,-3.0159,-3.0416,-3.06,-3.0696,-3.0743,-3.0816,-3.0898,-3.0898,-3.0898,-3.1074,-3.2539,-3.3203,-3.3613,-3.5117,-3.5801,-3.5996,-3.5996,-3.5996,-3.5996,-3.5996,-3.5996,-3.5996,-3.5996,-3.5996,-3.5996,-3.5996,-3.5996,-3.5996,-3.5996,-3.5996,-3.5996,-3.5996,-3.5996,-3.5996,-3.5996,-3.5996,-3.5996,-3.5996,-3.5996,-3.5996,-3.5996,-3.5996,-3.5996,-3.5996,-3.5996,-3.5996,-3.5996,-3.5996,-3.5996,-3.5996,-3.5996,-3.5996,-3.5996,-3.5996,-3.5996,-3.5996,-3.5996,-3.5996,-3.5996,-3.5996,-3.5996,-3.5996,-3.5996,-3.5996,-3.5996,-3.5996,-3.5996,0.0,0.0,0.0,-1.6035,0.0,0.0,0.0,0.0,-1.5574,0.0,0.0,0.0,0.0,0.0,0.0,0.0,0.0,0.0,0.0,0.0,0.0,0.0,0.0,0.0,0.0,-1.7098,-1.7296,0.0,-1.8313,-1.885,-2.1331,-2.1504,-2.1927,-2.2774,-2.3648,-2.411,-2.4149,-2.4909,-2.5303,-2.5303,-2.5322,-2.5813,-2.6678,-2.7544,-2.8415,-2.9287,-3.0199,-3.0643,-3.0718,-3.0837,-3.0898,-3.0898,-3.0898,-3.0898,-3.1016,-3.1914,-3.2734,-3.3535,-3.4434,-3.5293,-3.5996,-3.5996,-3.5996,-3.5996,-3.5996,-3.5996,-3.5996,-3.5996,-3.5996,-3.5996,-3.5996,-3.5996,-3.5996,-3.5996,-3.5996,-3.5996,-3.5996,-3.5996,-3.5996,-3.5996,-3.5996,-3.5996,-3.5996,-3.5996,-3.5996,-3.5996,-3.5996,-3.5996,-3.5996,-3.5996,-3.5996,-3.5996,-3.5996,-3.5996,-3.5996,-3.5996,-3.5996,-3.5996,-3.5996,-3.5996,-3.5996,-3.5996,-3.5996,-3.5996,-3.5996,-3.5996,-3.5996,-3.5996,-3.5996,-3.5996,-3.5996,-3.5996,0.0,0.0,-1.9754,-1.7426,0.0,0.0,0.0,0.0,0.0,0.0,0.0,0.0,0.0,0.0,0.0,0.0,0.0,0.0,0.0,0.0,0.0,0.0,0.0,0.0,0.0,0.0,0.0,0.0,-1.848,0.0,-2.0639,-2.1216,-2.1639,-2.1927,-2.2793,-2.3514,-2.4091,-2.4909,-2.5303,-2.5303,-2.5303,-2.5774,-2.6621,-2.7547,-2.8481,-2.9389,-3.0278,-3.0735,-3.0837,-3.0879,-3.0898,-3.0898,-3.0898,-3.0898,-3.1074,-3.248,-3.3164,-3.3613,-3.5059,-3.5742,-3.5996,-3.5996,-3.5996,-3.5996,-3.5996,-3.5996,-3.5996,-3.5996,-3.5996,-3.5996,-3.5996,-3.5996,-3.5996,-3.5996,-3.5996,-3.5996,-3.5996,-3.6445,-3.6855,-3.6855,-3.7324,-3.7539,-3.6953,-3.6855,-3.666,-3.6094,-3.5996,-3.5996,-3.5996,-3.5996,-3.5996,-3.5996,-3.5996,-3.5996,-3.5996,-3.5996,-3.5996,-3.5996,-3.5996,-3.5996,-3.5996,-3.5996,-3.5996,-3.5996,-3.5996,-3.5996,-3.5996,-3.5996,-3.5996,-3.5996,-3.5996,-3.5996,-1.9525,-1.9903,0.0,-1.8133,-1.791,0.0,-1.546,0.0,0.0,0.0,0.0,0.0,0.0,0.0,0.0,0.0,0.0,0.0,0.0,-1.1276,0.0,0.0,0.0,0.0,0.0,0.0,-1.6175,-1.7297,-1.7871,-1.8802,0.0,-2.1062,-2.1504,-2.1504,-2.2639,-2.3379,-2.3648,-2.4736,-2.5303,-2.5303,-2.5303,-2.5621,-2.6207,-2.7434,-2.8353,-2.9035,-3.0196,-3.0771,-3.0898,-3.0898,-3.0898,-3.0898,-3.0898,-3.0898,-3.1074,-3.2461,-3.3359,-3.4062,-3.5508,-3.5996,-3.5996,-3.5996,-3.5996,-3.5996,-3.5996,-3.5996,-3.5996,-3.5996,-3.5996,-3.5996,-3.5996,-3.5996,-3.5996,-3.5996,-3.623,-3.6465,-3.6465,-3.7148,-3.7754,-3.7754,-3.8223,-3.8418,-3.7851,-3.7519,-3.6992,-3.6133,-3.5996,-3.5996,-3.5996,-3.5996,-3.5996,-3.5996,-3.5996,-3.5996,-3.5996,-3.5996,-3.5996,-3.5996,-3.5996,-3.5996,-3.5996,-3.5996,-3.5996,-3.5996,-3.5996,-3.5996,-3.5996,-3.5996,-3.5996,-3.5996,-3.5996,-3.5996]},{"header":{"parameterUnit":"m.s-1","parameterCategory":1,"la1":30.6,"la2":29.2853,"lo1":-89.7004,"lo2":-87.6739,"dy":0.0162,"dx":0.0183,"nx":112,"ny":82,"refTime":"2026-04-04T12:00:00:Z","depth":0,"parameterNumber":3,"parameterNumberName":"V-component_of_WINDS"},"data":[0.0,0.0,0.0,0.0,0.0,0.0,0.0,0.0,0.0,0.0,0.0,0.0,0.0,0.0,0.0,0.0,0.0,0.0,0.0,0.0,0.0,0.0,0.0,0.0,0.0,0.0,0.0,0.0,0.0,0.0,0.0,0.0,0.0,0.0,0.0,0.0,0.0,0.0,0.0,0.0,0.0,0.0,0.0,0.0,0.0,0.0,0.0,0.0,0.0,0.0,0.0,0.0,0.0,0.0,0.0,0.0,0.0,0.0,0.0,0.0,0.0,0.0,0.0,0.0,0.0,0.0,0.0,0.0,0.0,0.0,0.0,0.0,0.0,0.0,0.0,0.0,0.0,0.0,0.0,0.0,0.0,0.0,0.0,0.0,0.0,0.0,0.0,0.0,0.0,0.0,-0.5996,-0.7141,-0.821,-0.8804,-0.8804,-0.8776,-0.8201,-0.6842,0.0,0.0,0.0,0.0,0.0,0.0,0.0,0.0,0.0,0.0,0.0,0.0,0.0,0.0,0.0,0.0,0.0,0.0,0.0,0.0,0.0,0.0,0.0,0.0,0.0,0.0,0.0,0.0,0.0,0.0,0.0,0.0,0.0,0.0,0.0,0.0,0.0,0.0,0.0,0.0,0.0,0.0,0.0,0.0,0.0,0.0,0.0,0.0,0.0,0.0,0.0,0.0,0.0,0.0,0.0,0.0,0.0,0.0,0.0,0.0,0.0,0.0,0.0,0.0,0.0,0.0,0.0,0.0,0.0,0.0,0.0,0.0,0.0,0.0,0.0,0.0,0.0,0.0,0.0,0.0,0.0,0.0,0.0,0.0,0.0,0.0,0.0,0.0,0.0,0.0,0.0,0.0,0.0,0.0,0.0,0.0,0.0,0.0,0.0,0.0,0.0,0.0,0.0,0.0,-0.7196,-0.8387,-0.8693,-0.8804,-0.8804,-0.8776,-0.7874,-0.5673,0.0,0.0,0.0,0.0,0.0,0.0,0.0,0.0,0.0,0.0,0.0,0.0,0.0,0.0,0.0,0.0,0.0,0.0,0.0,0.0,0.0,0.0,0.0,0.0,0.0,0.0,0.0,0.0,0.0,0.0,0.0,0.0,0.0,0.0,0.0,0.0,0.0,0.0,0.0,0.0,0.0,0.0,0.0,0.0,0.0,0.0,0.0,0.0,0.0,0.0,0.0,0.0,0.0,0.0,0.0,0.0,0.0,0.0,0.0,0.0,0.0,0.0,0.0,0.0,0.0,0.0,0.0,0.0,0.0,0.0,0.0,0.0,0.0,0.0,0.0,0.0,0.0,0.0,0.0,0.0,0.0,0.0,0.0,0.0,0.0,0.0,0.0,0.0,0.0,0.0,0.0,0.0,0.0,0.0,0.0,0.0,0.0,0.0,0.0,0.0,0.0,0.0,0.0,-0.7578,-0.8197,-0.8758,-0.879,-0.8804,-0.8804,-0.8776,-0.7819,-0.5445,-0.4485,0.0,0.0,0.0,0.0,0.0,0.0,0.0,0.0,0.0,0.0,0.0,0.0,0.0,0.0,0.0,0.0,0.0,0.0,0.0,0.0,0.0,0.0,0.0,0.0,0.0,0.0,0.0,0.0,0.0,0.0,0.0,0.0,0.0,0.0,0.0,0.0,0.0,0.0,0.0,0.0,0.0,0.0,0.0,0.0,0.0,0.0,0.0,0.0,0.0,0.0,0.0,0.0,0.0,0.0,0.0,0.0,0.0,0.0,0.0,0.0,0.0,0.0,0.0,0.0,0.0,0.0,0.0,0.0,0.0,0.0,0.0,0.0,0.0,0.0,0.0,0.0,0.0,0.0,0.0,0.0,0.0,0.0,0.0,0.0,0.0,0.0,0.0,0.0,0.0,0.0,0.0,0.0,0.0,0.0,0.0,0.0,0.0,0.0,0.0,0.0,0.0,0.0,-0.7898,-0.8812,-0.8783,-0.8804,-0.8804,-0.8804,-0.8305,-0.7329,-0.5806,-0.4834,0.0,0.0,0.0,0.0,0.0,0.0,0.0,0.0,0.0,0.0,0.0,0.0,0.0,0.0,0.0,0.0,0.0,0.0,0.0,0.0,0.0,0.0,0.0,0.0,0.0,0.0,0.0,0.0,0.0,0.0,0.0,0.0,0.0,0.0,0.0,0.0,0.0,0.0,0.0,0.0,0.0,0.0,0.0,0.0,0.0,0.0,0.0,0.0,0.0,0.0,0.0,0.0,0.0,0.0,0.0,0.0,0.0,0.0,0.0,0.0,0.0,0.0,0.0,0.0,0.0,0.0,0.0,0.0,0.0,0.0,0.0,0.0,0.0,0.0,0.0,0.0,0.0,0.0,0.0,0.0,0.0,0.0,0.0,0.0,0.0,0.0,0.0,0.0,0.0,0.0,0.0,0.0,0.0,0.0,0.0,0.0,0.0,0.0,0.0,0.0,0.0,0.0,-0.7381,-0.8805,-0.8803,-0.8804,-0.8804,-0.8804,-0.6801,-0.5913,-0.6823,-0.5151,0.0,0.0,0.0,0.0,0.0,0.0,0.0,0.0,0.0,0.0,0.0,0.0,0.0,0.0,0.0,0.0,0.0,0.0,0.0,0.0,0.0,0.0,0.0,0.0,0.0,0.0,0.0,0.0,0.0,0.0,0.0,0.0,0.0,0.0,0.0,0.0,0.0,0.0,0.0,0.0,0.0,0.0,0.0,0.0,0.0,0.0,0.0,0.0,0.0,0.0,0.0,0.0,0.0,0.0,0.0,0.0,0.0,0.0,0.0,0.0,0.0,0.0,0.0,0.0,0.0,0.0,0.0,0.0,0.0,0.0,0.0,0.0,0.0,0.0,0.0,0.0,0.0,0.0,0.0,0.0,0.0,0.0,0.0,0.0,0.0,0.0,0.0,0.0,0.0,0.0,0.0,0.0,0.0,0.0,0.0,0.0,0.0,0.0,0.0,0.0,0.0,0.0,-0.7794,-0.8809,0.0,-0.8804,-0.8804,-0.8804,-0.7306,-0.6454,-0.6689,0.0,0.0,0.0,0.0,0.0,0.0,0.0,0.0,0.0,0.0,0.0,0.0,0.0,0.0,0.0,0.0,0.0,0.0,0.0,0.0,0.0,0.0,0.0,0.0,0.0,0.0,0.0,0.0,0.0,0.0,0.0,0.0,0.0,0.0,0.0,0.0,0.0,0.0,0.0,0.0,0.0,0.0,0.0,0.0,0.0,0.0,0.0,0.0,0.0,0.0,0.0,0.0,0.0,0.0,0.0,0.0,0.0,0.0,0.0,0.0,0.0,0.0,0.0,0.0,0.0,0.0,0.0,0.0,0.0,0.0,0.0,0.0,0.0,0.0,0.0,0.0,0.0,0.0,0.0,0.0,0.0,0.0,0.0,0.0,0.0,0.0,0.0,0.0,0.0,0.0,0.0,0.0,0.0,0.0,0.0,0.0,0.0,0.0,0.0,0.0,0.0,0.0,-0.7187,-0.8195,-0.8751,0.0,-0.8495,-0.8514,-0.8537,-0.7511,-0.6671,-0.6323,0.0,0.0,0.0,0.0,0.0,0.0,0.0,0.0,0.0,0.0,0.0,0.0,0.0,0.0,0.0,0.0,0.0,0.0,0.0,0.0,0.0,0.0,0.0,0.0,0.0,0.0,0.0,0.0,0.0,0.0,0.0,0.0,0.0,0.0,0.0,0.0,0.0,0.0,0.0,0.0,0.0,0.0,0.0,0.0,0.0,0.0,0.0,0.0,0.0,0.0,0.0,0.0,0.0,0.0,0.0,0.0,0.0,0.0,0.0,0.0,0.0,0.0,0.0,0.0,0.0,0.0,0.0,0.0,0.0,0.0,0.0,0.0,0.0,0.0,0.0,0.0,0.0,0.0,0.0,0.0,0.0,0.0,0.0,0.0,0.0,0.0,0.0,0.0,0.0,0.0,0.0,0.0,0.0,0.0,0.0,0.0,0.0,0.0,0.0,0.0,0.0,0.0,-0.7866,-0.8401,-0.8538,-0.7941,-0.7917,-0.7914,-0.7902,-0.7033,-0.6346,0.0,0.0,0.0,0.0,0.0,0.0,0.0,0.0,0.0,0.0,0.0,0.0,0.0,0.0,0.0,0.0,0.0,0.0,0.0,0.0,0.0,0.0,0.0,0.0,0.0,0.0,0.0,0.0,0.0,0.0,0.0,0.0,0.0,0.0,0.0,0.0,0.0,0.0,0.0,0.0,0.0,0.0,0.0,0.0,0.0,0.0,0.0,0.0,0.0,0.0,0.0,0.0,0.0,0.0,0.0,0.0,0.0,0.0,0.0,0.0,0.0,0.0,0.0,0.0,0.0,0.0,0.0,0.0,0.0,0.0,0.0,0.0,0.0,0.0,0.0,0.0,0.0,0.0,0.0,0.0,0.0,0.0,0.0,0.0,0.0,0.0,0.0,0.0,0.0,0.0,0.0,0.0,0.0,0.0,0.0,0.0,0.0,0.0,0.0,0.0,0.0,0.0,0.0,-0.7425,-0.7867,-0.8087,-0.792,-0.7521,-0.7381,-0.7672,-0.716,-0.6734,-0.6402,0.0,0.0,0.0,0.0,0.0,0.0,0.0,0.0,0.0,0.0,0.0,0.0,0.0,0.0,0.0,0.0,0.0,0.0,0.0,0.0,0.0,0.0,0.0,0.0,0.0,0.0,0.0,0.0,0.0,0.0,0.0,0.0,0.0,0.0,0.0,0.0,0.0,0.0,0.0,0.0,0.0,0.0,0.0,0.0,0.0,0.0,0.0,0.0,0.0,0.0,0.0,0.0,0.0,0.0,0.0,0.0,0.0,0.0,0.0,0.0,0.0,0.0,0.0,0.0,0.0,0.0,0.0,0.0,0.0,0.0,0.0,0.0,0.0,0.0,0.0,0.0,0.0,0.0,0.0,0.0,0.0,0.0,0.0,0.0,0.0,0.0,0.0,0.0,0.0,0.0,0.0,0.0,0.0,0.0,0.0,0.0,0.0,0.0,0.0,0.0,0.0,0.0,-0.7387,-0.7651,-0.7743,-0.7729,-0.7431,-0.7235,-0.7374,-0.7147,-0.6846,-0.6453,0.0,0.0,0.0,0.0,0.0,0.0,0.0,0.0,0.0,0.0,0.0,0.0,0.0,0.0,0.0,0.0,0.0,0.0,0.0,0.0,0.0,0.0,0.0,0.0,0.0,0.0,0.0,0.0,0.0,0.0,0.0,0.0,0.0,0.0,0.0,0.0,0.0,0.0,0.0,0.0,0.0,0.0,0.0,0.0,0.0,0.0,0.0,0.0,0.0,0.0,0.0,0.0,0.0,0.0,0.0,0.0,0.0,0.0,0.0,0.0,0.0,0.0,0.0,0.0,0.0,0.0,0.0,0.0,0.0,0.0,0.0,0.0,0.0,0.0,0.0,0.0,0.0,0.0,0.0,0.0,0.0,0.0,0.0,0.0,0.0,0.0,0.0,0.0,0.0,0.0,0.0,0.0,0.0,0.0,0.0,0.0,0.0,0.0,0.0,0.0,0.0,0.0,-0.7613,-0.7559,-0.7473,-0.7473,-0.7473,-0.7315,-0.7041,-0.6979,-0.6787,-0.627,0.0,0.0,0.0,0.0,0.0,0.0,0.0,0.0,0.0,0.0,0.0,0.0,0.0,0.0,0.0,0.0,0.0,0.0,0.0,0.0,0.0,0.0,0.0,0.0,0.0,0.0,0.0,0.0,0.0,0.0,0.0,0.0,0.0,0.0,0.0,0.0,0.0,0.0,0.0,0.0,0.0,0.0,0.0,0.0,0.0,0.0,0.0,0.0,0.0,0.0,0.0,0.0,0.0,0.0,0.0,0.0,0.0,0.0,0.0,0.0,-0.8791,0.0,0.0,0.0,0.0,0.0,0.0,0.0,0.0,0.0,0.0,0.0,0.0,0.0,0.0,0.0,0.0,0.0,0.0,0.0,0.0,0.0,0.0,0.0,0.0,0.0,0.0,0.0,0.0,0.0,0.0,0.0,0.0,0.0,0.0,0.0,0.0,0.0,0.0,0.0,0.0,0.0,-0.7324,-0.727,-0.7121,-0.7121,-0.7121,-0.7094,-0.7027,-0.6979,-0.6874,-0.652,-0.5945,0.0,0.0,0.0,0.0,0.0,0.0,0.0,0.0,0.0,0.0,0.0,0.0,0.0,0.0,0.0,0.0,0.0,0.0,0.0,0.0,0.0,0.0,0.0,0.0,0.0,0.0,0.0,0.0,0.0,0.0,0.0,0.0,0.0,0.0,0.0,0.0,0.0,0.0,0.0,0.0,0.0,0.0,0.0,0.0,0.0,0.0,0.0,0.0,0.0,0.0,0.0,0.0,0.0,0.0,0.0,0.0,0.0,0.0,0.0,0.0,-0.8976,0.0,0.0,0.0,0.0,0.0,0.0,0.0,0.0,0.0,0.0,0.0,0.0,0.0,0.0,0.0,0.0,0.0,0.0,0.0,0.0,0.0,0.0,0.0,0.0,0.0,0.0,0.0,0.0,0.0,0.0,0.0,0.0,0.0,0.0,0.0,0.0,0.0,0.0,0.0,0.0,-0.7166,-0.7143,-0.6979,-0.6979,-0.6979,-0.6979,-0.6979,-0.6979,-0.6901,-0.6607,-0.6172,0.0,0.0,0.0,0.0,0.0,0.0,0.0,0.0,0.0,0.0,0.0,0.0,0.0,0.0,0.0,0.0,0.0,0.0,0.0,0.0,0.0,0.0,0.0,0.0,0.0,0.0,0.0,0.0,0.0,0.0,0.0,0.0,0.0,0.0,0.0,0.0,0.0,0.0,0.0,0.0,0.0,0.0,0.0,0.0,0.0,0.0,0.0,0.0,0.0,0.0,0.0,0.0,0.0,-1.1797,-1.2151,-1.233,-1.2734,-1.302,-1.3035,-1.0577,-0.9545,-0.9479,-0.8146,0.0,0.0,0.0,0.0,0.0,0.0,0.0,0.0,0.0,0.0,0.0,0.0,0.0,0.0,0.0,0.0,0.0,0.0,0.0,0.0,0.0,0.0,0.0,0.0,-0.7482,-0.7533,-0.6747,0.0,0.0,0.0,0.0,0.0,0.0,0.0,0.0,0.0,0.0,0.0,-0.7233,-0.7148,-0.7041,-0.7094,-0.7054,-0.6979,-0.6979,-0.6979,-0.6921,-0.668,-0.6431,-0.6048,0.0,0.0,0.0,0.0,0.0,0.0,0.0,0.0,0.0,0.0,0.0,0.0,0.0,0.0,0.0,0.0,0.0,0.0,0.0,0.0,0.0,0.0,0.0,0.0,0.0,0.0,0.0,0.0,0.0,0.0,0.0,0.0,-0.586,-0.9083,0.0,0.0,0.0,0.0,0.0,0.0,0.0,0.0,0.0,0.0,0.0,0.0,0.0,-1.0869,-1.1341,-1.2175,-1.2754,-1.3174,-1.3594,-1.3451,-1.2806,-1.286,-1.2562,-1.1867,-1.0934,0.0,-1.0664,-0.9554,0.0,0.0,0.0,0.0,0.0,0.0,0.0,0.0,0.0,0.0,0.0,0.0,0.0,0.0,0.0,0.0,0.0,0.0,0.0,0.0,0.0,0.0,-0.815,-0.819,-0.8417,-0.853,0.0,-0.7268,-0.6535,-0.6435,-0.6006,0.0,0.0,0.0,0.0,0.0,0.0,0.0,-0.781,-0.7418,-0.7121,-0.7426,-0.7174,-0.6979,-0.6979,-0.6979,-0.7001,-0.6967,-0.6693,-0.65,-0.642,-0.5645,0.0,0.0,0.0,0.0,0.0,0.0,0.0,0.0,0.0,0.0,0.0,0.0,0.0,0.0,0.0,0.0,0.0,0.0,0.0,0.0,0.0,0.0,0.0,0.0,0.0,0.0,0.0,0.0,0.0,-0.6054,-0.9133,-1.2775,-1.3705,-1.3015,0.0,0.0,0.0,0.0,0.0,0.0,0.0,0.0,0.0,-1.0352,-1.0615,-1.125,-1.2345,-1.2277,-1.2537,-1.3162,-1.3121,-1.2972,-1.264,-1.2845,-1.2756,-1.2404,-1.1636,-1.1244,-1.1083,-0.9824,-0.8854,-0.819,0.0,0.0,0.0,0.0,-0.7923,-0.7849,-0.8343,-0.841,-0.8147,-0.7742,0.0,0.0,0.0,0.0,0.0,0.0,0.0,0.0,0.0,0.0,-0.8864,-0.8864,-0.9085,-0.9172,-0.8717,-0.8337,-0.7889,0.0,-0.6726,-0.6384,-0.6192,0.0,0.0,0.0,0.0,-0.7118,-0.7681,-0.7592,-0.7515,-0.7513,-0.7348,-0.7201,-0.7034,-0.6979,-0.6979,-0.6979,-0.6901,-0.676,-0.6593,-0.6219,-0.5725,0.0,0.0,0.0,0.0,0.0,0.0,0.0,0.0,0.0,0.0,0.0,0.0,0.0,0.0,0.0,0.0,0.0,0.0,0.0,0.0,0.0,0.0,0.0,0.0,0.0,0.0,0.0,0.0,-0.8366,-1.2001,-1.5396,-1.5914,-1.5169,0.0,0.0,0.0,0.0,0.0,0.0,-1.1196,-1.0637,-1.0593,-1.1169,-1.1005,-1.1514,-1.2788,-1.2255,-1.2347,-1.3029,-1.289,-1.2651,-1.2485,-1.2803,-1.2782,-1.2531,-1.1963,-1.157,-1.1232,-0.9959,-0.9292,-0.9011,-0.8791,-0.8577,-0.843,-0.8871,-0.8898,-0.8804,-0.9459,-0.9539,-0.9285,-0.8851,-0.8657,-0.8521,-0.7975,0.0,0.0,0.0,0.0,-0.8625,-0.8703,-0.9031,-0.9352,-0.9352,-0.9519,-0.9566,-0.9125,-0.9198,-0.9025,0.0,-0.7522,-0.7235,-0.6841,0.0,0.0,0.0,0.0,-0.7635,-0.7836,-0.7876,-0.7869,-0.7762,-0.7607,-0.7375,-0.7154,-0.7068,-0.6979,-0.6979,-0.6979,-0.6927,-0.6707,-0.6627,-0.6246,-0.5551,0.0,0.0,0.0,0.0,0.0,0.0,0.0,0.0,0.0,0.0,0.0,0.0,0.0,0.0,0.0,0.0,0.0,0.0,0.0,0.0,0.0,0.0,0.0,0.0,0.0,0.0,0.0,0.0,0.0,-1.558,-1.62,0.0,0.0,0.0,0.0,-1.4132,-1.3274,-1.2644,-1.2321,-1.1795,-1.1575,-1.1685,-1.167,-1.1922,-1.2447,-1.2666,-1.294,-1.34,-1.3705,-1.3423,-1.2714,-1.2729,-1.2258,-1.1512,-1.1444,-1.1438,-1.1357,-1.0428,-0.99,-0.9639,-0.9619,-0.9606,-0.9599,-0.9626,-0.9626,-0.9626,-0.9666,-0.9673,-0.9659,-0.9626,-0.9426,-0.924,-0.9778,-1.0034,0.0,0.0,-1.0228,-1.0428,-0.9778,-0.9639,-0.9659,-0.9659,-0.9673,-0.9679,-0.9646,-0.9653,-0.9399,0.0,-0.8317,-0.8297,-0.8319,0.0,-0.7956,-0.8223,-0.8063,-0.811,-0.8671,-0.827,-0.8036,-0.8303,-0.7856,-0.7506,-0.7486,-0.7188,-0.6979,-0.6979,-0.6979,-0.7014,-0.7001,-0.6734,-0.6478,-0.6156,-0.5584,0.0,0.0,0.0,0.0,0.0,0.0,0.0,0.0,0.0,0.0,0.0,0.0,0.0,0.0,0.0,0.0,0.0,0.0,0.0,0.0,0.0,0.0,0.0,0.0,0.0,0.0,0.0,0.0,-1.602,-1.6411,0.0,-1.6386,-1.5221,-1.4525,-1.4648,-1.3837,-1.316,-1.2736,-1.2148,-1.1734,-1.163,-1.1247,-1.1512,-1.2572,-1.2102,-1.2277,-1.2925,-1.2505,-1.2158,-1.1833,-1.1833,-1.1696,-1.1423,-1.1423,-1.1423,-1.1403,-1.1089,-1.0788,-1.0528,-1.0528,-1.0294,-0.9987,-1.0174,-1.0127,-0.9993,-1.018,-1.0309,-1.0214,-1.0027,-0.9766,-0.9583,-0.9804,-0.9854,-0.9917,-0.9861,-1.0075,-1.0244,-1.002,-1.0107,-1.0309,-1.0309,-1.0309,-1.0194,-1.0,-0.996,-0.9813,-0.9312,-0.8911,-0.8597,-0.841,-0.8283,-0.8183,-0.8103,-0.8323,-0.8504,-0.8524,-0.851,-0.8464,-0.8383,-0.8232,-0.7936,-0.7547,-0.7368,-0.7228,-0.7034,-0.6979,-0.6979,-0.6979,-0.6921,-0.6565,-0.5896,-0.5682,-0.4973,0.0,0.0,0.0,0.0,0.0,0.0,0.0,0.0,0.0,0.0,0.0,0.0,0.0,0.0,0.0,0.0,0.0,0.0,0.0,0.0,0.0,0.0,0.0,0.0,0.0,0.0,-1.3818,-1.58,-1.6283,-1.6452,-1.6359,-1.5643,-1.5101,-1.4998,-1.4414,-1.3728,-1.2805,-1.2379,-1.1957,-1.1432,-1.1047,-1.13,-1.2233,-1.1799,-1.1847,-1.2405,-1.1949,-1.1724,-1.1724,-1.1724,-1.1724,-1.1724,-1.1724,-1.1724,-1.1724,-1.1724,-1.161,-1.1416,-1.1216,-1.0902,-1.0581,-1.0782,-1.0728,-1.0588,-1.0782,-1.0855,-1.0822,-1.0621,-1.0428,-1.0274,-1.0274,-1.0274,-1.0274,-1.0274,-1.0341,-1.0414,-1.0414,-1.0488,-1.0624,-1.0624,-1.0624,-1.0571,-1.0307,-1.0267,-1.018,-0.9886,-0.9432,-0.9011,-0.8717,-0.8664,-0.8571,-0.827,-0.8557,-0.8738,-0.8544,-0.8691,-0.8738,-0.8544,-0.843,-0.817,-0.7669,-0.7622,-0.7448,-0.7047,-0.7114,-0.7128,-0.7027,-0.6816,-0.6514,-0.5997,-0.5795,-0.5213,-0.4238,0.0,0.0,0.0,0.0,0.0,0.0,0.0,0.0,0.0,0.0,0.0,0.0,0.0,0.0,0.0,0.0,0.0,0.0,0.0,0.0,0.0,0.0,0.0,-1.2334,-1.3009,-1.3611,-1.4965,-1.5927,-1.6384,-1.6182,-1.6726,-1.6528,-1.5258,-1.5112,-1.4282,-1.2547,-1.2671,-1.2281,-1.1075,-1.1289,-1.1443,-1.145,-1.1737,-1.1884,-1.1891,-1.2171,-1.2305,-1.2305,-1.2305,-1.2305,-1.2305,-1.2305,-1.2305,-1.2305,-1.2305,-1.2305,-1.2245,-1.1677,-1.145,-1.1443,-1.1443,-1.143,-1.1423,-1.1423,-1.1423,-1.1423,-1.1423,-1.1423,-1.1423,-1.1423,-1.1423,-1.1423,-1.1423,-1.1223,-1.1002,-1.0995,-1.0782,-1.0631,-1.0624,-1.0624,-1.0624,-1.0624,-1.0624,-1.0474,-1.0187,-0.9907,-0.9613,-0.925,-0.9196,-0.9097,-0.8864,-0.8824,0.0,-0.8804,-0.8804,-0.8804,-0.8804,-0.8557,-0.8263,-0.7908,-0.7888,-0.7636,-0.7018,-0.7301,-0.7335,-0.7034,-0.6526,-0.6366,-0.6607,-0.5989,-0.5684,-0.5677,0.0,0.0,0.0,0.0,0.0,0.0,0.0,0.0,0.0,0.0,0.0,0.0,0.0,0.0,0.0,0.0,0.0,0.0,0.0,0.0,0.0,0.0,-0.9399,-1.2451,-1.5783,-1.7454,-1.6176,-1.7239,-1.7937,-1.7634,-1.6906,-1.6424,-1.6315,-1.5058,-1.3992,-1.3161,-1.2899,-1.2394,-1.1686,-1.1703,-1.185,-1.2058,-1.2144,-1.2184,-1.2184,-1.2265,-1.2305,-1.2305,-1.2305,-1.2305,-1.2305,-1.2305,-1.2305,-1.2305,-1.2305,-1.2305,-1.2285,-1.2124,-1.1931,-1.175,-1.175,-1.161,-1.1423,-1.1423,-1.1423,-1.1423,-1.1423,-1.1423,-1.1423,-1.1423,-1.1423,-1.1423,-1.1423,-1.1369,-1.1263,-1.1049,-1.0935,-1.0822,-1.0672,-1.0624,-1.0624,-1.0624,-1.0624,-1.0598,-1.0454,-1.0374,-1.016,-0.9653,-0.9559,-0.9459,-0.9165,-0.9064,0.0,-0.8838,-0.8804,-0.8804,-0.8804,-0.8738,-0.8484,-0.7928,-0.813,-0.7903,-0.7074,-0.7301,-0.7335,-0.7034,-0.7098,-0.7078,-0.6907,-0.5716,-0.5204,0.0,0.0,0.0,0.0,0.0,0.0,0.0,0.0,0.0,0.0,0.0,0.0,0.0,0.0,0.0,0.0,0.0,0.0,0.0,0.0,0.0,0.0,-0.7096,-1.0134,-1.1835,-1.5068,-1.7051,-1.6374,-1.7581,-1.8363,-1.8081,-1.7287,-1.6653,-1.6385,-1.5067,-1.395,-1.3178,-1.2938,-1.2589,-1.1935,-1.1991,-1.2131,-1.2305,-1.2305,-1.2305,-1.2305,-1.2305,-1.2305,-1.2305,-1.2305,-1.2305,-1.2305,-1.2305,-1.2305,-1.2305,-1.2305,-1.2305,0.0,0.0,0.0,0.0,0.0,-1.1944,-1.1797,-1.1797,-1.1797,-1.1797,-1.1797,-1.1797,-1.1797,-1.1797,-1.1797,-1.1797,-1.1797,-1.1703,-1.1577,-1.1403,-1.1269,-1.1102,-1.0808,-1.0742,-1.0708,-1.0651,-1.0624,-1.0624,-1.0624,-1.0624,0.0,-1.0114,-0.9947,-0.9726,-0.925,-0.9183,-0.9084,-0.8844,-0.8804,-0.8804,-0.8804,-0.8804,-0.8617,-0.8156,-0.8277,0.0,0.0,0.0,-0.73,-0.6867,-0.7242,0.0,0.0,0.0,0.0,0.0,0.0,0.0,0.0,-0.5093,-0.4911,0.0,0.0,0.0,0.0,0.0,0.0,0.0,0.0,0.0,0.0,0.0,0.0,0.0,0.0,0.0,0.0,-0.8101,-1.0668,-1.1232,-1.2943,-1.4722,-1.6216,-1.7564,-1.8343,-1.8229,-1.7901,-1.7231,-1.6028,-1.5118,-1.4089,-1.2818,0.0,0.0,0.0,0.0,-1.2305,-1.2305,-1.2305,-1.2305,-1.2305,-1.2305,-1.2305,-1.2305,-1.2305,-1.2305,-1.2305,-1.2305,-1.2305,-1.2305,-1.2338,-1.2351,-1.2351,-1.2318,-1.2305,-1.2305,-1.2305,-1.2305,-1.2305,-1.2305,0.0,0.0,-1.2305,-1.2305,-1.2305,-1.2305,-1.2305,-1.2305,-1.2305,-1.2118,-1.1911,-1.1877,-1.167,-1.1403,-1.1109,-1.1015,-1.0922,-1.0732,-1.0645,-1.0624,-1.0624,-1.0624,-1.0624,-1.0624,-1.0341,-0.998,-0.9369,-0.9283,-0.917,-0.8898,-0.8858,-0.8844,-0.8811,0.0,0.0,-0.8397,-0.8404,-0.8212,-0.76,-0.7527,-0.7238,-0.6742,-0.7167,-0.7328,-0.7139,-0.7038,-0.7154,-0.7459,-0.7154,-0.6887,-0.662,-0.5805,-0.5551,0.0,0.0,0.0,0.0,0.0,0.0,0.0,0.0,0.0,0.0,0.0,0.0,0.0,0.0,0.0,-0.7535,-0.8982,-1.0767,-1.3591,-1.5321,-1.6616,-1.7494,-1.9158,-2.0278,-2.0215,-1.916,-1.7943,-1.6781,-1.5034,-1.3741,-1.3085,-1.2627,-1.2364,-1.2218,-1.2271,-1.2305,-1.2305,-1.2305,-1.2305,-1.2305,0.0,0.0,-1.2305,-1.2305,-1.2305,-1.2305,-1.2305,-1.2305,-1.2318,-1.2559,-1.2735,-1.2714,-1.2398,-1.2305,-1.2305,-1.2305,-1.2305,-1.2305,-1.2305,-1.2305,-1.2305,-1.2305,-1.2305,-1.2305,-1.2305,-1.2305,0.0,-1.2305,-1.2265,-1.2164,-1.1931,-1.1824,-1.171,-1.141,-1.1162,-1.0982,-1.0922,-1.0728,-1.0624,-1.0624,-1.0624,-1.0624,-1.0624,-1.0577,-1.0354,-1.0,-0.9947,-0.9753,-0.917,-0.9103,-0.9065,-0.8831,-0.8804,-0.8691,-0.8397,-0.8591,-0.847,-0.7876,-0.7609,-0.7468,-0.7334,-0.7191,-0.7204,-0.7406,-0.7158,-0.7054,-0.7108,-0.7054,-0.6994,-0.6927,-0.652,-0.6277,0.0,0.0,0.0,0.0,0.0,0.0,0.0,0.0,0.0,0.0,0.0,-0.6148,-0.6196,0.0,-0.7916,-0.9033,-1.0577,-1.2393,-1.4385,-1.6425,-1.7993,-1.8729,-2.0237,-2.1113,-2.0845,-1.9664,-1.8216,-1.6638,-1.5062,-1.3768,-1.2784,-1.2437,-1.2305,-1.2305,-1.2305,-1.2305,-1.2305,-1.2305,-1.2305,-1.2305,-1.2305,-1.2305,-1.2305,-1.2305,-1.2305,-1.2311,-1.2458,-1.2525,-1.2552,-1.2852,-1.2979,-1.2946,-1.2645,-1.2432,-1.2305,-1.2305,-1.2305,-1.2305,-1.2305,-1.2305,-1.2305,-1.2305,-1.2305,-1.2305,-1.2305,-1.2305,-1.2305,-1.2305,-1.2305,-1.2271,-1.2124,-1.2084,-1.2011,-1.1717,-1.1423,-1.1169,-1.1022,-1.0768,-1.0624,-1.0624,-1.0624,-1.0624,-1.0624,-1.0624,-1.0461,-1.016,-1.0114,-0.9953,-0.9519,-0.9276,-0.913,-0.9038,-0.8891,-0.8751,-0.8604,-0.8591,-0.8404,-0.7915,-0.7923,-0.797,-0.797,-0.7782,-0.7769,-0.7963,-0.7475,-0.7241,-0.7241,-0.7094,-0.6979,-0.6979,-0.6874,-0.6727,0.0,0.0,0.0,0.0,0.0,0.0,0.0,0.0,-0.8666,-1.0446,-0.9564,-0.8718,-0.9448,-1.0294,-1.0809,-1.0467,-1.227,-1.41,-1.518,-1.7415,-1.9241,-2.018,-2.1253,-2.1663,-2.1028,-2.0005,-1.8498,-1.6292,-1.5138,-1.3871,-1.2358,-1.2305,-1.2305,-1.2305,-1.2305,-1.2305,-1.2305,-1.2305,-1.2331,-1.2385,-1.2385,-1.2418,-1.2478,-1.2478,-1.2478,-1.2492,-1.2732,-1.2943,-1.2939,-1.3126,-1.324,-1.3267,-1.2959,-1.2652,-1.2378,-1.2325,-1.2305,-1.2305,-1.2305,-1.2305,-1.2305,-1.2305,-1.2305,-1.2305,-1.2305,-1.2305,-1.2305,-1.2305,-1.2305,-1.2305,-1.2305,-1.2305,-1.2245,-1.2011,-1.173,-1.145,-1.1216,-1.0889,-1.0705,-1.0705,-1.0665,-1.0624,-1.0624,-1.0624,-1.0481,-1.0241,-1.02,-1.0094,-0.9806,-0.9559,-0.9309,-0.9196,-0.9031,-0.8871,-0.8811,-0.8597,-0.833,-0.8036,-0.8243,-0.835,-0.829,-0.829,-0.829,-0.829,-0.7809,-0.7555,-0.7555,-0.7315,-0.7158,-0.7158,-0.7158,-0.7092,-1.2842,-1.2712,-1.3144,-1.4935,-1.1666,-0.8299,0.0,0.0,-1.2296,-1.2548,-1.325,-1.3567,-1.2599,-1.2168,-1.2228,-1.3195,-1.3605,-1.4706,-1.7291,-1.922,-2.0868,-2.2193,-2.2498,-2.2346,-2.1663,-2.0669,-1.8995,-1.6292,-1.5138,-1.3871,-1.2358,-1.2305,-1.2305,-1.2305,-1.2305,-1.2305,-1.2305,-1.2305,-1.2438,-1.2775,-1.2775,-1.2839,-1.3106,-1.3106,-1.3106,-1.3113,-1.3146,-1.3307,-1.3527,-1.33,-1.336,-1.3567,-1.3273,-1.2973,-1.2741,-1.2398,-1.2305,-1.2305,-1.2305,-1.2305,-1.2305,-1.2305,-1.2305,-1.2305,-1.2305,-1.2305,-1.2305,-1.2305,-1.2305,-1.2305,-1.2305,-1.2305,-1.2291,-1.2265,-1.2031,-1.181,-1.1777,-1.1336,-1.0949,-1.0949,-1.0735,-1.0624,-1.0624,-1.0624,-1.0611,-1.0577,-1.0514,-1.0408,-1.0107,-1.004,-0.982,-0.9236,-0.9157,-0.903,-0.8831,-0.8778,-0.8631,-0.8343,-0.8357,-0.8257,-0.7989,-0.7976,-0.7976,-0.7976,-0.7916,-0.7876,-0.7876,-0.7795,-0.7782,-0.7782,-0.7782,-0.749,-1.3221,-1.274,-1.2794,0.0,-1.4167,-1.2649,-1.202,-1.2946,-1.3941,-1.395,-1.4372,-1.456,-1.4179,-1.412,-1.4212,0.0,-1.4908,-1.6001,-1.8036,-1.937,-2.046,-2.1531,-2.1569,-2.1343,-2.1102,-2.0441,-1.8733,-1.5668,-1.5103,-1.4151,-1.2365,-1.2305,-1.2305,-1.2305,-1.2305,-1.2305,-1.2305,-1.2305,-1.2452,-1.2822,-1.2822,-1.2913,-1.3213,-1.3213,-1.3307,-1.346,-1.346,-1.3627,-1.3895,-1.3774,-1.3788,-1.3874,-1.3574,-1.3387,-1.3213,-1.2732,-1.2452,-1.2305,-1.2305,-1.2305,-1.2305,-1.2305,-1.2305,-1.2305,-1.2305,-1.2305,-1.2305,-1.2305,-1.2305,-1.2305,-1.2305,-1.2305,-1.2305,-1.2305,-1.2084,-1.187,-1.187,-1.1536,-1.1196,-1.1022,-1.0895,-1.0755,-1.0651,-1.0624,-1.0624,-1.0624,-1.0624,-1.0577,-1.0388,-1.0221,-0.9893,-0.9243,-0.9183,-0.9064,-0.8831,-0.8804,-0.8758,-0.8637,-0.8624,-0.8571,-0.8444,-0.8277,-0.819,-0.819,-0.7563,-0.7481,-0.7882,-0.7481,-0.7481,-0.7882,-0.7882,-0.7749,-1.3056,-1.2596,0.0,-1.4072,-1.532,-1.5812,-1.431,-1.4432,-1.492,-1.5124,-1.5184,-1.5207,-1.5351,-1.5561,-1.5585,-1.5126,-1.555,-1.6477,-1.8047,-1.8598,-1.9258,-2.0214,-2.0053,-1.9759,-1.9547,-1.9449,-1.8278,-1.5597,-1.5172,-1.4198,-1.2352,-1.2291,-1.215,-1.1922,-1.215,-1.2345,-1.2425,-1.2425,-1.2619,-1.2993,-1.2993,-1.3153,-1.3454,-1.3454,-1.3567,-1.3768,-1.3768,-1.3888,-1.4088,-1.4088,-1.4088,-1.4068,-1.3848,-1.3714,-1.3587,-1.3153,-1.2806,-1.2552,-1.2552,-1.2552,-1.2552,-1.2552,-1.2498,-1.2425,-1.2425,-1.2365,-1.2305,-1.2305,-1.2305,-1.2305,-1.2305,-1.2305,-1.2305,-1.2305,-1.2138,-1.1991,-1.1991,-1.1757,-1.1483,-1.1276,-1.1169,-1.0956,-1.0471,-1.0547,-1.0584,-1.0314,-1.0434,-1.0624,-1.0624,-1.0301,-0.9953,-0.9469,-0.9276,-0.9097,-0.8945,-0.8851,-0.8804,-0.8804,-0.8804,-0.8804,-0.8804,-0.8604,-0.8388,-0.8229,-0.7454,-0.7203,-0.7518,-0.7203,-0.7302,-0.7869,-0.8072,-0.817,-1.2714,0.0,-1.3888,-1.3386,-1.4362,-1.5591,-1.6225,-1.5825,-1.5496,-1.6205,-1.6343,-1.6311,-1.6266,-1.6167,-1.5997,-1.5714,-1.513,-1.5395,-1.7157,-1.7066,-1.7326,-1.878,-1.8376,-1.771,0.0,-1.7667,-1.7637,-1.6447,-1.5199,-1.3855,-1.2284,-1.2278,-1.1848,-1.0864,-1.1774,-1.2438,-1.2808,-1.2808,-1.3026,-1.3614,-1.3614,-1.3774,-1.4062,-1.4062,-1.4068,-1.4075,-1.4075,-1.4082,-1.4088,-1.4088,-1.4088,-1.4088,-1.4075,-1.3901,-1.3641,-1.3539,-1.3427,-1.318,-1.318,-1.318,-1.318,-1.318,-1.2979,-1.2808,-1.2808,-1.2532,-1.2305,-1.2305,-1.2305,-1.2305,-1.2305,-1.2305,-1.2305,-1.2305,-1.2291,-1.2285,-1.2285,-1.2058,-1.1857,-1.1844,-1.161,-1.1044,-0.9886,-1.0447,-1.0621,-0.9502,-1.0047,-1.0624,-1.0624,-1.0301,-1.0107,-1.0087,-0.9522,-0.9183,-0.9176,-0.8971,-0.8804,-0.8804,-0.8804,-0.8804,-0.8804,-0.8798,-0.8468,-0.7711,-0.77,-0.732,-0.6622,-0.732,-0.77,-0.77,-0.8455,-0.8784,-1.4479,0.0,-1.4647,-1.5234,-1.5504,-1.5762,-1.6311,-1.6536,-1.6687,-1.6883,-1.698,-1.6983,-1.6905,-1.6559,-1.602,-1.5103,-1.48,-1.4795,-1.5156,-1.5542,-1.6014,-1.6624,-1.6882,0.0,0.0,0.0,0.0,-1.5779,-1.4941,-1.3847,-1.2284,-1.2278,-1.1842,-1.0858,-1.1768,-1.2445,-1.2822,-1.2822,-1.3046,-1.3566,-1.3841,-1.3988,-1.4088,-1.4088,-1.4088,-1.4088,-1.4088,-1.4088,-1.4088,-1.4088,-1.4088,-1.4088,-1.4088,-1.4021,-1.3941,-1.3941,-1.3874,-1.3734,-1.3347,-1.3213,-1.3213,-1.3213,-1.314,-1.3053,-1.3053,-1.2839,-1.2599,-1.2599,-1.2452,-1.2305,-1.2305,-1.2305,-1.2305,-1.2305,-1.2305,-1.2305,-1.2305,-1.2225,-1.1946,-1.1097,-1.0842,-1.0283,-0.8904,-0.9438,-1.0023,-1.0149,-1.0428,-1.0624,-1.0624,-1.0474,-1.0334,-1.014,-0.994,-0.9666,-0.9216,-0.9097,-0.9011,-0.8818,-0.8804,-0.8804,-0.8804,-0.8804,-0.848,-0.7723,-0.7235,-0.6858,-0.6588,-0.6858,-0.7235,-0.7723,-0.848,-0.8804,-1.5543,-1.5405,-1.5517,-1.6308,-1.6374,-1.6335,-1.6667,-1.6963,-1.7277,-1.7491,-1.7223,-1.6996,-1.7154,-1.6225,-1.5127,-1.4317,-1.3641,-1.3292,-1.328,-1.3593,-1.3932,-1.4419,-1.5064,-1.5332,0.0,0.0,0.0,-1.5817,-1.5016,-1.3979,-1.2774,-1.2418,-1.1842,-1.0858,-1.1768,-1.2498,-1.2906,-1.2913,-1.3206,-1.3808,-1.3995,-1.4088,-1.4088,-1.4088,-1.4088,-1.4088,-1.4088,-1.4088,-1.4088,-1.4088,-1.4088,-1.4088,-1.4088,-1.4088,-1.4088,-1.4088,-1.4088,-1.4035,-1.3654,-1.3527,-1.3527,-1.3527,-1.3454,-1.3367,-1.3367,-1.3153,-1.2886,-1.2856,-1.2605,-1.2438,-1.2325,-1.2305,-1.2305,-1.2305,-1.2305,-1.2224,-1.1842,-1.1768,-1.1421,-1.0211,-1.0036,-0.954,-0.8178,-0.8533,-0.9285,-1.0015,-1.0428,-1.0624,-1.0624,-1.0624,-1.0551,-1.0294,-1.018,-0.996,-0.9528,-0.9303,-0.9103,-0.8971,-0.8864,-0.8804,-0.8804,-0.8533,-0.8049,-0.7343,-0.6583,-0.6095,-0.5828,-0.6372,-0.6858,-0.7343,-0.8321,-0.8804,-1.5918,-1.6087,-1.6532,-1.652,-1.6903,-1.7258,-1.7272,-1.7168,-1.7273,-1.7899,-1.7125,-1.645,0.0,0.0,-1.3557,-1.3317,-1.1834,-1.0959,-1.1591,-1.1367,-1.1428,0.0,0.0,0.0,0.0,0.0,0.0,-1.6636,0.0,-1.4303,-1.3603,-1.2837,-1.1916,-1.0858,-1.1787,-1.2612,-1.32,-1.324,-1.3534,-1.4088,-1.4088,-1.4088,-1.4088,-1.4088,-1.4088,-1.4088,-1.4088,-1.4088,-1.4088,-1.4088,-1.4088,-1.4088,-1.4088,-1.4088,-1.4088,-1.4088,-1.4088,-1.4088,-1.4088,-1.4088,-1.4088,-1.4088,-1.3895,-1.3667,-1.3667,-1.3467,-1.3173,-1.2872,-1.2856,-1.2775,-1.2405,-1.2325,-1.2318,-1.2305,-1.2224,-1.1996,-1.1013,-1.0783,-1.0415,-0.9448,-0.914,-0.876,-0.7673,-0.7887,-0.843,-0.9197,-1.0053,-1.0624,-1.0624,-1.0624,-1.0624,-1.0624,-1.0307,-1.0134,-1.0114,-0.9593,-0.9203,-0.9128,-0.8911,-0.8752,-0.8699,-0.799,-0.7289,-0.6534,-0.5873,-0.5164,-0.4519,-0.5932,-0.6588,-0.6642,-0.8103,-0.8804,-1.736,-1.7107,-1.6962,-1.7063,-1.6889,-1.668,-1.6691,-1.701,-1.7195,-1.6955,-1.6654,-1.6112,0.0,0.0,0.0,-1.1598,-1.1415,0.0,-1.0646,-1.1189,0.0,-1.217,0.0,-1.3808,-1.4782,-1.5423,0.0,0.0,-1.5927,-1.4656,-1.3667,-1.3411,-1.2565,-1.0858,-1.2054,-1.2819,-1.3206,-1.3647,-1.3941,-1.4088,-1.4088,-1.4088,-1.4088,-1.4088,-1.4088,-1.4088,-1.4088,-1.4088,-1.4088,-1.4088,-1.4088,-1.4088,-1.4088,-1.4088,-1.4088,-1.4088,-1.4088,-1.4088,-1.4088,-1.4088,-1.4088,-1.4088,-1.4035,-1.3975,-1.3975,-1.3768,-1.3514,-1.344,-1.326,-1.3019,-1.2712,-1.2708,-1.2579,-1.2351,-1.1694,-1.1087,-1.0864,-1.019,-0.9367,-0.8389,-0.7442,-0.6962,-0.7274,-0.7817,-0.8482,-0.9357,-1.0109,-1.0624,-1.0624,-1.0624,-1.0624,-1.0624,-1.0494,-1.0354,-1.0134,-0.978,-0.9245,-0.8521,-0.8142,-0.7723,-0.7182,-0.6966,-0.6529,-0.5814,-0.5597,-0.5164,-0.4519,-0.5932,-0.6588,-0.6642,-0.8103,-0.8804,-1.7892,-1.7553,-1.7222,-1.7274,-1.6894,-1.6499,-1.6481,-1.6502,-1.6356,-1.5872,-1.5542,0.0,-1.3314,0.0,0.0,0.0,0.0,0.0,-1.0594,-1.0972,-1.1479,0.0,-1.287,0.0,-1.5043,-1.5827,-1.6543,0.0,-1.642,-1.5394,-1.4364,-1.3932,-1.3011,-1.1539,-1.2159,-1.2766,-1.3206,-1.3794,-1.4088,-1.4088,-1.4088,-1.4088,-1.4088,-1.4088,-1.4088,-1.4088,0.0,-1.4088,-1.4088,-1.4088,-1.4088,-1.4088,-1.4088,-1.4088,-1.4088,-1.4088,-1.4088,-1.4088,-1.4088,-1.4088,-1.4088,-1.4088,-1.4088,-1.4088,-1.4088,-1.3968,-1.3808,-1.3681,-1.3527,-1.33,-1.2936,-1.2822,-1.2589,-1.1838,-1.1236,-1.0559,-0.9664,-0.9064,-0.8313,-0.7326,-0.6569,-0.6256,-0.6622,-0.7673,-0.8582,-0.8861,-0.9987,-1.0701,-1.0645,-1.0624,-1.0624,-1.0624,-1.0624,-1.0494,-1.0327,-1.004,-0.9499,-0.8504,-0.8193,-0.7611,-0.6784,-0.6396,-0.6018,-0.5487,-0.5218,-0.4897,-0.4519,-0.5605,-0.6258,-0.6642,-0.7777,-0.848,-1.7963,-1.7628,-1.7271,-1.7092,-1.6714,-1.631,-1.6114,-1.5678,-1.5134,-1.4493,0.0,-1.3272,-1.1915,-1.1823,-1.1714,-1.1075,0.0,-1.0793,-1.0983,-1.0725,-1.0829,-1.1762,-1.2822,-1.3882,-1.4953,-1.6053,-1.6922,-1.7441,-1.702,-1.6289,-1.5234,-1.4386,-1.3404,-1.2432,-1.2398,-1.2692,-1.326,-1.3814,-1.4088,-1.4088,-1.4088,-1.4088,-1.4088,-1.4088,-1.4088,-1.4088,-1.4088,-1.4088,-1.4088,-1.4088,-1.3997,-1.3906,-1.3997,-1.3997,-1.3906,-1.3997,-1.4088,-1.4088,-1.4088,-1.3997,-1.3913,-1.4082,-1.4088,-1.4088,-1.4088,-1.4088,-1.4035,-1.3774,-1.3701,-1.3492,-1.2843,-1.2678,-1.2337,-1.0976,-1.0507,-0.9959,-0.8161,-0.7706,-0.7326,-0.649,-0.6338,-0.6217,-0.6084,-0.7577,-0.8672,-0.8304,-0.9825,-1.0902,-1.0648,-1.0651,-1.0624,-1.0624,-1.0624,-1.0624,-1.0624,-1.0287,-0.9675,-0.8734,-0.8371,-0.7788,-0.6673,-0.6036,-0.5608,-0.5419,-0.482,-0.4539,-0.4519,-0.5273,-0.5982,-0.6642,-0.7456,-0.8209,-1.8173,-1.7706,-1.705,-1.6145,-1.5811,-1.5392,-1.4064,-1.403,0.0,0.0,-1.2461,-1.232,-1.1239,-1.1388,-1.1462,-1.0766,0.0,0.0,0.0,0.0,-1.0671,0.0,0.0,0.0,0.0,0.0,0.0,0.0,0.0,-1.701,-1.5305,-1.5021,-1.4294,-1.2735,-1.2919,-1.322,-1.3567,-1.3915,-1.4088,-1.4088,-1.4088,-1.4088,-1.4088,-1.4088,-1.4088,-1.4088,-1.4088,0.0,-1.4088,-1.4088,-1.347,-1.2681,-1.373,-1.347,-1.276,-1.373,-1.4088,-1.4088,-1.4088,-1.347,-1.2766,-1.3822,-1.4088,-1.4088,-1.4088,-1.4088,-1.4075,-1.4021,-1.4008,-1.3671,-1.2398,-1.1986,-1.152,-1.0078,-0.9038,-0.8232,-0.7859,-0.7176,-0.649,-0.6338,-0.6338,-0.6251,-0.6227,-0.7667,-0.8772,-0.8697,-0.9977,-1.0975,-1.0922,-1.0708,-1.0624,-1.0624,-1.0624,-1.0624,-1.0624,-1.0287,-0.9486,-0.7989,-0.7652,-0.6804,-0.5295,-0.5115,-0.4981,-0.4822,-0.4707,-0.4589,-0.4519,-0.5769,-0.6475,-0.6642,-0.799,-0.8699,-1.7675,-1.7236,-1.6621,-1.5569,-1.5066,-1.4464,-1.3124,0.0,0.0,0.0,-1.161,-1.1542,-1.0094,0.0,0.0,0.0,0.0,0.0,0.0,0.0,0.0,0.0,0.0,0.0,0.0,0.0,0.0,0.0,0.0,-1.6645,-1.5305,-1.4235,-1.3375,-1.2587,-1.2966,-1.2948,-1.25,-1.3605,-1.3822,-1.3203,-1.3822,-1.4088,-1.4088,-1.4088,-1.4088,-1.4088,-1.4088,-1.4088,-1.4088,-1.4088,-1.3737,-1.3203,-1.3203,-1.2851,-1.2413,-1.2942,-1.3118,-1.3294,-1.3906,-1.373,-1.3294,-1.3906,-1.3646,-1.3294,-1.3906,-1.4088,-1.4088,-1.4088,-1.3646,-1.314,-1.2864,-1.187,-1.0724,-0.9917,-0.8361,-0.7125,-0.7042,-0.6644,-0.6338,-0.6338,-0.6338,-0.649,-0.7022,-0.8152,-0.9158,-0.9545,-1.0695,-1.1336,-1.1035,-1.0868,-1.0728,-1.0638,-1.0624,-1.0624,-1.0624,-1.0428,-0.9644,-0.7985,-0.7756,-0.6844,-0.5092,-0.503,-0.4921,-0.4697,-0.4691,-0.4616,-0.4519,-0.5546,-0.6204,-0.6642,-0.7343,-0.7883,-1.7123,-1.6702,-1.6071,-1.5054,-1.434,-1.3598,-1.2417,-1.1803,0.0,0.0,-1.0928,-1.0784,-0.9238,0.0,0.0,0.0,0.0,0.0,0.0,0.0,0.0,0.0,0.0,0.0,0.0,0.0,0.0,0.0,0.0,0.0,-1.495,-1.3237,-1.2305,-1.2305,-1.2654,-1.2552,-1.189,-1.3105,-1.3379,-1.2674,-1.3646,-1.4088,-1.4088,-1.4088,-1.4088,-1.4088,-1.4088,-1.4088,-1.4088,-1.3822,-1.3561,-1.33,-1.2334,-1.1901,-1.1986,-1.2242,-1.2498,-1.2851,-1.3737,-1.3737,-1.3385,-1.3646,-1.3033,-1.2498,-1.347,-1.3561,-1.3385,-1.3385,-1.2681,-1.2026,-1.2517,-1.1244,-0.98,-0.9289,-0.7833,-0.6434,-0.6291,-0.6338,-0.6338,-0.6338,-0.6338,-0.6567,-0.7326,-0.8313,-0.9236,-1.0008,-1.0959,-1.1467,-1.1156,-1.1035,-1.0882,-1.0658,-1.0624,-1.0624,-1.0624,-1.0428,-0.9652,-0.8091,-0.7832,-0.6979,-0.5246,-0.5179,-0.5053,-0.4792,-0.4755,-0.4663,-0.4567,-0.5183,-0.5814,-0.6367,-0.6529,-0.6912,-1.727,-1.6419,-1.5425,-1.4454,-1.3663,-1.2775,-1.1313,0.0,0.0,-1.0167,-1.0058,-0.9929,-0.9509,0.0,0.0,0.0,0.0,-1.0294,0.0,0.0,0.0,0.0,0.0,0.0,0.0,0.0,0.0,0.0,0.0,0.0,-1.381,-1.2879,-1.2305,-1.2305,-1.1846,-1.2141,-1.3048,-1.2671,-1.2942,-1.3913,-1.4082,-1.4088,-1.4088,-1.4088,-1.4088,-1.4088,-1.4088,-1.4088,0.0,-1.2942,-1.1901,-1.0869,-1.0783,-1.0783,-1.0869,-1.1895,-1.3027,-1.3913,-1.4088,-1.2693,-1.1128,-1.2157,-1.2413,-1.2328,-1.2413,-1.1729,-1.0956,-1.0956,-1.0869,-1.0519,-0.9557,-0.9077,-0.8518,-0.7119,-0.6642,-0.6434,-0.6291,-0.6338,-0.6338,-0.6338,-0.6338,-0.6338,-0.6416,-0.7249,-0.8309,-0.9271,-1.0047,-1.0734,-1.1286,-1.1156,-1.0882,-1.0658,-1.0624,-1.0624,-1.0624,-0.9849,-0.9005,-0.8091,-0.7242,-0.6392,-0.5404,-0.5342,-0.526,-0.5094,-0.4962,-0.4823,-0.467,-0.5242,-0.5538,-0.5597,-0.6312,-0.6642,-1.5793,-1.5183,-1.4476,-1.3454,-1.2767,-1.2022,-1.0673,0.0,-1.0252,-0.9992,-0.9912,-0.9721,-0.9187,-0.9296,-0.9573,0.0,0.0,0.0,0.0,0.0,0.0,0.0,0.0,0.0,0.0,0.0,0.0,0.0,0.0,0.0,-1.2879,-1.2519,-1.2305,-1.2305,-1.2415,-1.2387,-1.2141,-1.3016,-1.3294,-1.3027,-1.3737,-1.4088,-1.4088,-1.4088,-1.4088,-1.4088,-1.4088,-1.373,0.0,-1.2504,-1.1638,-1.0524,-0.9836,-1.0009,-1.0611,-1.1123,-1.1992,-1.3118,-1.3822,-1.3033,-1.1724,-1.2151,-1.1381,-1.0351,-1.1037,-1.095,-1.0611,-1.0611,-1.0096,-0.9666,-0.9836,-0.9343,-0.8375,-0.6983,-0.6539,-0.6434,-0.6291,-0.6338,-0.6338,-0.6338,-0.6338,-0.649,-0.7099,-0.7557,-0.8161,-0.9145,-1.0032,-1.0688,-1.0787,-1.1229,-1.1132,-1.0143,-0.9885,-0.9786,-0.9786,-0.9005,-0.8156,-0.7242,-0.6915,-0.6334,-0.5428,-0.5428,-0.5287,-0.5135,-0.5077,-0.4972,-0.4826,-0.5459,-0.5827,-0.5822,-0.5997,-0.6113,-1.4935,-1.4375,-1.3621,-1.2821,-1.2239,-1.1548,0.0,-1.0209,-1.024,-0.996,-0.9905,-0.9686,-0.8926,-0.9068,-0.9323,-0.9412,-0.9069,-0.9298,-1.0717,0.0,0.0,0.0,0.0,0.0,0.0,0.0,0.0,0.0,0.0,0.0,-1.2305,-1.2305,-1.2305,-1.2305,-1.2485,-1.2346,-1.1854,-1.2896,-1.3174,-1.2734,-1.3691,-1.4088,-1.4088,-1.373,-1.3737,-1.4088,-1.373,-1.3118,0.0,-1.1901,-1.1128,-1.0009,-0.9235,-0.9579,-1.0611,-1.0956,-1.1638,-1.2413,-1.3288,-1.2595,-1.1295,-1.1295,-1.0005,-0.8536,-0.9314,-0.957,-0.957,-0.957,-0.8969,-0.8536,-0.9314,-0.8828,-0.7893,-0.6899,-0.6583,-0.6434,-0.6291,-0.6338,-0.6338,-0.6338,-0.6338,-0.649,-0.7249,-0.7326,-0.7706,-0.8694,-0.9442,-1.0021,-1.0364,-1.0767,-1.0637,-0.9775,-0.9025,-0.8695,-0.8888,-0.8091,-0.7372,-0.6719,-0.6461,-0.6009,-0.5428,-0.5428,-0.5311,-0.5203,-0.5152,-0.5081,-0.4982,-0.5419,-0.5695,-0.5691,-0.5569,-0.551,-1.5196,-1.4275,-1.3107,-1.2704,-1.2149,-1.1432,-1.0354,-1.0464,-1.0618,-1.0013,-0.9905,-0.9686,-0.8926,-0.8789,-0.8865,-0.9001,-0.8883,0.0,-1.1334,0.0,0.0,0.0,0.0,0.0,0.0,0.0,0.0,0.0,0.0,0.0,-1.2305,-1.2305,-1.2305,-1.2305,-1.1505,-1.1575,-1.2752,-1.2184,-1.2459,-1.3572,-1.3948,-1.4088,-1.4088,-1.2851,-1.2942,-1.3997,-1.2851,-1.2328,0.0,-1.1037,-0.9923,-0.889,-0.889,-0.9579,-1.0783,-1.1901,-1.2322,-1.2328,-1.2328,-1.0869,-0.8978,-0.8978,-0.8101,-0.7139,-0.7139,-0.7139,-0.7139,-0.7139,-0.7139,-0.7139,-0.7139,-0.7034,-0.6892,-0.6739,-0.6583,-0.6434,-0.6291,-0.6338,-0.6338,-0.6338,-0.6338,-0.6338,-0.6338,-0.6338,-0.6641,-0.7629,-0.7859,-0.8463,-1.0147,-0.9451,-0.9061,-0.9635,-0.802,-0.7194,-0.7982,-0.7242,-0.6719,-0.6719,-0.5881,-0.5428,-0.5428,-0.5428,-0.5428,-0.5425,-0.5209,-0.5131,-0.5128,-0.4989,-0.4918,-0.4918,-0.4918,-0.4914,-1.292,-1.2271,-1.1642,-1.1148,-1.0446,-0.9838,-0.972,-0.9822,-0.9838,-0.962,-0.9555,-0.9343,-0.8606,-0.8449,-0.8649,-0.9308,-0.936,0.0,0.0,0.0,0.0,0.0,0.0,0.0,0.0,0.0,0.0,0.0,0.0,0.0,-1.1236,-1.0645,-1.0875,-1.2224,-1.2277,-1.2433,-1.2822,-1.2818,-1.303,-1.3559,-1.354,-1.3701,-1.4075,-1.2572,-1.2164,-1.2677,-1.1478,-1.0547,-0.9804,-0.952,-0.9235,-0.889,-0.889,-1.0096,-1.1724,-1.1295,-1.1638,-1.2151,-1.1381,-1.0183,-0.889,-0.889,-0.8101,-0.7139,-0.7139,-0.7139,-0.7139,-0.7139,-0.7139,-0.7139,-0.7139,-0.6956,-0.6759,-0.6712,-0.6508,-0.6315,-0.6271,-0.6338,-0.6338,-0.6338,-0.6338,-0.6338,-0.6338,-0.6338,-0.6412,-0.6718,-0.7326,-0.7986,-0.852,-0.896,-0.8866,-0.8144,-0.7543,-0.7134,-0.7138,-0.6334,-0.5815,-0.5815,-0.5557,-0.5428,-0.5428,-0.5428,-0.5428,-0.5428,-0.5315,-0.5287,-0.5287,-0.5243,-0.5165,-0.5064,-0.5064,-0.5013,-1.1783,-1.1323,-1.0709,-1.0374,-0.9776,-0.9309,-0.9467,-0.9645,-0.9684,-0.9449,-0.9408,-0.9182,-0.8421,-0.829,-0.8478,-0.9072,-0.9111,0.0,0.0,0.0,0.0,0.0,0.0,0.0,0.0,0.0,0.0,0.0,0.0,0.0,-1.0783,-0.982,-0.99,-1.1099,-1.1715,-1.2263,-1.2579,-1.2886,-1.3126,-1.33,-1.324,-1.3239,-1.315,-1.1723,-1.1168,-1.132,-1.0151,-0.9239,0.0,-0.879,-0.8784,-0.8875,-0.9378,-1.0438,-1.1638,-1.1381,-1.1123,-1.0956,-1.0183,-0.9231,-0.8189,-0.8189,-0.7753,-0.7139,-0.7139,-0.7139,-0.7139,-0.7139,-0.7139,-0.7139,-0.7139,-0.6922,-0.6702,-0.6702,-0.6474,-0.6338,-0.6338,-0.6338,-0.6338,-0.6338,-0.6338,-0.6338,-0.6338,-0.6338,-0.6338,-0.6338,-0.6795,-0.7403,-0.7783,-0.8008,-0.7961,-0.7419,-0.6972,-0.6608,-0.6329,-0.5722,-0.5428,-0.5428,-0.5428,-0.5428,-0.5428,-0.5428,-0.5428,-0.5428,-0.5428,-0.5428,-0.5428,-0.5428,-0.5311,-0.5216,-0.5216,-0.5169,0.0,-1.1045,-1.0138,-1.0138,-0.982,-0.9489,-0.9451,-0.9776,0.0,-0.9503,-0.9408,-0.9193,-0.8464,-0.8311,-0.8363,-0.8523,0.0,0.0,0.0,0.0,0.0,0.0,0.0,0.0,0.0,0.0,0.0,0.0,0.0,0.0,-1.0714,-0.9744,-0.9221,-0.9296,-1.0265,-1.1242,-1.215,-1.2572,-1.2802,-1.2829,-1.3019,-1.2679,-1.1742,-1.0477,-0.9989,0.0,-0.8787,-0.8298,-0.8315,-0.8505,-0.8594,-0.8793,-1.0076,-1.0682,-1.0869,-1.1809,-1.0869,-0.8978,-0.8803,-0.8013,-0.7139,-0.7139,-0.7139,-0.7139,-0.7139,-0.7139,-0.7139,-0.7139,-0.7139,-0.7139,-0.7129,-0.6912,-0.6698,-0.6685,-0.6468,-0.6338,-0.6338,-0.6338,-0.6338,-0.6338,-0.6338,-0.6338,-0.6338,-0.6338,-0.6338,-0.6338,-0.6338,-0.6644,-0.7553,-0.6872,-0.6579,-0.7294,-0.6466,-0.5742,-0.5603,-0.545,-0.5428,-0.5428,-0.5428,-0.5428,-0.5428,-0.5428,-0.5428,-0.5428,-0.5428,-0.5428,-0.5428,-0.5428,-0.5428,-0.5428,-0.5428,-0.5428,-0.8953,0.0,-0.8668,-0.855,-0.8136,-0.7929,0.0,-0.9052,-0.9184,-0.9366,0.0,0.0,-0.885,-0.8521,0.0,0.0,0.0,0.0,0.0,0.0,0.0,0.0,0.0,0.0,0.0,0.0,0.0,0.0,0.0,-0.9669,-0.9669,-0.8689,-0.8542,-0.9301,-1.0265,-1.0938,-1.1162,-1.1987,-1.2518,-1.2822,-1.2585,-1.2599,-1.279,-1.0467,-0.9544,-0.9701,-0.7797,-0.6921,-0.6936,-0.7098,-0.7731,-0.878,-0.9996,-1.1048,-1.1809,-1.1209,-1.0697,-0.9918,-0.8189,-0.7316,-0.7139,-0.7139,-0.7139,-0.7139,-0.7139,-0.7139,-0.7139,-0.7139,-0.7139,-0.7115,-0.7007,-0.6841,-0.6671,-0.6552,-0.639,-0.6338,-0.6338,-0.6338,-0.6338,-0.6338,-0.6338,-0.6338,-0.6338,-0.6338,-0.6338,-0.6338,-0.6338,-0.6416,-0.6641,-0.6412,-0.6276,-0.6339,-0.6037,-0.5742,-0.5603,-0.545,-0.5428,-0.5428,-0.5428,-0.5428,-0.5428,-0.5428,-0.5428,-0.5428,-0.5428,-0.5428,-0.5428,-0.5428,-0.5428,-0.5428,-0.5428,-0.5428,-0.7425,-0.7813,-0.8144,-0.8253,-0.7692,-0.7447,-0.8798,-0.8805,0.0,0.0,0.0,0.0,0.0,0.0,0.0,0.0,0.0,0.0,0.0,0.0,0.0,0.0,0.0,0.0,0.0,0.0,0.0,0.0,0.0,-0.9965,-0.9965,-0.9064,-0.877,-0.9296,-0.982,-1.0565,-1.1465,-1.1996,-1.2385,-1.2538,-1.2378,-1.2016,-1.1379,-0.9942,-0.8904,-0.8086,-0.692,-0.6376,-0.6386,-0.6536,-0.7371,-0.8526,-0.9179,-0.9942,-1.048,-0.9909,-0.9352,-0.8767,-0.7552,-0.7139,-0.7139,-0.7139,-0.7139,-0.7139,-0.7139,-0.7139,-0.7139,-0.7139,-0.7139,-0.7105,-0.6966,-0.6814,-0.6661,-0.6508,-0.6366,-0.6338,-0.6338,-0.6338,-0.6338,-0.6338,-0.6338,-0.6338,-0.6338,-0.6338,-0.6338,-0.6338,-0.6338,-0.6338,-0.6338,-0.6338,-0.623,-0.6146,-0.6,-0.5847,-0.5698,-0.5552,-0.5437,-0.5432,-0.5428,-0.5428,-0.5428,-0.5428,-0.5428,-0.5428,-0.5428,-0.5428,-0.5428,-0.5428,-0.5428,-0.5428,-0.5428,-0.5428,-0.671,-0.7342,-0.8028,-0.8305,-0.7748,-0.7487,-0.904,0.0,0.0,0.0,0.0,0.0,0.0,0.0,0.0,0.0,0.0,0.0,0.0,0.0,0.0,0.0,0.0,0.0,0.0,0.0,0.0,0.0,0.0,-1.073,-1.073,-0.9948,-0.9518,-0.9518,-0.9518,-1.0346,-1.2077,-1.207,-1.207,-1.207,-1.207,-1.1174,-0.9523,-0.9221,-0.8161,-0.649,0.0,0.0,-0.6349,-0.639,-0.7085,-0.7991,-0.8218,-0.8376,-0.8423,-0.8619,-0.8021,-0.7204,-0.7088,-0.7139,-0.7139,-0.7139,-0.7139,-0.7139,-0.7139,-0.7139,-0.7139,-0.7139,-0.7139,-0.7102,-0.6936,-0.6797,-0.6658,-0.6481,-0.6349,-0.6338,-0.6338,-0.6338,-0.6338,-0.6338,-0.6338,-0.6338,-0.6338,-0.6338,-0.6338,-0.6338,-0.6338,-0.6338,-0.6338,-0.6338,-0.6338,-0.6338,-0.6122,-0.5976,-0.5847,-0.5684,-0.5535,-0.5406,-0.5439,-0.5428,-0.5428,-0.5428,-0.5428,-0.5428,-0.5428,-0.5428,-0.5428,-0.5428,-0.5428,-0.5428,-0.5428,-0.5428,-0.722,-0.7584,-0.7762,-0.7484,-0.7255,-0.7407,-0.864,0.0,0.0,0.0,0.0,0.0,0.0,0.0,0.0,0.0,0.0,0.0,0.0,0.0,0.0,0.0,0.0,0.0,0.0,0.0,0.0,0.0,-1.0824,-1.046,-1.046,-1.0524,-1.0565,-1.0565,-1.0565,-1.0714,-1.1013,-1.1013,-1.1013,-1.1013,-1.1013,-1.0864,-1.0484,-0.8836,-0.7859,-0.7553,0.0,-0.6338,-0.6342,-0.6285,-0.652,-0.6871,-0.7844,-0.8265,-0.8423,-0.8619,-0.8607,-0.8296,-0.7435,-0.7139,-0.7139,-0.7139,-0.7139,-0.7139,-0.7139,-0.7139,-0.7139,-0.7139,-0.7139,-0.7078,-0.6807,-0.6719,-0.663,-0.6359,-0.6278,-0.6338,-0.6338,-0.6338,-0.6338,-0.6338,-0.6338,-0.6338,-0.6338,-0.6338,-0.6338,-0.6338,-0.6338,-0.6338,-0.6338,-0.6338,-0.6338,-0.6338,-0.6122,-0.602,-0.5996,-0.5745,-0.5579,-0.5555,-0.5433,-0.5428,-0.5428,-0.5428,-0.5428,-0.5428,-0.5428,-0.5428,-0.5428,-0.5428,-0.5428,-0.5428,-0.5428,-0.5428,-0.6755,-0.7135,-0.7455,-0.734,-0.7549,-0.8128,-0.9332,-0.941,0.0,0.0,0.0,0.0,0.0,0.0,0.0,0.0,0.0,0.0,0.0,0.0,0.0,0.0,0.0,0.0,0.0,0.0,-1.1049,-1.1182,-1.1037,-1.0911,-1.0911,-1.1247,-1.1174,-1.0578,-1.0198,-0.9739,-0.921,-0.921,-0.9734,-1.0783,-1.0783,-1.0484,-0.9965,-0.8461,-0.748,-0.6945,0.0,-0.6338,-0.6338,-0.6338,-0.6298,-0.6438,-0.698,-0.7179,-0.7278,-0.7537,-0.7689,-0.771,-0.7264,-0.7139,-0.7139,-0.7139,-0.7139,-0.7139,-0.7139,-0.7139,-0.7139,-0.7139,-0.7139,-0.7092,-0.6878,-0.6763,-0.6647,-0.6427,-0.6318,-0.6338,-0.6338,-0.6338,-0.6338,-0.6338,-0.6338,-0.6338,-0.6338,-0.6338,-0.6338,-0.6338,-0.6338,-0.6338,-0.6338,-0.6338,-0.6338,-0.6338,-0.6196,-0.6122,-0.6037,-0.5905,-0.5725,-0.5481,-0.5466,-0.5428,-0.5428,-0.5428,-0.5428,-0.5428,-0.5428,-0.5428,-0.5428,-0.5428,-0.5428,-0.5428,-0.5428,-0.5428,-0.6441,-0.6823,-0.7279,-0.7445,0.0,-0.8756,-1.0178,-1.0082,0.0,0.0,0.0,0.0,0.0,0.0,0.0,0.0,0.0,0.0,0.0,0.0,0.0,0.0,0.0,0.0,0.0,-1.0762,-1.0895,-1.0895,-1.1156,-1.1323,-1.1323,-1.1603,-1.1327,-1.039,-0.9611,-0.8689,-0.7715,-0.7761,-0.8613,-1.011,-1.011,-0.9664,-0.8917,-0.7936,-0.7022,-0.6338,-0.6338,-0.6338,-0.6338,-0.6338,-0.6338,-0.6338,-0.6338,-0.6281,-0.6342,-0.6603,-0.6797,-0.6949,-0.7092,-0.7139,-0.7139,-0.7139,-0.7139,-0.7139,-0.7139,-0.7139,-0.7139,-0.7139,-0.7139,-0.7105,-0.6966,-0.6841,-0.6705,-0.6519,-0.639,-0.6302,-0.6345,-0.6338,-0.6338,-0.6338,-0.6338,-0.6338,-0.6338,-0.6338,-0.6338,-0.6338,-0.6338,-0.6338,-0.6338,-0.6338,-0.6338,-0.6338,-0.6338,-0.62,-0.604,-0.603,-0.5854,-0.544,-0.5449,-0.5428,-0.5428,-0.5428,-0.5428,-0.5428,-0.5428,-0.5428,-0.5428,-0.5428,-0.5428,-0.5428,-0.5428,-0.5428,-0.6969,-0.7268,-0.7429,-0.7616,-0.8004,-0.8797,-1.062,-1.052,0.0,-1.1955,0.0,0.0,0.0,0.0,0.0,0.0,0.0,0.0,0.0,0.0,0.0,0.0,0.0,-1.0624,-1.0624,-1.0645,-1.0658,-1.0658,-1.0862,-1.1022,-1.1022,-1.1303,-1.1037,-1.013,-0.9288,-0.8382,-0.7512,-0.7694,-0.7859,-0.8008,-0.8008,-0.8008,-0.7859,-0.6872,-0.6338,-0.6338,-0.6338,-0.6338,-0.6338,-0.6338,-0.6338,-0.6338,-0.6338,-0.6342,-0.6478,-0.6641,-0.6797,-0.6949,-0.7092,-0.7139,-0.7139,-0.7139,-0.7139,-0.7139,-0.7139,-0.7139,-0.7139,-0.7139,-0.7139,-0.7105,-0.6966,-0.6919,-0.6837,-0.6542,-0.6464,-0.642,-0.6288,-0.6338,-0.6338,-0.6338,-0.6338,-0.6338,-0.6338,-0.6338,-0.6338,-0.6338,-0.6338,-0.6338,-0.6338,-0.6338,-0.6338,-0.6338,-0.6338,-0.62,-0.604,-0.603,-0.5898,-0.5593,-0.544,-0.5428,-0.5428,-0.5428,-0.5428,-0.5428,-0.5428,-0.5428,-0.5428,-0.5428,-0.5428,-0.5428,-0.5428,-0.5428,-0.6349,-0.6882,-0.7393,-0.735,-0.8227,0.0,0.0,-1.1182,-1.1511,-1.2683,-1.2368,0.0,0.0,0.0,0.0,0.0,0.0,0.0,0.0,0.0,0.0,0.0,-1.1108,-1.0624,-1.0624,-1.0624,-1.0624,-1.0624,-1.0661,-1.0722,-1.0722,-1.1002,-1.0472,-0.8974,-0.8775,-0.8019,-0.6615,-0.6607,-0.6764,-0.6872,-0.748,-0.7783,-0.7783,-0.6795,-0.6338,-0.6338,-0.6338,-0.6338,-0.6338,-0.6338,-0.6338,-0.6338,-0.6338,-0.6295,-0.6359,-0.6505,-0.6654,-0.6807,-0.6956,-0.7065,-0.7139,-0.7139,-0.7139,-0.7139,-0.7139,-0.7139,-0.7139,-0.7139,-0.7139,-0.7129,-0.7075,-0.6997,-0.6875,-0.6664,-0.6539,-0.6434,-0.6291,-0.6338,-0.6338,-0.6338,-0.6338,-0.6338,-0.6338,-0.6338,-0.6338,-0.6338,-0.6338,-0.6338,-0.6338,-0.6338,-0.6338,-0.6338,-0.6338,-0.6237,-0.6179,-0.6084,-0.5983,-0.5871,-0.5637,-0.546,-0.5432,-0.5428,-0.5428,-0.5428,-0.5428,-0.5428,-0.5428,-0.5428,-0.5428,-0.5428,-0.5428,-0.5428,-0.6021,-0.6643,-0.7313,-0.7283,0.0,0.0,-1.1021,-1.1372,-1.1799,-1.2992,-1.2514,0.0,0.0,0.0,0.0,0.0,0.0,0.0,0.0,0.0,0.0,-1.1684,-1.096,-1.0454,-1.0618,-1.0624,-1.0624,-1.0624,-1.0624,-1.0624,-1.0624,-1.0748,-1.0052,-0.8189,-0.8338,-0.7615,-0.5888,-0.5983,-0.6084,-0.619,-0.6996,-0.7326,-0.7326,-0.6644,-0.6338,-0.6338,-0.6338,-0.6338,-0.6338,-0.6338,-0.6338,-0.6338,-0.6338,-0.6338,-0.6278,-0.642,-0.6539,-0.6651,-0.6803,-0.6953,-0.7075,-0.7075,-0.7102,-0.7139,-0.7139,-0.7139,-0.7139,-0.7139,-0.7139,-0.7139,-0.7139,-0.7068,-0.6946,-0.6749,-0.662,-0.6491,-0.6302,-0.6338,-0.6338,-0.6338,-0.6338,-0.6338,-0.6338,-0.6338,-0.618,-0.5867,-0.6103,-0.618,-0.5867,-0.6103,-0.6338,-0.6338,-0.6338,-0.6338,-0.6338,-0.6162,-0.6081,-0.6034,-0.584,-0.564,-0.5443,-0.5456,-0.5428,-0.5428,-0.5428,-0.5428,-0.5428,-0.5428,-0.5428,-0.5428,-0.5428,-0.5428,-0.6202,-0.6629,-0.7207,0.0,0.0,0.0,-1.0967,-1.0981,-1.124,-1.2771,0.0,-1.2353,-1.2793,0.0,0.0,0.0,0.0,0.0,0.0,0.0,0.0,-1.1307,-1.0576,-1.0227,-1.0591,-1.0618,-1.0618,-1.0561,-1.0561,-1.0561,-1.0561,-1.0561,-0.9779,-0.8027,-0.8112,-0.7351,-0.5589,-0.5881,-0.6027,-0.603,-0.6186,-0.6335,-0.6338,-0.6338,-0.6338,-0.6338,-0.6338,-0.6338,-0.6338,-0.6338,-0.6338,-0.6338,-0.6338,-0.6338,-0.6278,-0.6417,-0.6471,-0.6495,-0.6647,-0.68,-0.6926,-0.6926,-0.7021,-0.7136,-0.7136,-0.7136,-0.7136,-0.7136,-0.7136,-0.7139,-0.7139,-0.7139,-0.7065,-0.677,-0.6698,-0.6617,-0.6325,-0.6338,-0.6338,-0.6338,-0.6338,-0.6338,-0.6338,-0.6261,-0.5944,-0.4844,-0.5628,-0.5944,-0.4844,-0.5628,-0.6338,-0.6338,-0.6338,-0.6338,-0.6338,-0.6338,-0.6196,-0.604,-0.603,-0.5898,-0.5603,-0.5447,-0.5428,-0.5428,-0.5428,-0.5428,-0.5428,-0.5428,-0.5428,-0.5428,-0.5428,-0.5428,-0.5701,-0.6388,0.0,0.0,0.0,0.0,0.0,-1.0764,0.0,0.0,-1.1664,-1.1895,-1.2344,0.0,0.0,-1.2881,-1.2881,-1.282,0.0,0.0,-1.1215,-1.1054,-1.0319,-0.9927,-1.0221,-1.0247,-1.0086,-0.9709,-0.9658,-0.9658,-0.9658,-0.9134,-0.8544,-0.8027,-0.7433,-0.6676,-0.5589,-0.5677,-0.5823,-0.603,-0.6074,-0.6156,-0.6338,-0.6338,-0.6338,-0.6338,-0.6338,-0.6338,-0.6338,-0.6338,-0.6338,-0.6338,-0.6338,-0.6338,-0.6345,-0.6308,-0.6386,-0.6478,-0.6525,-0.6641,-0.677,-0.677,-0.6797,-0.6831,-0.6831,-0.6831,-0.6831,-0.6831,-0.6909,-0.6993,-0.6993,-0.6993,-0.6943,-0.6746,-0.6617,-0.6488,-0.6302,-0.6338,-0.6338,-0.6338,-0.6338,-0.6338,-0.6338,-0.5709,-0.5079,-0.4766,-0.4999,-0.5315,-0.5786,-0.6103,-0.6338,-0.6338,-0.6338,-0.6338,-0.6338,-0.6338,-0.624,-0.6196,-0.6091,-0.5942,-0.5745,-0.5599,-0.5521,-0.5521,-0.5416,-0.5428,-0.5428,-0.5428,-0.5428,-0.5428,-0.5428,-0.5428,-0.5806,0.0,0.0,0.0,0.0,0.0,0.0,0.0,0.0,0.0,0.0,-1.1494,-1.2073,-1.2196,0.0,-1.2423,-1.2255,-1.1931,-1.1498,-1.0995,-1.0601,-1.0282,-0.9783,-0.9619,-0.992,-0.9701,-0.9382,-0.9149,-0.8851,-0.8706,-0.8807,-0.8285,-0.7832,-0.7502,-0.6981,-0.632,-0.5498,-0.5559,-0.5681,-0.5854,-0.5911,-0.5989,-0.6081,-0.6203,-0.6338,-0.6338,-0.6338,-0.6338,-0.6338,-0.6338,-0.6338,-0.6338,-0.6338,-0.6338,-0.6338,-0.6338,-0.6315,-0.6386,-0.6386,-0.6485,-0.661,-0.661,-0.6651,-0.6702,-0.6702,-0.6702,-0.6702,-0.6702,-0.6766,-0.6837,-0.6837,-0.6454,-0.6235,-0.6625,-0.6583,-0.6351,-0.5814,-0.5631,-0.555,-0.5079,-0.5002,-0.5002,-0.5002,-0.453,-0.3906,-0.3517,-0.3828,-0.4453,-0.555,-0.6025,-0.6338,-0.6338,-0.6338,-0.6338,-0.6338,-0.6338,-0.6338,-0.6338,-0.5784,-0.5466,-0.5384,-0.5565,-0.5674,-0.5674,-0.5583,-0.5535,-0.5535,-0.5481,-0.5454,-0.545,-0.5456,-0.5428,-0.623,0.0,0.0,0.0,0.0,0.0,0.0,0.0,0.0,0.0,0.0,0.0,0.0,0.0,-1.1307,-1.1599,-1.119,-1.0568,-0.9917,-0.9814,-0.9619,-0.922,-0.9143,-0.9319,-0.9613,-0.8989,-0.8616,-0.8682,-0.7979,-0.7646,-0.7857,-0.7822,-0.7442,-0.6719,-0.6654,-0.6203,-0.5428,-0.5501,-0.5576,-0.5593,-0.5722,-0.5789,-0.5813,-0.6105,-0.6247,-0.6261,-0.6247,-0.6247,-0.6338,-0.6338,-0.6338,-0.6338,-0.6338,-0.6338,-0.6338,-0.6338,-0.6338,-0.6338,-0.6338,-0.6346,-0.6454,-0.6454,-0.6549,-0.6661,-0.6661,-0.6661,-0.6661,-0.6661,-0.6671,-0.6678,-0.6595,-0.5755,-0.5127,-0.6147,-0.6316,-0.5851,-0.4787,-0.453,-0.4295,-0.3279,-0.3124,-0.3124,-0.3124,-0.3046,-0.2657,-0.1723,-0.2347,-0.3359,-0.453,-0.555,-0.6183,-0.6261,-0.6338,-0.6338,-0.6338,-0.6338,-0.6261,-0.618,-0.5237,-0.4686,-0.453,-0.53,-0.5604,-0.5532,-0.5734,-0.5731,-0.5656,-0.5601,-0.561,-0.5606,-0.5467,-0.547,0.0,-0.626,0.0,0.0,0.0,0.0,0.0,0.0,0.0,0.0,0.0,0.0,0.0,0.0,-1.1075,-1.0771,-1.078,-1.0568,-0.9917,-0.9814,-0.9591,-0.8944,-0.8898,-0.9011,-0.9305,-0.8708,-0.8121,-0.7644,-0.7036,-0.6715,-0.6755,-0.6262,-0.6207,-0.6654,-0.6009,-0.5624,-0.5428,-0.5463,-0.5471,-0.5589,-0.5623,-0.5694,-0.581,-0.5996,-0.6146,-0.6254,-0.6132,-0.6149,-0.6338,-0.6338,-0.6338,-0.6338,-0.6338,-0.6338,-0.6338,-0.6338,-0.6338,-0.6338,-0.6338,-0.6281,-0.6305,-0.6305,-0.6329,-0.6356,-0.6356,-0.6356,-0.6356,-0.6356,-0.6434,-0.6357,-0.5546,-0.5119,-0.4784,-0.4234,-0.4002,-0.3771,-0.3517,-0.3435,-0.3357,-0.3124,-0.3124,-0.3124,-0.3124,-0.2425,-0.188,-0.1646,-0.1802,-0.2581,-0.4453,-0.4921,-0.5392,-0.6183,-0.6338,-0.6338,-0.6338,-0.6338,-0.5944,-0.5079,-0.4844,-0.4295,-0.3513,-0.4324,-0.4407,-0.3515,-0.5056,-0.5365,-0.4573,-0.534,-0.5755,-0.5755,-0.5722,-0.5705,0.0,0.0,0.0,0.0,0.0,0.0,0.0,0.0,0.0,0.0,0.0,0.0,0.0,0.0,-1.0111,-0.9947,-0.9768,-0.9591,-0.934,-0.9309,-0.9211,-0.8857,-0.8804,-0.8864,-0.9018,-0.8032,-0.7354,-0.7118,-0.6181,-0.5651,-0.575,-0.546,-0.5542,-0.6071,-0.562,-0.5428,-0.5428,-0.5428,-0.5403,-0.5481,-0.5481,-0.5559,-0.5705,-0.585,-0.5966,-0.604,-0.6034,-0.6074,-0.6156,-0.623,-0.6338,-0.6338,-0.6338,-0.6338,-0.6338,-0.6338,-0.6338,-0.6338,-0.6338,-0.6338,-0.6338,-0.6338,-0.6338,-0.6338,-0.6338,-0.6338,-0.6338,-0.6338,-0.5996,-0.5489,-0.4936,-0.4062,-0.3187,-0.263,-0.284,-0.2968,-0.2501,-0.2347,-0.2268,-0.1721,-0.1643,-0.1643,-0.1643,-0.1175,-0.0863,-0.0863,-0.1254,-0.1958,-0.3051,-0.3673,-0.4373,-0.5395,-0.555,-0.5709,-0.6261,-0.5864,-0.5315,-0.4766,-0.375,-0.2971,-0.2425,-0.2858,-0.3067,-0.2991,-0.4465,-0.4963,-0.444,-0.5427,-0.5911,-0.5908,-0.5833,-0.58,0.0,0.0,0.0,0.0,0.0,0.0,0.0,0.0,0.0,0.0,0.0,0.0,0.0,0.0,-0.9101,-0.9074,-0.8644,-0.8397,-0.8691,-0.8731,-0.8751,-0.8798,-0.8804,-0.8804,-0.8804,-0.745,-0.6663,-0.6839,-0.5526,-0.4799,-0.504,-0.5101,-0.5189,-0.5318,-0.5415,-0.5428,-0.5428,-0.5428,-0.5428,-0.5428,-0.5428,-0.543,-0.5555,-0.5671,-0.5752,-0.5806,-0.5911,-0.5983,-0.604,-0.6169,-0.6237,-0.6338,-0.6338,-0.6338,-0.6338,-0.6338,-0.6338,-0.6338,-0.6338,-0.6338,-0.6338,-0.6338,-0.6338,-0.6338,-0.6338,-0.6338,-0.6261,-0.6103,-0.5392,-0.4608,-0.4297,-0.2895,-0.1568,-0.1333,-0.1956,-0.2345,-0.1488,-0.1333,-0.1097,-0.0157,0.0,0.0,0.0,0.0,0.0,0.0,-0.0784,-0.1411,-0.1568,-0.2347,-0.3279,-0.4297,-0.4453,-0.4766,-0.5709,-0.4924,-0.4375,-0.4142,-0.2582,-0.1489,-0.1333,-0.1333,-0.1723,-0.2578,-0.3984,-0.4608,-0.4453,-0.5515,-0.6067,-0.6067,-0.5939,-0.5881,0.0,0.0,0.0,0.0,0.0,0.0,0.0,0.0,0.0,0.0,0.0,0.0,0.0,0.0,-0.8802,-0.7878,-0.7856,-0.8096,-0.839,-0.843,-0.8524,-0.8778,-0.8804,-0.8804,-0.8804,-0.745,-0.6598,-0.6628,-0.5462,-0.4707,-0.4748,-0.4992,-0.5138,-0.5162,-0.5291,-0.5428,-0.5428,-0.5428,-0.5428,-0.5428,-0.5428,-0.5439,-0.5459,-0.5476,-0.5559,-0.5796,-0.5694,-0.5793,-0.603,-0.6054,-0.6139,-0.6338,-0.6338,-0.6338,-0.6338,-0.6338,-0.6338,-0.6338,-0.6338,-0.6338,-0.6338,-0.6338,-0.6338,-0.6338,-0.6338,-0.6338,-0.6103,-0.5157,-0.4844,-0.4297,-0.2504,-0.1802,-0.1333,-0.0471,-0.0314,-0.0392,-0.0235,-0.0236,-0.0157,0.0,0.0,0.0,0.0,0.0,0.0,0.0,-0.0157,-0.0549,-0.1489,-0.1723,-0.2192,-0.3202,-0.3279,-0.3357,-0.3513,-0.3357,-0.2969,-0.2036,-0.1724,-0.1176,-0.0235,-0.0236,-0.0314,-0.0392,-0.3203,-0.4217,-0.3279,-0.5297,-0.623,-0.623,-0.621,-0.62,0.0,0.0,0.0,0.0,0.0,0.0,0.0,0.0,0.0,0.0,0.0,0.0,0.0,0.0,-0.8218,-0.7613,-0.7582,-0.7776,-0.8083,-0.827,-0.8424,-0.855,-0.8711,-0.8804,-0.8804,-0.745,-0.6588,-0.6588,-0.5357,-0.4599,-0.4684,-0.4813,-0.4958,-0.5125,-0.5196,-0.5274,-0.5428,-0.5428,-0.5428,-0.5428,-0.5428,-0.5428,-0.5428,-0.5428,-0.5433,-0.5555,-0.5579,-0.5708,-0.5908,-0.5993,-0.6122,-0.6338,-0.6338,-0.6338,-0.6338,-0.6338,-0.6338,-0.6338,-0.6338,-0.6338,-0.6338,-0.6338,-0.6338,-0.6338,-0.6338,-0.6338,-0.6103,-0.5002,-0.4295,-0.3437,-0.1958,-0.1176,-0.0549,-0.0079,0.0,0.0,0.0,0.0,0.0,0.0,0.0,0.0,0.0,0.0,0.0,0.0,0.0,-0.0157,-0.0628,-0.0706,-0.1097,-0.2112,-0.2268,-0.2501,-0.3046,-0.2579,-0.2035,-0.1646,-0.102,-0.0471,0.0,0.0,0.0,0.0,-0.2501,-0.3591,-0.3124,-0.5237,-0.6338,-0.6338,-0.6338,-0.6338,0.0,0.0,0.0,0.0,0.0,0.0,0.0,0.0,0.0,0.0,0.0,0.0,0.0,0.0,-0.7987,-0.7671,-0.7487,-0.7462,-0.7769,-0.8003,-0.8252,-0.8407,-0.8564,-0.8672,-0.8527,-0.7343,-0.6529,-0.6312,-0.5171,-0.4567,-0.4626,-0.467,-0.4792,-0.5013,-0.5091,-0.5186,-0.5301,-0.5342,-0.5428,-0.5428,-0.5428,-0.5428,-0.5428,-0.5428,-0.5428,-0.5435,-0.5484,-0.5613,-0.5759,-0.5911,-0.6061,-0.6207,-0.6244,-0.6338,-0.6338,-0.6338,-0.6338,-0.6338,-0.6338,-0.6338,-0.6338,-0.6338,-0.6338,-0.6338,-0.6338,-0.6103,-0.5709,-0.4608,-0.3515,-0.2501,-0.1489,-0.0628,0.0,0.0,0.0,0.0,0.0,0.0,0.0,0.0,0.0,0.0,0.0,0.0,0.0,0.0,0.0,0.0,0.0,0.0,-0.0314,-0.1097,-0.1176,-0.1488,-0.2267,-0.1644,-0.1176,-0.1176,-0.0471,0.0,0.0,0.0,0.0,0.0,-0.2033,-0.3124,-0.3124,-0.5237,-0.6338,-0.6338,-0.6338,-0.6338,0.0,0.0,0.0,0.0,0.0,0.0,0.0,0.0,0.0,0.0,0.0,0.0,0.0,0.0,0.0,-0.7976,-0.7384,-0.7148,-0.7493,-0.7547,-0.7775,-0.8353,-0.839,-0.8242,-0.7806,-0.7074,-0.6312,-0.5597,-0.4893,-0.4522,-0.4529,-0.4613,-0.4697,-0.4714,-0.4986,-0.5135,-0.5142,-0.5287,-0.5428,-0.5428,-0.5428,-0.5428,-0.5428,-0.5428,-0.5428,-0.5428,-0.5435,-0.546,-0.5613,-0.5752,-0.5905,-0.6057,-0.6203,-0.6338,-0.6338,-0.6338,-0.6338,-0.6338,-0.6338,-0.6338,-0.6338,-0.6338,-0.6338,-0.6338,-0.6338,-0.5628,-0.453,-0.3515,-0.2425,-0.1411,-0.0392,-0.0079,0.0,0.0,0.0,0.0,0.0,0.0,0.0,0.0,0.0,0.0,0.0,0.0,0.0,0.0,0.0,0.0,0.0,0.0,0.0,-0.0079,-0.0079,-0.0079,-0.0157,-0.0079,-0.0079,-0.0079,0.0,0.0,0.0,0.0,0.0,0.0,-0.2033,-0.3124,-0.3124,-0.5237,-0.6338,-0.6338,-0.6338,-0.6338,0.0,0.0,0.0,0.0,0.0,0.0,0.0,0.0,0.0,0.0,0.0,0.0,0.0,0.0,0.0,-0.7912,-0.7405,-0.7061,-0.7168,-0.7341,-0.7594,-0.7809,-0.7732,-0.7638,-0.7471,-0.6498,-0.576,-0.5542,-0.4897,-0.4519,-0.4519,-0.457,-0.4589,-0.4687,-0.4792,-0.4938,-0.5128,-0.5284,-0.5428,-0.5428,-0.5428,-0.5428,-0.5428,-0.5428,-0.5428,-0.5428,-0.5428,-0.5447,-0.5593,-0.5644,-0.581,-0.6034,-0.6091,-0.6173,-0.6183,-0.555,-0.5709,-0.6183,-0.555,-0.5709,-0.6338,-0.6338,-0.6338,-0.6338,-0.6338,-0.6025,-0.5392,-0.3593,-0.2812,-0.219,-0.0471,0.0,0.0,0.0,0.0,0.0,0.0,0.0,0.0,0.0,0.0,0.0,0.0,0.0,0.0,0.0,0.0,0.0,0.0,0.0,0.0,0.0,0.0,0.0,0.0,0.0,0.0,0.0,0.0,0.0,0.0,0.0,0.0,0.0,-0.141,-0.2425,-0.3124,-0.5237,-0.6338,-0.6338,-0.6338,-0.6338,-0.3089,0.0,0.0,0.0,0.0,0.0,0.0,0.0,0.0,0.0,0.0,0.0,0.0,0.0,0.0,0.0,-0.7405,-0.6979,-0.6979,-0.7194,-0.7355,-0.75,-0.7245,-0.7014,-0.6901,-0.5972,-0.5346,-0.5081,-0.4703,0.0,-0.4519,-0.4519,-0.4587,-0.4684,-0.4691,-0.4833,-0.5128,-0.5233,-0.5311,-0.5428,-0.5428,-0.5428,-0.5428,-0.5428,-0.5428,-0.5428,-0.5428,-0.542,-0.5518,-0.5569,-0.5705,-0.5891,-0.5989,-0.5862,-0.5644,-0.4908,-0.5157,-0.5631,-0.4921,-0.5395,-0.6338,-0.6338,-0.6338,-0.6338,-0.6338,-0.6025,-0.5392,-0.3593,-0.289,-0.2189,-0.0471,0.0,0.0,0.0,0.0,0.0,0.0,0.0,0.0,0.0,0.0,0.0,0.0,0.0,0.0,0.0,0.0,0.0,0.0,0.0,0.0,0.0,0.0,0.0,0.0,0.0,0.0,0.0,0.0,0.0,0.0,0.0,0.0,0.0,-0.1019,-0.1958,-0.2579,-0.4375,-0.5237,-0.5237,-0.5237,-0.5395,0.0,0.0,0.0,0.0,0.0,0.0,0.0,0.0,0.0,0.0,0.0,0.0,0.0,0.0,0.0,0.0,-0.7363,-0.6979,-0.6979,-0.6979,-0.7128,-0.7459,-0.6961,-0.6429,-0.6041,-0.5563,-0.4964,-0.4246,-0.4375,-0.4512,-0.4519,-0.4519,-0.4587,-0.4677,-0.4687,-0.4826,-0.5114,-0.5128,-0.5206,-0.5422,-0.5425,-0.5428,-0.5428,-0.5428,-0.5428,-0.5428,-0.5428,-0.5428,-0.5439,-0.5521,-0.5586,-0.5616,-0.5835,-0.5343,-0.453,-0.4568,-0.4611,-0.4686,-0.4611,-0.5315,-0.6183,-0.6183,-0.6257,-0.6261,-0.6261,-0.555,-0.453,-0.3435,-0.2425,-0.1411,-0.0314,0.0,0.0,0.0,0.0,0.0,0.0,0.0,0.0,0.0,0.0,0.0,0.0,0.0,0.0,0.0,0.0,0.0,0.0,0.0,0.0,0.0,0.0,0.0,0.0,0.0,0.0,0.0,0.0,0.0,0.0,0.0,0.0,0.0,-0.102,-0.1568,-0.1568,-0.2657,-0.3124,-0.3124,-0.3124,-0.3671,-0.2589,0.0,0.0,0.0,0.0,0.0,0.0,0.0,0.0,0.0,0.0,0.0,0.0,0.0,0.0,0.0,0.0,-0.6979,-0.6979,-0.6979,-0.7054,-0.7134,-0.6348,-0.5759,-0.5634,-0.4869,-0.4328,0.0,-0.4234,-0.4355,-0.4512,-0.4519,-0.4536,-0.458,-0.4633,-0.4728,-0.4813,-0.5023,-0.5152,-0.5196,-0.5308,-0.5428,-0.5428,-0.5428,-0.5428,-0.5428,-0.5428,-0.5428,-0.5432,-0.5406,-0.5491,-0.5537,-0.4925,-0.4596,-0.4302,-0.2945,-0.2893,-0.3437,-0.2737,-0.3127,-0.3982,-0.3982,-0.453,-0.5157,-0.5157,-0.5473,-0.5473,-0.3593,-0.289,-0.2267,-0.0471,0.0,0.0,0.0,0.0,0.0,0.0,0.0,0.0,0.0,0.0,0.0,0.0,0.0,0.0,0.0,0.0,0.0,0.0,0.0,0.0,0.0,0.0,0.0,0.0,0.0,0.0,0.0,0.0,0.0,0.0,0.0,0.0,0.0,-0.0314,-0.0471,-0.0471,-0.3047,-0.3826,-0.3124,-0.3124,-0.3279,-0.2498,0.0,0.0,0.0,0.0,0.0,0.0,-0.4115,0.0,0.0,0.0,0.0,0.0,0.0,0.0,0.0,0.0,-0.6887,-0.7001,-0.6979,-0.6979,-0.6979,-0.6078,-0.5415,-0.5415,-0.449,-0.3961,-0.4053,-0.4123,-0.4311,-0.4512,-0.4519,-0.4519,-0.4519,-0.4548,-0.4626,-0.4691,-0.486,-0.5009,-0.5131,-0.522,-0.5298,-0.5428,-0.5428,-0.5428,-0.5428,-0.5428,-0.5428,-0.5428,-0.5428,-0.5413,-0.5446,-0.458,-0.4026,-0.3575,-0.2164,-0.1957,-0.2425,-0.1802,-0.2268,-0.3124,-0.3124,-0.3826,-0.4688,-0.4688,-0.547,-0.5867,-0.3671,-0.25,-0.1565,-0.0314,0.0,0.0,0.0,0.0,0.0,0.0,0.0,0.0,0.0,0.0,0.0,0.0,0.0,0.0,0.0,0.0,0.0,0.0,0.0,0.0,0.0,0.0,0.0,0.0,0.0,0.0,0.0,0.0,0.0,0.0,0.0,0.0,0.0,0.0,-0.0236,-0.0706,-0.2035,-0.2425,-0.1799,-0.2268,-0.2501,-0.2382,-0.2148,0.0,0.0,0.0,0.0,-0.3097,-0.3566,-0.4152,0.0,0.0,0.0,0.0,0.0,0.0,0.0,0.0,0.0,-0.6981,-0.6937,-0.6937,-0.6979,-0.5947,-0.5216,-0.5303,-0.4365,-0.3775,-0.3788,-0.406,-0.4287,-0.4429,-0.4494,-0.4501,-0.4519,-0.4519,-0.4584,-0.4663,-0.468,-0.4823,-0.5081,-0.5114,-0.5203,-0.5335,-0.5422,-0.5428,-0.5428,-0.5428,-0.5428,-0.5428,-0.5428,-0.5428,-0.5322,-0.4393,-0.3475,-0.263,-0.1764,-0.1408,-0.1411,-0.1411,-0.2034,-0.2734,-0.2734,-0.3515,-0.4375,-0.4375,-0.5079,-0.555,-0.3515,-0.1488,0.0,0.0,0.0,0.0,0.0,0.0,0.0,0.0,0.0,0.0,0.0,0.0,0.0,0.0,0.0,0.0,0.0,0.0,0.0,0.0,0.0,0.0,0.0,0.0,0.0,0.0,0.0,0.0,0.0,0.0,0.0,0.0,0.0,0.0,0.0,0.0,-0.0471,-0.1411,-0.0471,-0.0079,-0.0236,-0.102,-0.1411,-0.2634,-0.2378,-0.2107,-0.2043,0.0,0.0,-0.2481,-0.3023,-0.3655,0.0,0.0,0.0,0.0,0.0,0.0,0.0,0.0,0.0,0.0,-0.6647,-0.652,-0.6937,-0.5556,-0.4783,-0.526,-0.4304,-0.367,-0.3782,-0.3961,-0.408,-0.4231,-0.4237,-0.4341,-0.4515,-0.4519,-0.4532,-0.4563,-0.4629,-0.4718,-0.4779,-0.5016,-0.5145,-0.5179,-0.5304,-0.5428,-0.5428,-0.5428,-0.5428,-0.5428,-0.5428,-0.5428,-0.5243,-0.3611,-0.285,-0.2478,-0.0904,-0.0309,-0.0314,-0.0314,-0.0471,-0.0627,-0.0627,-0.1332,-0.2192,-0.2192,-0.2893,-0.3437,-0.227,-0.0941,0.0,0.0,0.0,0.0,0.0,0.0,0.0,0.0,0.0,0.0,0.0,0.0,0.0,0.0,0.0,0.0,0.0,0.0,0.0,0.0,0.0,0.0,0.0,0.0,0.0,0.0,0.0,0.0,0.0,0.0,0.0,0.0,0.0,0.0,0.0,0.0,-0.0079,-0.0314,-0.0079,-0.0471,-0.1254,-0.0628,-0.0314,-0.2597,-0.2399,-0.2207,-0.2232,0.0,0.0,0.0,0.0,-0.3546,0.0,0.0,0.0,0.0,0.0,0.0,0.0,0.0,0.0,0.0,0.0,0.0,-0.6605,-0.5561,-0.487,-0.487,-0.417,-0.3748,-0.3894,-0.3907,-0.3972,-0.4076,-0.4153,-0.4227,-0.4355,-0.4426,-0.4519,-0.4519,-0.4594,-0.4616,-0.4694,-0.4918,-0.506,-0.5135,-0.5291,-0.5428,-0.5428,-0.5428,-0.516,-0.4688,-0.4688,-0.442,-0.3959,-0.3036,-0.2393,-0.186,-0.0522,0.0,0.0,0.0,0.0,0.0,0.0,-0.0706,-0.1568,-0.1568,-0.1957,-0.2268,-0.1723,-0.0863,0.0,0.0,0.0,0.0,0.0,0.0,0.0,0.0,0.0,0.0,0.0,0.0,0.0,0.0,0.0,0.0,0.0,0.0,0.0,0.0,0.0,0.0,0.0,0.0,0.0,0.0,0.0,0.0,0.0,0.0,0.0,0.0,0.0,0.0,0.0,0.0,0.0,0.0,0.0,-0.0314,-0.0784,-0.0235,0.0,0.0,0.0,0.0,0.0,0.0,-0.2955,0.0,0.0,0.0,0.0,0.0,0.0,0.0,0.0,0.0,0.0,0.0,0.0,0.0,0.0,0.0,-0.5984,-0.5349,-0.4771,-0.438,-0.3947,-0.3768,-0.3924,-0.3792,-0.3785,-0.3965,-0.407,-0.4167,-0.4194,-0.4389,-0.4519,-0.4519,-0.4519,-0.458,-0.465,-0.4802,-0.4952,-0.5094,-0.5247,-0.5332,-0.5362,-0.5226,-0.4688,-0.4015,-0.3813,-0.3211,-0.2415,-0.2402,-0.1945,-0.1195,-0.0295,0.0,0.0,0.0,0.0,0.0,0.0,-0.0549,-0.1254,-0.1254,-0.1254,-0.1254,-0.1254,-0.0706,0.0,0.0,0.0,0.0,0.0,0.0,0.0,0.0,0.0,0.0,0.0,0.0,0.0,0.0,0.0,0.0,0.0,0.0,0.0,0.0,0.0,0.0,0.0,0.0,0.0,0.0,0.0,0.0,0.0,0.0,0.0,0.0,0.0,0.0,0.0,0.0,0.0,0.0,0.0,0.0,0.0,0.0,0.0,0.0,0.0,0.0,0.0,-0.3079,0.0,0.0,0.0,0.0,0.0,0.0,0.0,0.0,0.0,0.0,0.0,0.0,0.0,0.0,0.0,0.0,0.0,-0.4137,-0.3704,-0.4161,-0.3681,-0.342,-0.3619,-0.3487,-0.3477,-0.3802,-0.3961,-0.4056,-0.419,-0.4389,-0.4519,-0.4519,-0.4519,-0.4525,-0.4546,-0.4643,-0.4796,-0.4948,-0.5091,-0.5233,-0.5359,-0.4553,-0.4082,-0.3949,-0.3145,-0.2277,-0.1475,-0.148,-0.1367,-0.1192,-0.0289,0.0,0.0,0.0,0.0,0.0,0.0,-0.0079,-0.0157,-0.0157,-0.0157,-0.0157,-0.0157,-0.0079,0.0,0.0,0.0,0.0,0.0,0.0,0.0,0.0,0.0,0.0,0.0,0.0,0.0,0.0,0.0,0.0,0.0,0.0,0.0,0.0,0.0,0.0,0.0,0.0,0.0,0.0,0.0,0.0,0.0,0.0,0.0,0.0,0.0,0.0,0.0,0.0,0.0,0.0,0.0,0.0,0.0,0.0,0.0,0.0,0.0,0.0,0.0,0.0,0.0,-0.3394,0.0,-0.4387,0.0,0.0,0.0,0.0,0.0,0.0,0.0,-0.3619,0.0,0.0,0.0,0.0,0.0,0.0,0.0,-0.384,-0.3524,-0.3407,-0.3687,-0.3565,-0.3537,-0.3663,-0.389,-0.405,-0.4063,-0.426,-0.4379,-0.4519,-0.4519,-0.4519,-0.4519,-0.4616,-0.4772,-0.4925,-0.5064,-0.4887,-0.4553,-0.4151,-0.3411,-0.241,-0.2009,-0.1341,-0.0538,-0.0538,-0.0542,-0.0482,-0.0144,0.0,0.0,0.0,0.0,0.0,0.0,0.0,0.0,0.0,0.0,0.0,0.0,0.0,0.0,0.0,0.0,0.0,0.0,0.0,0.0,0.0,0.0,0.0,0.0,0.0,0.0,0.0,0.0,0.0,0.0,0.0,0.0,0.0,0.0,0.0,0.0,0.0,0.0,0.0,0.0,0.0,0.0,0.0,0.0,0.0,0.0,0.0,0.0,0.0,0.0,0.0,0.0,0.0,0.0,0.0,0.0,-0.2995,0.0,0.0,0.0,0.0,0.0,0.0,0.0,0.0,0.0,0.0,0.0,0.0,0.0,0.0,0.0,0.0,0.0,0.0,0.0,0.0,0.0,0.0,0.0,0.0,-0.3026,-0.314,-0.3465,-0.349,-0.3507,-0.3632,-0.3839,-0.3975,-0.4019,-0.4117,-0.4244,-0.4402,-0.4498,-0.4519,-0.4519,-0.4575,-0.4707,-0.486,-0.5006,-0.4635,-0.3904,-0.3735,-0.2744,-0.1273,-0.1074,-0.0538,0.0,0.0,0.0,0.0,0.0,0.0,0.0,0.0,0.0,0.0,0.0,0.0,0.0,0.0,0.0,0.0,0.0,0.0,0.0,0.0,0.0,0.0,0.0,0.0,0.0,0.0,0.0,0.0,0.0,0.0,0.0,0.0,0.0,0.0,0.0,0.0,0.0,0.0,0.0,0.0,0.0,0.0,0.0,0.0,0.0,0.0,0.0,0.0,0.0,0.0,0.0,0.0,0.0,0.0,0.0,0.0,0.0,0.0,0.0,0.0,0.0,0.0,0.0,0.0,-0.2864,0.0,0.0,0.0,0.0,-0.5098,0.0,0.0,0.0,0.0,0.0,0.0,0.0,0.0,0.0,0.0,0.0,0.0,0.0,0.0,0.0,0.0,-0.2099,-0.2392,0.0,-0.2983,-0.3324,-0.3761,-0.3792,-0.3866,-0.4016,-0.4117,-0.4197,-0.4204,-0.4392,-0.4519,-0.4519,-0.4522,-0.4551,-0.4704,-0.4857,-0.4501,-0.3791,-0.3041,-0.221,-0.1207,-0.0404,0.0,0.0,0.0,0.0,0.0,0.0,0.0,0.0,0.0,0.0,0.0,0.0,0.0,0.0,0.0,0.0,0.0,0.0,0.0,0.0,0.0,0.0,0.0,0.0,0.0,0.0,0.0,0.0,0.0,0.0,0.0,0.0,0.0,0.0,0.0,0.0,0.0,0.0,0.0,0.0,0.0,0.0,0.0,0.0,0.0,0.0,0.0,0.0,0.0,0.0,0.0,0.0,0.0,0.0,0.0,0.0,0.0,0.0,0.0,0.0,0.0,0.0,0.0,0.0,-0.3483,-0.3073,0.0,0.0,0.0,0.0,0.0,0.0,0.0,0.0,0.0,0.0,0.0,0.0,0.0,0.0,0.0,0.0,0.0,0.0,0.0,0.0,0.0,0.0,0.0,0.0,-0.2803,0.0,-0.3639,-0.3741,-0.3816,-0.3866,-0.4019,-0.4093,-0.4194,-0.4392,-0.4519,-0.4519,-0.4519,-0.4545,-0.4694,-0.424,-0.3623,-0.2895,-0.2117,-0.1275,-0.0404,-0.0135,0.0,0.0,0.0,0.0,0.0,0.0,0.0,0.0,0.0,0.0,0.0,0.0,0.0,0.0,0.0,0.0,0.0,0.0,0.0,0.0,0.0,0.0,0.0,0.0,0.0,0.0,0.0,0.0,0.0,0.0,0.0,0.0,0.0,0.0,0.0,0.0,0.0,0.0,0.0,0.0,0.0,0.0,0.0,0.0,0.0,0.0,0.0,0.0,0.0,0.0,0.0,0.0,0.0,0.0,0.0,0.0,0.0,0.0,0.0,0.0,0.0,0.0,-0.2527,-0.293,0.0,-0.3116,-0.336,0.0,-0.3357,0.0,0.0,0.0,0.0,0.0,0.0,0.0,0.0,0.0,0.0,0.0,0.0,-0.1086,0.0,0.0,0.0,0.0,0.0,0.0,-0.1557,-0.2239,-0.2512,-0.2894,0.0,-0.3714,-0.3792,-0.3792,-0.3992,-0.407,-0.4117,-0.4362,-0.4519,-0.4519,-0.4519,-0.4402,-0.4209,-0.3795,-0.3043,-0.1967,-0.1516,-0.0806,0.0,0.0,0.0,0.0,0.0,0.0,0.0,0.0,0.0,0.0,0.0,0.0,0.0,0.0,0.0,0.0,0.0,0.0,0.0,0.0,0.0,0.0,0.0,0.0,0.0,0.0,0.0,0.0,0.0,0.0,0.0,0.0,0.0,0.0,0.0,0.0,0.0,0.0,0.0,0.0,0.0,0.0,0.0,0.0,0.0,0.0,0.0,0.0,0.0,0.0,0.0,0.0,0.0,0.0,0.0,0.0,0.0,0.0,0.0,0.0,0.0,0.0,0.0,0.0]}]]